| time (UTC) | temp C | wind direction | speed KPH | gust KPH | rain 1hr cm | rain 24hr cm | rain mn cm | humidity % | barometer mb |
| 20260509085329 | 16 | 119 | 1.6 | 6.4 | 0.00 | 0.00 | 0.00 | 60 | 1015.1 |
| 20260509085229 | 16 | 110 | 1.6 | 6.4 | 0.00 | 0.00 | 0.00 | 60 | 1015.1 |
| 20260509085129 | 16 | 110 | 1.6 | 6.4 | 0.00 | 0.00 | 0.00 | 63 | 1015.0 |
| 20260509085029 | 16 | 125 | 1.6 | 6.4 | 0.00 | 0.00 | 0.00 | 63 | 1015.0 |
| 20260509084930 | 16 | 125 | 1.6 | 6.4 | 0.00 | 0.00 | 0.00 | 62 | 1015.0 |
| 20260509084830 | 16 | 136 | 1.6 | 6.4 | 0.00 | 0.00 | 0.00 | 63 | 1015.1 |
| 20260509084729 | 16 | 138 | 1.6 | 6.4 | 0.00 | 0.00 | 0.00 | 63 | 1015.1 |
| 20260509084629 | 16 | 105 | 1.6 | 12.9 | 0.00 | 0.00 | 0.00 | 63 | 1015.1 |
| 20260509084529 | 16 | 105 | 1.6 | 12.9 | 0.00 | 0.00 | 0.00 | 63 | 1015.1 |
| 20260509084429 | 16 | 105 | 1.6 | 12.9 | 0.00 | 0.00 | 0.00 | 64 | 1015.0 |
| 20260509084329 | 16 | 105 | 1.6 | 12.9 | 0.00 | 0.00 | 0.00 | 64 | 1015.0 |
| 20260509084229 | 16 | 104 | 1.6 | 12.9 | 0.00 | 0.00 | 0.00 | 64 | 1015.1 |
| 20260509084129 | 16 | 103 | 1.6 | 12.9 | 0.00 | 0.00 | 0.00 | 64 | 1015.0 |
| 20260509084029 | 16 | 103 | 3.2 | 12.9 | 0.00 | 0.00 | 0.00 | 64 | 1015.1 |
| 20260509083950 | 16 | 105 | 3.2 | 12.9 | 0.00 | 0.00 | 0.00 | 65 | 1015.0 |
| 20260509083946 | 16 | 105 | 3.2 | 12.9 | 0.00 | 0.00 | 0.00 | 63 | 1015.1 |
| 20260509083942 | 16 | 133 | 3.2 | 12.9 | 0.00 | 0.00 | 0.00 | 63 | 1015.1 |
| 20260509083632 | 16 | 146 | 3.2 | 9.7 | 0.00 | 0.00 | 0.00 | 63 | 1015.1 |
| 20260509083528 | 16 | 122 | 3.2 | 9.7 | 0.00 | 0.00 | 0.00 | 63 | 1015.1 |
| 20260509083428 | 16 | 122 | 3.2 | 9.7 | 0.00 | 0.00 | 0.00 | 63 | 1015.1 |
| 20260509083328 | 16 | 153 | 3.2 | 9.7 | 0.00 | 0.00 | 0.00 | 62 | 1015.1 |
| 20260509083229 | 16 | 153 | 3.2 | 9.7 | 0.00 | 0.00 | 0.00 | 63 | 1015.1 |
| 20260509083129 | 16 | 211 | 3.2 | 9.7 | 0.00 | 0.00 | 0.00 | 65 | 1015.1 |
| 20260509083029 | 16 | 212 | 1.6 | 9.7 | 0.00 | 0.00 | 0.00 | 65 | 1015.1 |
| 20260509082929 | 15 | 175 | 1.6 | 8.0 | 0.00 | 0.00 | 0.00 | 65 | 1015.1 |
| 20260509082827 | 15 | 192 | 3.2 | 8.0 | 0.00 | 0.00 | 0.00 | 65 | 1015.1 |
| 20260509082727 | 15 | 192 | 3.2 | 8.0 | 0.00 | 0.00 | 0.00 | 65 | 1015.1 |
| 20260509082628 | 15 | 159 | 3.2 | 8.0 | 0.00 | 0.00 | 0.00 | 65 | 1015.1 |
| 20260509082528 | 15 | 157 | 3.2 | 8.0 | 0.00 | 0.00 | 0.00 | 65 | 1015.1 |
| 20260509082427 | 15 | 122 | 3.2 | 8.0 | 0.00 | 0.00 | 0.00 | 66 | 1015.1 |
| 20260509082327 | 15 | 132 | 3.2 | 8.0 | 0.00 | 0.00 | 0.00 | 65 | 1015.1 |
| 20260509082228 | 15 | 132 | 4.8 | 8.0 | 0.00 | 0.00 | 0.00 | 65 | 1015.1 |
| 20260509082128 | 15 | 132 | 4.8 | 12.9 | 0.00 | 0.00 | 0.00 | 65 | 1015.1 |
| 20260509082027 | 15 | 132 | 4.8 | 12.9 | 0.00 | 0.00 | 0.00 | 65 | 1015.1 |
| 20260509081925 | 15 | 131 | 4.8 | 12.9 | 0.00 | 0.00 | 0.00 | 65 | 1015.1 |
| 20260509081822 | 15 | 163 | 4.8 | 12.9 | 0.00 | 0.00 | 0.00 | 65 | 1015.1 |
| 20260509081722 | 15 | 171 | 4.8 | 12.9 | 0.00 | 0.00 | 0.00 | 66 | 1015.2 |
| 20260509081622 | 15 | 146 | 4.8 | 12.9 | 0.00 | 0.00 | 0.00 | 67 | 1015.1 |
| 20260509081522 | 15 | 191 | 3.2 | 12.9 | 0.00 | 0.00 | 0.00 | 66 | 1015.2 |
| 20260509081420 | 15 | 173 | 3.2 | 12.9 | 0.00 | 0.00 | 0.00 | 67 | 1015.1 |
| 20260509081315 | 15 | 181 | 3.2 | 12.9 | 0.00 | 0.00 | 0.00 | 67 | 1015.1 |
| 20260509081229 | 15 | 155 | 3.2 | 12.9 | 0.00 | 0.00 | 0.00 | 68 | 1015.1 |
| 20260509081214 | 15 | 146 | 3.2 | 12.9 | 0.00 | 0.00 | 0.00 | 68 | 1015.1 |
| 20260509081114 | 15 | 183 | 3.2 | 11.3 | 0.00 | 0.00 | 0.00 | 69 | 1015.1 |
| 20260509081014 | 15 | 151 | 3.2 | 9.7 | 0.00 | 0.00 | 0.00 | 70 | 1015.1 |
| 20260509080914 | 15 | 163 | 3.2 | 9.7 | 0.00 | 0.00 | 0.00 | 71 | 1015.1 |
| 20260509080810 | 15 | 158 | 3.2 | 9.7 | 0.00 | 0.00 | 0.00 | 71 | 1015.1 |
| 20260509080708 | 15 | 173 | 3.2 | 9.7 | 0.00 | 0.00 | 0.00 | 70 | 1015.0 |
| 20260509080611 | 15 | 155 | 3.2 | 9.7 | 0.00 | 0.00 | 0.00 | 72 | 1015.0 |
| 20260509080508 | 15 | 163 | 4.8 | 9.7 | 0.00 | 0.00 | 0.00 | 71 | 1015.0 |
| 20260509080408 | 15 | 163 | 4.8 | 11.3 | 0.00 | 0.00 | 0.00 | 71 | 1015.1 |
| 20260509080304 | 15 | 163 | 4.8 | 11.3 | 0.00 | 0.00 | 0.00 | 70 | 1015.0 |
| 20260509080202 | 15 | 163 | 4.8 | 11.3 | 0.00 | 0.00 | 0.00 | 70 | 1015.0 |
| 20260509080001 | 15 | 123 | 3.2 | 11.3 | 0.00 | 0.00 | 0.00 | 72 | 1015.0 |
| 20260509075901 | 15 | 123 | 3.2 | 11.3 | 0.00 | 0.00 | 0.00 | 72 | 1015.0 |
| 20260509075801 | 15 | 147 | 3.2 | 11.3 | 0.00 | 0.00 | 0.00 | 72 | 1015.0 |
| 20260509075702 | 15 | 143 | 3.2 | 11.3 | 0.00 | 0.00 | 0.00 | 73 | 1015.0 |
| 20260509075606 | 15 | 157 | 3.2 | 11.3 | 0.00 | 0.00 | 0.00 | 72 | 1015.0 |
| 20260509075502 | 14 | 115 | 3.2 | 11.3 | 0.00 | 0.00 | 0.00 | 73 | 1015.0 |
| 20260509075401 | 14 | 144 | 1.6 | 11.3 | 0.00 | 0.00 | 0.00 | 73 | 1015.0 |
| 20260509075301 | 14 | 134 | 1.6 | 8.0 | 0.00 | 0.00 | 0.00 | 74 | 1015.0 |
| 20260509075213 | 14 | 141 | 1.6 | 6.4 | 0.00 | 0.00 | 0.00 | 75 | 1015.0 |
| 20260509075201 | 14 | 147 | 1.6 | 6.4 | 0.00 | 0.00 | 0.00 | 75 | 1015.0 |
| 20260509075106 | 14 | 151 | 1.6 | 6.4 | 0.00 | 0.00 | 0.00 | 74 | 1015.0 |
| 20260509075001 | 14 | 151 | 1.6 | 6.4 | 0.00 | 0.00 | 0.00 | 73 | 1015.0 |
| 20260509074943 | 14 | 154 | 1.6 | 6.4 | 0.00 | 0.00 | 0.00 | 75 | 1015.1 |
| 20260509074929 | 14 | 151 | 1.6 | 6.4 | 0.00 | 0.00 | 0.00 | 73 | 1015.1 |
| 20260509074925 | 14 | 152 | 1.6 | 6.4 | 0.00 | 0.00 | 0.00 | 74 | 1015.1 |
| 20260509074701 | 14 | 154 | 1.6 | 6.4 | 0.00 | 0.00 | 0.00 | 75 | 1015.1 |
| 20260509074604 | 13 | 155 | 1.6 | 8.0 | 0.00 | 0.00 | 0.00 | 74 | 1015.1 |
| 20260509074501 | 13 | 155 | 1.6 | 8.0 | 0.00 | 0.00 | 0.00 | 73 | 1015.1 |
| 20260509074435 | 13 | 142 | 1.6 | 8.0 | 0.00 | 0.00 | 0.00 | 76 | 1015.1 |
| 20260509074428 | 13 | 155 | 1.6 | 8.0 | 0.00 | 0.00 | 0.00 | 75 | 1015.2 |
| 20260509074424 | 13 | 160 | 1.6 | 8.0 | 0.00 | 0.00 | 0.00 | 77 | 1015.1 |
| 20260509074201 | 13 | 142 | 1.6 | 8.0 | 0.00 | 0.00 | 0.00 | 76 | 1015.1 |
| 20260509074101 | 13 | 142 | 1.6 | 8.0 | 0.00 | 0.00 | 0.00 | 76 | 1015.1 |
| 20260509073955 | 13 | 142 | 1.6 | 8.0 | 0.00 | 0.00 | 0.00 | 75 | 1015.1 |
| 20260509073853 | 13 | 142 | 1.6 | 8.0 | 0.00 | 0.00 | 0.00 | 75 | 1015.1 |
| 20260509073753 | 13 | 142 | 1.6 | 8.0 | 0.00 | 0.00 | 0.00 | 75 | 1015.1 |
| 20260509073709 | 13 | 142 | 1.6 | 8.0 | 0.00 | 0.00 | 0.00 | 75 | 1015.1 |
| 20260509073653 | 13 | 143 | 1.6 | 8.0 | 0.00 | 0.00 | 0.00 | 75 | 1015.1 |
| 20260509073557 | 13 | 101 | 1.6 | 4.8 | 0.00 | 0.00 | 0.00 | 76 | 1015.0 |
| 20260509073454 | 13 | 101 | 1.6 | 4.8 | 0.00 | 0.00 | 0.00 | 76 | 1015.1 |
| 20260509073354 | 13 | 101 | 1.6 | 4.8 | 0.00 | 0.00 | 0.00 | 76 | 1015.1 |
| 20260509073254 | 13 | 101 | 1.6 | 4.8 | 0.00 | 0.00 | 0.00 | 76 | 1015.1 |
| 20260509073210 | 13 | 101 | 1.6 | 4.8 | 0.00 | 0.00 | 0.00 | 76 | 1015.1 |
| 20260509073154 | 13 | 101 | 1.6 | 4.8 | 0.00 | 0.00 | 0.00 | 76 | 1015.1 |
| 20260509073056 | 13 | 101 | 1.6 | 9.7 | 0.00 | 0.00 | 0.00 | 77 | 1015.0 |
| 20260509072953 | 13 | 101 | 1.6 | 9.7 | 0.00 | 0.00 | 0.00 | 76 | 1015.1 |
| 20260509072854 | 13 | 101 | 1.6 | 9.7 | 0.00 | 0.00 | 0.00 | 76 | 1015.0 |
| 20260509072752 | 13 | 101 | 1.6 | 9.7 | 0.00 | 0.00 | 0.00 | 76 | 1015.0 |
| 20260509072711 | 13 | 101 | 1.6 | 9.7 | 0.00 | 0.00 | 0.00 | 76 | 1015.0 |
| 20260509072652 | 13 | 101 | 1.6 | 9.7 | 0.00 | 0.00 | 0.00 | 76 | 1015.0 |
| 20260509072554 | 13 | 101 | 1.6 | 9.7 | 0.00 | 0.00 | 0.00 | 76 | 1015.0 |
| 20260509072447 | 13 | 101 | 1.6 | 9.7 | 0.00 | 0.00 | 0.00 | 76 | 1015.0 |
| 20260509072347 | 13 | 101 | 1.6 | 9.7 | 0.00 | 0.00 | 0.00 | 76 | 1015.0 |
| 20260509072245 | 13 | 115 | 1.6 | 9.7 | 0.00 | 0.00 | 0.00 | 76 | 1015.0 |
| 20260509072209 | 13 | 116 | 1.6 | 9.7 | 0.00 | 0.00 | 0.00 | 76 | 1015.0 |
| 20260509072146 | 13 | 116 | 1.6 | 9.7 | 0.00 | 0.00 | 0.00 | 76 | 1015.0 |
| 20260509072051 | 13 | 127 | 1.6 | 6.4 | 0.00 | 0.00 | 0.00 | 76 | 1015.0 |
| 20260509071944 | 13 | 128 | 1.6 | 6.4 | 0.00 | 0.00 | 0.00 | 76 | 1015.1 |
| 20260509071844 | 13 | 127 | 1.6 | 6.4 | 0.00 | 0.00 | 0.00 | 76 | 1015.1 |
| 20260509071744 | 13 | 128 | 1.6 | 6.4 | 0.00 | 0.00 | 0.00 | 76 | 1015.1 |
| 20260509071708 | 13 | 128 | 1.6 | 6.4 | 0.00 | 0.00 | 0.00 | 77 | 1015.1 |
| 20260509071643 | 13 | 98 | 1.6 | 6.4 | 0.00 | 0.00 | 0.00 | 77 | 1015.1 |
| 20260509071545 | 13 | 97 | 1.6 | 6.4 | 0.00 | 0.00 | 0.00 | 76 | 1015.1 |
| 20260509071443 | 13 | 96 | 1.6 | 6.4 | 0.00 | 0.00 | 0.00 | 76 | 1015.1 |
| 20260509071338 | 13 | 96 | 1.6 | 6.4 | 0.00 | 0.00 | 0.00 | 77 | 1015.2 |
| 20260509071238 | 13 | 101 | 1.6 | 6.4 | 0.00 | 0.00 | 0.00 | 76 | 1015.1 |
| 20260509071209 | 13 | 101 | 1.6 | 6.4 | 0.00 | 0.00 | 0.00 | 77 | 1015.1 |
| 20260509071137 | 13 | 101 | 1.6 | 6.4 | 0.00 | 0.00 | 0.00 | 77 | 1015.1 |
| 20260509071038 | 13 | 115 | 1.6 | 6.4 | 0.00 | 0.00 | 0.00 | 76 | 1015.1 |
| 20260509070938 | 12 | 115 | 3.2 | 9.7 | 0.00 | 0.00 | 0.00 | 76 | 1015.1 |
| 20260509070834 | 12 | 115 | 3.2 | 11.3 | 0.00 | 0.00 | 0.00 | 76 | 1015.1 |
| 20260509070731 | 12 | 116 | 3.2 | 11.3 | 0.00 | 0.00 | 0.00 | 76 | 1015.1 |
| 20260509070708 | 12 | 107 | 3.2 | 11.3 | 0.00 | 0.00 | 0.00 | 76 | 1015.1 |
| 20260509070631 | 12 | 90 | 3.2 | 11.3 | 0.00 | 0.00 | 0.00 | 76 | 1015.1 |
| 20260509070532 | 12 | 97 | 3.2 | 11.3 | 0.00 | 0.00 | 0.00 | 76 | 1015.2 |
| 20260509070432 | 12 | 119 | 3.2 | 11.3 | 0.00 | 0.00 | 0.00 | 76 | 1015.2 |
| 20260509070332 | 12 | 119 | 3.2 | 11.3 | 0.00 | 0.00 | 0.00 | 76 | 1015.2 |
| 20260509070230 | 12 | 127 | 3.2 | 11.3 | 0.00 | 0.00 | 0.00 | 76 | 1015.2 |
| 20260509070207 | 12 | 111 | 3.2 | 11.3 | 0.00 | 0.00 | 0.00 | 76 | 1015.2 |
| 20260509070130 | 12 | 111 | 3.2 | 11.3 | 0.00 | 0.00 | 0.00 | 76 | 1015.2 |
| 20260509070030 | 12 | 112 | 3.2 | 11.3 | 0.00 | 0.00 | 0.00 | 76 | 1015.2 |
| 20260509065930 | 12 | 88 | 3.2 | 11.3 | 0.00 | 0.00 | 0.00 | 76 | 1015.2 |
| 20260509065830 | 12 | 121 | 3.2 | 9.7 | 0.00 | 0.00 | 0.00 | 76 | 1015.2 |
| 20260509065707 | 12 | 105 | 3.2 | 9.7 | 0.00 | 0.00 | 0.00 | 76 | 1015.2 |
| 20260509065629 | 12 | 127 | 3.2 | 9.7 | 0.00 | 0.00 | 0.00 | 75 | 1015.2 |
| 20260509065529 | 12 | 108 | 3.2 | 9.7 | 0.00 | 0.00 | 0.00 | 76 | 1015.2 |
| 20260509065429 | 12 | 103 | 1.6 | 9.7 | 0.00 | 0.00 | 0.00 | 76 | 1015.2 |
| 20260509065329 | 12 | 121 | 3.2 | 9.7 | 0.00 | 0.00 | 0.00 | 75 | 1015.2 |
| 20260509065205 | 12 | 105 | 3.2 | 9.7 | 0.00 | 0.00 | 0.00 | 76 | 1015.2 |
| 20260509065125 | 12 | 128 | 1.6 | 9.7 | 0.00 | 0.00 | 0.00 | 76 | 1015.2 |
| 20260509065023 | 12 | 101 | 1.6 | 9.7 | 0.00 | 0.00 | 0.00 | 76 | 1015.2 |
| 20260509064923 | 12 | 109 | 1.6 | 9.7 | 0.00 | 0.00 | 0.00 | 76 | 1015.2 |
| 20260509064821 | 12 | 107 | 1.6 | 9.7 | 0.00 | 0.00 | 0.00 | 75 | 1015.2 |
| 20260509064722 | 12 | 113 | 1.6 | 11.3 | 0.00 | 0.00 | 0.00 | 76 | 1015.2 |
| 20260509064705 | 12 | 128 | 1.6 | 11.3 | 0.00 | 0.00 | 0.00 | 76 | 1015.2 |
| 20260509064622 | 12 | 119 | 3.2 | 11.3 | 0.00 | 0.00 | 0.00 | 76 | 1015.2 |
| 20260509064521 | 12 | 120 | 3.2 | 11.3 | 0.00 | 0.00 | 0.00 | 76 | 1015.3 |
| 20260509064421 | 12 | 120 | 3.2 | 11.3 | 0.00 | 0.00 | 0.00 | 76 | 1015.2 |
| 20260509064321 | 12 | 121 | 3.2 | 11.3 | 0.00 | 0.00 | 0.00 | 76 | 1015.2 |
| 20260509064219 | 12 | 122 | 3.2 | 11.3 | 0.00 | 0.00 | 0.00 | 76 | 1015.2 |
| 20260509064204 | 12 | 119 | 3.2 | 11.3 | 0.00 | 0.00 | 0.00 | 76 | 1015.2 |
| 20260509064120 | 12 | 119 | 3.2 | 11.3 | 0.00 | 0.00 | 0.00 | 76 | 1015.2 |
| 20260509064018 | 12 | 119 | 4.8 | 12.9 | 0.00 | 0.00 | 0.00 | 76 | 1015.2 |
| 20260509063918 | 12 | 119 | 4.8 | 12.9 | 0.00 | 0.00 | 0.00 | 76 | 1015.2 |
| 20260509063818 | 12 | 119 | 4.8 | 12.9 | 0.00 | 0.00 | 0.00 | 76 | 1015.2 |
| 20260509063718 | 12 | 113 | 4.8 | 12.9 | 0.00 | 0.00 | 0.00 | 77 | 1015.2 |
| 20260509063703 | 12 | 100 | 4.8 | 12.9 | 0.00 | 0.00 | 0.00 | 77 | 1015.2 |
| 20260509063617 | 12 | 134 | 3.2 | 12.9 | 0.00 | 0.00 | 0.00 | 77 | 1015.2 |
| 20260509063518 | 12 | 154 | 3.2 | 12.9 | 0.00 | 0.00 | 0.00 | 77 | 1015.1 |
| 20260509063418 | 12 | 173 | 3.2 | 12.9 | 0.00 | 0.00 | 0.00 | 77 | 1015.1 |
| 20260509063316 | 12 | 91 | 3.2 | 12.9 | 0.00 | 0.00 | 0.00 | 76 | 1015.2 |
| 20260509063203 | 12 | 91 | 4.8 | 12.9 | 0.00 | 0.00 | 0.00 | 76 | 1015.1 |
| 20260509063115 | 12 | 138 | 4.8 | 12.9 | 0.00 | 0.00 | 0.00 | 76 | 1015.1 |
| 20260509063016 | 12 | 136 | 3.2 | 11.3 | 0.00 | 0.00 | 0.00 | 76 | 1015.1 |
| 20260509062916 | 12 | 121 | 3.2 | 11.3 | 0.00 | 0.00 | 0.00 | 77 | 1015.1 |
| 20260509062815 | 12 | 138 | 3.2 | 11.3 | 0.00 | 0.00 | 0.00 | 77 | 1015.1 |
| 20260509062703 | 12 | 97 | 3.2 | 11.3 | 0.00 | 0.00 | 0.00 | 77 | 1015.1 |
| 20260509062615 | 12 | 82 | 3.2 | 11.3 | 0.00 | 0.00 | 0.00 | 77 | 1015.1 |
| 20260509062516 | 12 | 147 | 3.2 | 11.3 | 0.00 | 0.00 | 0.00 | 77 | 1015.1 |
| 20260509062432 | 11 | 106 | 3.2 | 9.7 | 0.00 | 0.00 | 0.00 | 77 | 1015.1 |
| 20260509062423 | 12 | 130 | 3.2 | 9.7 | 0.00 | 0.00 | 0.00 | 77 | 1015.1 |
| 20260509062419 | 12 | 130 | 3.2 | 9.7 | 0.00 | 0.00 | 0.00 | 77 | 1015.1 |
| 20260509062415 | 11 | 133 | 3.2 | 9.7 | 0.00 | 0.00 | 0.00 | 77 | 1015.1 |
| 20260509062116 | 11 | 111 | 1.6 | 9.7 | 0.00 | 0.00 | 0.00 | 77 | 1015.1 |
| 20260509062015 | 11 | 119 | 1.6 | 9.7 | 0.00 | 0.00 | 0.00 | 77 | 1015.1 |
| 20260509061915 | 11 | 108 | 1.6 | 6.4 | 0.00 | 0.00 | 0.00 | 77 | 1015.0 |
| 20260509061815 | 11 | 121 | 1.6 | 6.4 | 0.00 | 0.00 | 0.00 | 77 | 1015.0 |
| 20260509061715 | 11 | 153 | 1.6 | 6.4 | 0.00 | 0.00 | 0.00 | 77 | 1015.0 |
| 20260509061704 | 11 | 111 | 1.6 | 6.4 | 0.00 | 0.00 | 0.00 | 77 | 1015.0 |
| 20260509061616 | 11 | 105 | 1.6 | 6.4 | 0.00 | 0.00 | 0.00 | 78 | 1015.0 |
| 20260509061512 | 11 | 105 | 1.6 | 6.4 | 0.00 | 0.00 | 0.00 | 78 | 1015.0 |
| 20260509061411 | 11 | 112 | 1.6 | 4.8 | 0.00 | 0.00 | 0.00 | 79 | 1015.0 |
| 20260509061311 | 11 | 119 | 1.6 | 4.8 | 0.00 | 0.00 | 0.00 | 78 | 1015.0 |
| 20260509061205 | 11 | 127 | 1.6 | 4.8 | 0.00 | 0.00 | 0.00 | 79 | 1015.0 |
| 20260509061112 | 11 | 127 | 1.6 | 4.8 | 0.00 | 0.00 | 0.00 | 79 | 1015.0 |
| 20260509061011 | 11 | 108 | 1.6 | 4.8 | 0.00 | 0.00 | 0.00 | 79 | 1015.0 |
| 20260509060911 | 11 | 108 | 1.6 | 4.8 | 0.00 | 0.00 | 0.00 | 79 | 1015.0 |
| 20260509060811 | 11 | 108 | 1.6 | 4.8 | 0.00 | 0.00 | 0.00 | 79 | 1015.0 |
| 20260509060703 | 11 | 108 | 1.6 | 4.8 | 0.00 | 0.00 | 0.00 | 80 | 1015.0 |
| 20260509060611 | 11 | 111 | 0.0 | 4.8 | 0.00 | 0.00 | 0.00 | 80 | 1015.0 |
| 20260509060516 | 10 | 109 | 0.0 | 4.8 | 0.00 | 0.00 | 0.00 | 79 | 1015.0 |
| 20260509060411 | 10 | 109 | 1.6 | 4.8 | 0.00 | 0.00 | 0.00 | 79 | 1015.0 |
| 20260509060311 | 10 | 109 | 1.6 | 4.8 | 0.00 | 0.00 | 0.00 | 79 | 1015.0 |
| 20260509060204 | 10 | 113 | 1.6 | 4.8 | 0.00 | 0.00 | 0.00 | 80 | 1015.0 |
| 20260509060112 | 10 | 113 | 0.0 | 4.8 | 0.00 | 0.00 | 0.00 | 80 | 1015.0 |
| 20260509060016 | 10 | 113 | 1.6 | 4.8 | 0.00 | 0.00 | 0.00 | 80 | 1015.0 |
| 20260509055924 | 10 | 113 | 1.6 | 4.8 | 0.00 | 0.00 | 0.00 | 80 | 1015.0 |
| 20260509055920 | 10 | 113 | 1.6 | 9.7 | 0.00 | 0.00 | 0.00 | 80 | 1015.0 |
| 20260509055916 | 10 | 107 | 1.6 | 9.7 | 0.00 | 0.00 | 0.00 | 80 | 1015.0 |
| 20260509055607 | 10 | 105 | 1.6 | 9.7 | 0.00 | 0.00 | 0.00 | 80 | 1015.0 |
| 20260509055507 | 10 | 105 | 1.6 | 9.7 | 0.00 | 0.00 | 0.00 | 80 | 1015.0 |
| 20260509055407 | 10 | 105 | 1.6 | 9.7 | 0.00 | 0.00 | 0.00 | 81 | 1015.0 |
| 20260509055307 | 10 | 105 | 1.6 | 9.7 | 0.00 | 0.00 | 0.00 | 81 | 1015.0 |
| 20260509055204 | 10 | 105 | 1.6 | 9.7 | 0.00 | 0.00 | 0.00 | 80 | 1015.0 |
| 20260509055108 | 10 | 105 | 1.6 | 9.7 | 0.00 | 0.00 | 0.00 | 80 | 1015.0 |
| 20260509055008 | 10 | 106 | 1.6 | 9.7 | 0.00 | 0.00 | 0.00 | 80 | 1015.0 |
| 20260509054908 | 10 | 121 | 0.0 | 9.7 | 0.00 | 0.00 | 0.00 | 81 | 1015.0 |
| 20260509054808 | 10 | 98 | 0.0 | 4.8 | 0.00 | 0.00 | 0.00 | 81 | 1015.0 |
| 20260509054707 | 10 | 96 | 0.0 | 4.8 | 0.00 | 0.00 | 0.00 | 81 | 1015.0 |
| 20260509054703 | 10 | 99 | 0.0 | 4.8 | 0.00 | 0.00 | 0.00 | 81 | 1015.0 |
| 20260509054607 | 10 | 105 | 0.0 | 4.8 | 0.00 | 0.00 | 0.00 | 81 | 1015.0 |
| 20260509054508 | 10 | 111 | 1.6 | 4.8 | 0.00 | 0.00 | 0.00 | 81 | 1015.0 |
| 20260509054408 | 10 | 110 | 1.6 | 4.8 | 0.00 | 0.00 | 0.00 | 82 | 1014.9 |
| 20260509054307 | 9 | 111 | 1.6 | 4.8 | 0.00 | 0.00 | 0.00 | 82 | 1015.0 |
| 20260509054205 | 9 | 111 | 1.6 | 4.8 | 0.00 | 0.00 | 0.00 | 82 | 1015.0 |
| 20260509054107 | 9 | 110 | 1.6 | 4.8 | 0.00 | 0.00 | 0.00 | 82 | 1015.0 |
| 20260509054007 | 9 | 110 | 1.6 | 4.8 | 0.00 | 0.00 | 0.00 | 81 | 1015.0 |
| 20260509053907 | 9 | 110 | 1.6 | 4.8 | 0.00 | 0.00 | 0.00 | 82 | 1015.0 |
| 20260509053807 | 9 | 111 | 1.6 | 4.8 | 0.00 | 0.00 | 0.00 | 82 | 1015.0 |
| 20260509053703 | 9 | 108 | 1.6 | 4.8 | 0.00 | 0.00 | 0.00 | 82 | 1015.1 |
| 20260509053603 | 9 | 111 | 1.6 | 4.8 | 0.00 | 0.00 | 0.00 | 82 | 1015.1 |
| 20260509053503 | 9 | 112 | 0.0 | 4.8 | 0.00 | 0.00 | 0.00 | 83 | 1015.1 |
| 20260509053423 | 9 | 113 | 0.0 | 3.2 | 0.00 | 0.00 | 0.00 | 83 | 1015.1 |
| 20260509053419 | 9 | 113 | 1.6 | 3.2 | 0.00 | 0.00 | 0.00 | 83 | 1015.1 |
| 20260509053415 | 9 | 113 | 1.6 | 4.8 | 0.00 | 0.00 | 0.00 | 83 | 1015.1 |
| 20260509053104 | 9 | 113 | 1.6 | 4.8 | 0.00 | 0.00 | 0.00 | 83 | 1015.1 |
| 20260509053004 | 9 | 113 | 1.6 | 4.8 | 0.00 | 0.00 | 0.00 | 82 | 1015.1 |
| 20260509052903 | 9 | 113 | 1.6 | 4.8 | 0.00 | 0.00 | 0.00 | 82 | 1015.1 |
| 20260509052803 | 9 | 113 | 1.6 | 4.8 | 0.00 | 0.00 | 0.00 | 82 | 1015.1 |
| 20260509052701 | 9 | 113 | 1.6 | 6.4 | 0.00 | 0.00 | 0.00 | 82 | 1015.1 |
| 20260509052601 | 9 | 113 | 1.6 | 6.4 | 0.00 | 0.00 | 0.00 | 82 | 1015.1 |
| 20260509052502 | 9 | 113 | 1.6 | 6.4 | 0.00 | 0.00 | 0.00 | 82 | 1015.1 |
| 20260509052423 | 9 | 113 | 1.6 | 6.4 | 0.00 | 0.00 | 0.00 | 82 | 1015.1 |
| 20260509052419 | 9 | 113 | 1.6 | 6.4 | 0.00 | 0.00 | 0.00 | 82 | 1015.0 |
| 20260509052415 | 9 | 113 | 1.6 | 6.4 | 0.00 | 0.00 | 0.00 | 83 | 1015.0 |
| 20260509052101 | 9 | 113 | 1.6 | 6.4 | 0.00 | 0.00 | 0.00 | 83 | 1015.0 |
| 20260509052001 | 9 | 113 | 3.2 | 8.0 | 0.00 | 0.00 | 0.00 | 83 | 1015.0 |
| 20260509051901 | 9 | 115 | 3.2 | 8.0 | 0.00 | 0.00 | 0.00 | 84 | 1015.0 |
| 20260509051801 | 9 | 115 | 3.2 | 8.0 | 0.00 | 0.00 | 0.00 | 84 | 1015.0 |
| 20260509051701 | 9 | 123 | 3.2 | 8.0 | 0.00 | 0.00 | 0.00 | 84 | 1015.0 |
| 20260509051601 | 9 | 124 | 3.2 | 8.0 | 0.00 | 0.00 | 0.00 | 84 | 1015.0 |
| 20260509051501 | 9 | 126 | 3.2 | 8.0 | 0.00 | 0.00 | 0.00 | 84 | 1015.0 |
| 20260509051401 | 9 | 129 | 3.2 | 8.0 | 0.00 | 0.00 | 0.00 | 84 | 1015.0 |
| 20260509051301 | 9 | 129 | 3.2 | 8.0 | 0.00 | 0.00 | 0.00 | 84 | 1015.0 |
| 20260509051201 | 9 | 143 | 3.2 | 8.0 | 0.00 | 0.00 | 0.00 | 84 | 1015.1 |
| 20260509051101 | 9 | 144 | 3.2 | 8.0 | 0.00 | 0.00 | 0.00 | 84 | 1015.0 |
| 20260509051001 | 9 | 134 | 1.6 | 6.4 | 0.00 | 0.00 | 0.00 | 84 | 1015.1 |
| 20260509050900 | 9 | 125 | 1.6 | 6.4 | 0.00 | 0.00 | 0.00 | 84 | 1015.0 |
| 20260509050800 | 9 | 122 | 1.6 | 4.8 | 0.00 | 0.00 | 0.00 | 84 | 1015.1 |
| 20260509050700 | 9 | 120 | 1.6 | 4.8 | 0.00 | 0.00 | 0.00 | 84 | 1015.0 |
| 20260509050601 | 9 | 119 | 1.6 | 4.8 | 0.00 | 0.00 | 0.00 | 83 | 1015.0 |
| 20260509050501 | 9 | 119 | 1.6 | 4.8 | 0.00 | 0.00 | 0.00 | 83 | 1015.0 |
| 20260509050423 | 8 | 117 | 1.6 | 4.8 | 0.00 | 0.00 | 0.00 | 83 | 1015.0 |
| 20260509050419 | 9 | 119 | 1.6 | 4.8 | 0.00 | 0.00 | 0.00 | 84 | 1015.0 |
| 20260509050415 | 9 | 119 | 3.2 | 4.8 | 0.00 | 0.00 | 0.00 | 83 | 1015.0 |
| 20260509050407 | 9 | 119 | 3.2 | 4.8 | 0.00 | 0.00 | 0.00 | 83 | 1015.0 |
| 20260509050148 | 9 | 119 | 3.2 | 4.8 | 0.00 | 0.00 | 0.00 | 83 | 1015.0 |
| 20260509050144 | 8 | 119 | 3.2 | 4.8 | 0.00 | 0.00 | 0.00 | 83 | 1015.0 |
| 20260509045920 | 8 | 119 | 1.6 | 4.8 | 0.00 | 0.00 | 0.00 | 83 | 1015.0 |
| 20260509045916 | 8 | 117 | 1.6 | 4.8 | 0.00 | 0.00 | 0.00 | 83 | 1015.0 |
| 20260509045912 | 8 | 117 | 1.6 | 4.8 | 0.00 | 0.00 | 0.00 | 83 | 1015.0 |
| 20260509045601 | 8 | 117 | 1.6 | 4.8 | 0.00 | 0.00 | 0.00 | 83 | 1015.0 |
| 20260509045501 | 8 | 115 | 1.6 | 3.2 | 0.00 | 0.00 | 0.00 | 83 | 1014.9 |
| 20260509045401 | 8 | 115 | 1.6 | 3.2 | 0.00 | 0.00 | 0.00 | 83 | 1015.0 |
| 20260509045301 | 8 | 115 | 1.6 | 3.2 | 0.00 | 0.00 | 0.00 | 83 | 1014.9 |
| 20260509045202 | 8 | 115 | 1.6 | 3.2 | 0.00 | 0.00 | 0.00 | 83 | 1014.9 |
| 20260509045101 | 8 | 115 | 1.6 | 3.2 | 0.00 | 0.00 | 0.00 | 83 | 1014.9 |
| 20260509045000 | 8 | 115 | 0.0 | 3.2 | 0.00 | 0.00 | 0.00 | 83 | 1014.9 |
| 20260509044901 | 8 | 115 | 0.0 | 3.2 | 0.00 | 0.00 | 0.00 | 83 | 1014.9 |
| 20260509044801 | 8 | 115 | 0.0 | 3.2 | 0.00 | 0.00 | 0.00 | 83 | 1014.9 |
| 20260509044701 | 8 | 115 | 1.6 | 6.4 | 0.00 | 0.00 | 0.00 | 83 | 1014.9 |
| 20260509044601 | 8 | 115 | 1.6 | 6.4 | 0.00 | 0.00 | 0.00 | 83 | 1014.9 |
| 20260509044500 | 8 | 115 | 1.6 | 6.4 | 0.00 | 0.00 | 0.00 | 83 | 1014.9 |
| 20260509044421 | 8 | 115 | 1.6 | 6.4 | 0.00 | 0.00 | 0.00 | 83 | 1014.9 |
| 20260509044417 | 8 | 115 | 1.6 | 6.4 | 0.00 | 0.00 | 0.00 | 83 | 1014.8 |
| 20260509044412 | 8 | 115 | 1.6 | 9.7 | 0.00 | 0.00 | 0.00 | 83 | 1014.8 |
| 20260509044100 | 8 | 115 | 1.6 | 9.7 | 0.00 | 0.00 | 0.00 | 83 | 1014.8 |
| 20260509044001 | 8 | 115 | 3.2 | 9.7 | 0.00 | 0.00 | 0.00 | 83 | 1014.8 |
| 20260509043900 | 8 | 115 | 3.2 | 9.7 | 0.00 | 0.00 | 0.00 | 83 | 1014.8 |
| 20260509043800 | 8 | 116 | 3.2 | 9.7 | 0.00 | 0.00 | 0.00 | 83 | 1014.8 |
| 20260509043701 | 8 | 135 | 3.2 | 9.7 | 0.00 | 0.00 | 0.00 | 83 | 1014.8 |
| 20260509043601 | 8 | 114 | 3.2 | 9.7 | 0.00 | 0.00 | 0.00 | 83 | 1014.7 |
| 20260509043501 | 8 | 103 | 3.2 | 9.7 | 0.00 | 0.00 | 0.00 | 83 | 1014.7 |
| 20260509043401 | 8 | 103 | 3.2 | 9.7 | 0.00 | 0.00 | 0.00 | 83 | 1014.7 |
| 20260509043301 | 8 | 109 | 3.2 | 9.7 | 0.00 | 0.00 | 0.00 | 83 | 1014.6 |
| 20260509043201 | 8 | 121 | 3.2 | 8.0 | 0.00 | 0.00 | 0.00 | 83 | 1014.6 |
| 20260509043156 | 8 | 121 | 3.2 | 8.0 | 0.00 | 0.00 | 0.00 | 83 | 1014.6 |
| 20260509043056 | 8 | 113 | 4.8 | 11.3 | 0.00 | 0.00 | 0.00 | 82 | 1014.6 |
| 20260509042955 | 8 | 95 | 4.8 | 11.3 | 0.00 | 0.00 | 0.00 | 82 | 1014.6 |
| 20260509042918 | 8 | 103 | 4.8 | 11.3 | 0.00 | 0.00 | 0.00 | 82 | 1014.6 |
| 20260509042913 | 8 | 98 | 4.8 | 11.3 | 0.00 | 0.00 | 0.00 | 82 | 1014.6 |
| 20260509042656 | 8 | 141 | 6.4 | 12.9 | 0.00 | 0.00 | 0.00 | 81 | 1014.6 |
| 20260509042652 | 8 | 93 | 4.8 | 11.3 | 0.00 | 0.00 | 0.00 | 82 | 1014.6 |
| 20260509042648 | 8 | 95 | 6.4 | 12.9 | 0.00 | 0.00 | 0.00 | 82 | 1014.6 |
| 20260509042644 | 8 | 112 | 6.4 | 12.9 | 0.00 | 0.00 | 0.00 | 82 | 1014.6 |
| 20260509042418 | 8 | 113 | 6.4 | 12.9 | 0.00 | 0.00 | 0.00 | 82 | 1014.5 |
| 20260509042414 | 8 | 128 | 6.4 | 12.9 | 0.00 | 0.00 | 0.00 | 81 | 1014.6 |
| 20260509042146 | 8 | 134 | 6.4 | 12.9 | 0.00 | 0.00 | 0.00 | 81 | 1014.6 |
| 20260509042046 | 8 | 121 | 6.4 | 14.5 | 0.00 | 0.00 | 0.00 | 81 | 1014.6 |
| 20260509041945 | 8 | 157 | 6.4 | 14.5 | 0.00 | 0.00 | 0.00 | 81 | 1014.5 |
| 20260509041843 | 8 | 150 | 8.0 | 14.5 | 0.00 | 0.00 | 0.00 | 81 | 1014.6 |
| 20260509041741 | 8 | 130 | 8.0 | 14.5 | 0.00 | 0.00 | 0.00 | 81 | 1014.5 |
| 20260509041701 | 8 | 140 | 8.0 | 14.5 | 0.00 | 0.00 | 0.00 | 81 | 1014.5 |
| 20260509041638 | 8 | 142 | 6.4 | 14.5 | 0.00 | 0.00 | 0.00 | 81 | 1014.5 |
| 20260509041538 | 8 | 135 | 6.4 | 14.5 | 0.00 | 0.00 | 0.00 | 81 | 1014.5 |
| 20260509041437 | 8 | 137 | 6.4 | 14.5 | 0.00 | 0.00 | 0.00 | 81 | 1014.5 |
| 20260509041335 | 8 | 146 | 6.4 | 14.5 | 0.00 | 0.00 | 0.00 | 81 | 1014.5 |
| 20260509041236 | 8 | 140 | 6.4 | 14.5 | 0.00 | 0.00 | 0.00 | 81 | 1014.5 |
| 20260509041201 | 8 | 142 | 6.4 | 14.5 | 0.00 | 0.00 | 0.00 | 81 | 1014.5 |
| 20260509041135 | 8 | 138 | 6.4 | 14.5 | 0.00 | 0.00 | 0.00 | 81 | 1014.5 |
| 20260509041035 | 8 | 140 | 4.8 | 11.3 | 0.00 | 0.00 | 0.00 | 81 | 1014.5 |
| 20260509040935 | 8 | 132 | 4.8 | 11.3 | 0.00 | 0.00 | 0.00 | 81 | 1014.5 |
| 20260509040835 | 8 | 136 | 3.2 | 11.3 | 0.00 | 0.00 | 0.00 | 81 | 1014.5 |
| 20260509040735 | 8 | 143 | 3.2 | 11.3 | 0.00 | 0.00 | 0.00 | 81 | 1014.5 |
| 20260509040700 | 8 | 132 | 3.2 | 11.3 | 0.00 | 0.00 | 0.00 | 81 | 1014.5 |
| 20260509040635 | 8 | 143 | 1.6 | 11.3 | 0.00 | 0.00 | 0.00 | 81 | 1014.6 |
| 20260509040534 | 8 | 138 | 1.6 | 9.7 | 0.00 | 0.00 | 0.00 | 81 | 1014.5 |
| 20260509040434 | 8 | 146 | 1.6 | 8.0 | 0.00 | 0.00 | 0.00 | 82 | 1014.6 |
| 20260509040332 | 8 | 136 | 1.6 | 6.4 | 0.00 | 0.00 | 0.00 | 82 | 1014.5 |
| 20260509040231 | 8 | 164 | 0.0 | 4.8 | 0.00 | 0.00 | 0.00 | 82 | 1014.5 |
| 20260509040200 | 8 | 148 | 0.0 | 4.8 | 0.00 | 0.00 | 0.00 | 82 | 1014.5 |
| 20260509040131 | 8 | 143 | 0.0 | 3.2 | 0.00 | 0.00 | 0.00 | 82 | 1014.5 |
| 20260509040031 | 8 | 140 | 0.0 | 4.8 | 0.00 | 0.00 | 0.00 | 82 | 1014.6 |
| 20260509035929 | 8 | 140 | 0.0 | 4.8 | 0.00 | 0.00 | 0.00 | 82 | 1014.5 |
| 20260509035829 | 8 | 140 | 0.0 | 4.8 | 0.00 | 0.00 | 0.00 | 81 | 1014.5 |
| 20260509035701 | 8 | 140 | 1.6 | 4.8 | 0.00 | 0.00 | 0.00 | 81 | 1014.5 |
| 20260509035629 | 8 | 140 | 1.6 | 4.8 | 0.00 | 0.00 | 0.00 | 81 | 1014.5 |
| 20260509035530 | 8 | 140 | 1.6 | 4.8 | 0.00 | 0.00 | 0.00 | 81 | 1014.5 |
| 20260509035429 | 8 | 140 | 1.6 | 4.8 | 0.00 | 0.00 | 0.00 | 81 | 1014.5 |
| 20260509035330 | 8 | 140 | 1.6 | 4.8 | 0.00 | 0.00 | 0.00 | 81 | 1014.5 |
| 20260509035203 | 8 | 140 | 1.6 | 4.8 | 0.00 | 0.00 | 0.00 | 81 | 1014.6 |
| 20260509035159 | 8 | 140 | 1.6 | 4.8 | 0.00 | 0.00 | 0.00 | 81 | 1014.6 |
| 20260509035029 | 8 | 141 | 1.6 | 4.8 | 0.00 | 0.00 | 0.00 | 81 | 1014.6 |
| 20260509034929 | 8 | 141 | 1.6 | 4.8 | 0.00 | 0.00 | 0.00 | 81 | 1014.6 |
| 20260509034829 | 8 | 140 | 1.6 | 4.8 | 0.00 | 0.00 | 0.00 | 81 | 1014.6 |
| 20260509034729 | 8 | 140 | 1.6 | 4.8 | 0.00 | 0.00 | 0.00 | 81 | 1014.6 |
| 20260509034701 | 8 | 123 | 1.6 | 4.8 | 0.00 | 0.00 | 0.00 | 81 | 1014.6 |
| 20260509034628 | 8 | 123 | 0.0 | 4.8 | 0.00 | 0.00 | 0.00 | 81 | 1014.6 |
| 20260509034528 | 8 | 123 | 0.0 | 3.2 | 0.00 | 0.00 | 0.00 | 81 | 1014.5 |
| 20260509034429 | 8 | 123 | 0.0 | 3.2 | 0.00 | 0.00 | 0.00 | 81 | 1014.5 |
| 20260509034328 | 8 | 123 | 0.0 | 1.6 | 0.00 | 0.00 | 0.00 | 81 | 1014.5 |
| 20260509034201 | 8 | 123 | 0.0 | 1.6 | 0.00 | 0.00 | 0.00 | 81 | 1014.4 |
| 20260509034129 | 8 | 123 | 0.0 | 1.6 | 0.00 | 0.00 | 0.00 | 81 | 1014.5 |
| 20260509034029 | 8 | 123 | 0.0 | 1.6 | 0.00 | 0.00 | 0.00 | 81 | 1014.5 |
| 20260509033929 | 8 | 123 | 0.0 | 1.6 | 0.00 | 0.00 | 0.00 | 81 | 1014.4 |
| 20260509033829 | 8 | 123 | 0.0 | 1.6 | 0.00 | 0.00 | 0.00 | 81 | 1014.4 |
| 20260509033701 | 8 | 123 | 0.0 | 1.6 | 0.00 | 0.00 | 0.00 | 81 | 1014.5 |
| 20260509033628 | 8 | 123 | 0.0 | 1.6 | 0.00 | 0.00 | 0.00 | 81 | 1014.5 |
| 20260509033528 | 8 | 123 | 0.0 | 1.6 | 0.00 | 0.00 | 0.00 | 81 | 1014.4 |
| 20260509033428 | 8 | 123 | 0.0 | 1.6 | 0.00 | 0.00 | 0.00 | 81 | 1014.5 |
| 20260509033329 | 8 | 123 | 0.0 | 1.6 | 0.00 | 0.00 | 0.00 | 81 | 1014.5 |
| 20260509033229 | 8 | 123 | 0.0 | 1.6 | 0.00 | 0.00 | 0.00 | 81 | 1014.5 |
| 20260509033200 | 9 | 123 | 0.0 | 1.6 | 0.00 | 0.00 | 0.00 | 81 | 1014.5 |
| 20260509033128 | 9 | 123 | 0.0 | 1.6 | 0.00 | 0.00 | 0.00 | 81 | 1014.4 |
| 20260509033029 | 9 | 123 | 0.0 | 1.6 | 0.00 | 0.00 | 0.00 | 81 | 1014.4 |
| 20260509032929 | 9 | 123 | 0.0 | 1.6 | 0.00 | 0.00 | 0.00 | 81 | 1014.4 |
| 20260509032829 | 9 | 123 | 0.0 | 3.2 | 0.00 | 0.00 | 0.00 | 81 | 1014.4 |
| 20260509032701 | 9 | 123 | 0.0 | 3.2 | 0.00 | 0.00 | 0.00 | 81 | 1014.4 |
| 20260509032629 | 9 | 123 | 0.0 | 3.2 | 0.00 | 0.00 | 0.00 | 81 | 1014.4 |
| 20260509032530 | 9 | 123 | 0.0 | 3.2 | 0.00 | 0.00 | 0.00 | 81 | 1014.4 |
| 20260509032429 | 9 | 123 | 0.0 | 3.2 | 0.00 | 0.00 | 0.00 | 81 | 1014.5 |
| 20260509032329 | 9 | 123 | 0.0 | 3.2 | 0.00 | 0.00 | 0.00 | 81 | 1014.5 |
| 20260509032201 | 9 | 123 | 0.0 | 3.2 | 0.00 | 0.00 | 0.00 | 81 | 1014.5 |
| 20260509032129 | 9 | 123 | 0.0 | 3.2 | 0.00 | 0.00 | 0.00 | 81 | 1014.5 |
| 20260509032029 | 9 | 123 | 0.0 | 3.2 | 0.00 | 0.00 | 0.00 | 81 | 1014.5 |
| 20260509031930 | 9 | 123 | 0.0 | 3.2 | 0.00 | 0.00 | 0.00 | 81 | 1014.5 |
| 20260509031926 | 9 | 123 | 0.0 | 1.6 | 0.00 | 0.00 | 0.00 | 81 | 1014.5 |
| 20260509031917 | 9 | 123 | 0.0 | 3.2 | 0.00 | 0.00 | 0.00 | 81 | 1014.5 |
| 20260509031913 | 9 | 123 | 0.0 | 3.2 | 0.00 | 0.00 | 0.00 | 81 | 1014.5 |
| 20260509031629 | 9 | 123 | 0.0 | 1.6 | 0.00 | 0.00 | 0.00 | 81 | 1014.5 |
| 20260509031529 | 9 | 123 | 0.0 | 1.6 | 0.00 | 0.00 | 0.00 | 80 | 1014.6 |
| 20260509031429 | 9 | 123 | 0.0 | 1.6 | 0.00 | 0.00 | 0.00 | 80 | 1014.5 |
| 20260509031329 | 9 | 123 | 0.0 | 3.2 | 0.00 | 0.00 | 0.00 | 80 | 1014.5 |
| 20260509031200 | 9 | 123 | 0.0 | 3.2 | 0.00 | 0.00 | 0.00 | 80 | 1014.5 |
| 20260509031129 | 9 | 123 | 1.6 | 3.2 | 0.00 | 0.00 | 0.00 | 81 | 1014.5 |
| 20260509031029 | 9 | 123 | 1.6 | 3.2 | 0.00 | 0.00 | 0.00 | 81 | 1014.5 |
| 20260509030928 | 9 | 123 | 1.6 | 3.2 | 0.00 | 0.00 | 0.00 | 81 | 1014.5 |
| 20260509030828 | 9 | 123 | 1.6 | 3.2 | 0.00 | 0.00 | 0.00 | 81 | 1014.5 |
| 20260509030700 | 9 | 123 | 1.6 | 3.2 | 0.00 | 0.00 | 0.00 | 80 | 1014.5 |
| 20260509030629 | 9 | 123 | 1.6 | 3.2 | 0.00 | 0.00 | 0.00 | 80 | 1014.6 |
| 20260509030529 | 9 | 123 | 1.6 | 3.2 | 0.00 | 0.00 | 0.00 | 81 | 1014.5 |
| 20260509030429 | 9 | 123 | 0.0 | 3.2 | 0.00 | 0.00 | 0.00 | 81 | 1014.5 |
| 20260509030328 | 9 | 123 | 0.0 | 3.2 | 0.00 | 0.00 | 0.00 | 80 | 1014.5 |
| 20260509030200 | 9 | 123 | 0.0 | 3.2 | 0.00 | 0.00 | 0.00 | 80 | 1014.5 |
| 20260509030128 | 9 | 123 | 0.0 | 1.6 | 0.00 | 0.00 | 0.00 | 80 | 1014.5 |
| 20260509030029 | 9 | 123 | 0.0 | 1.6 | 0.00 | 0.00 | 0.00 | 80 | 1014.5 |
| 20260509025929 | 9 | 123 | 0.0 | 0.0 | 0.00 | 0.00 | 0.00 | 81 | 1014.5 |
| 20260509025829 | 9 | 123 | 0.0 | 0.0 | 0.00 | 0.00 | 0.00 | 80 | 1014.5 |
| 20260509025729 | 9 | 123 | 0.0 | 0.0 | 0.00 | 0.00 | 0.00 | 81 | 1014.5 |
| 20260509025701 | 9 | 123 | 0.0 | 0.0 | 0.00 | 0.00 | 0.00 | 80 | 1014.5 |
| 20260509025630 | 9 | 123 | 0.0 | 1.6 | 0.00 | 0.00 | 0.00 | 80 | 1014.5 |
| 20260509025529 | 9 | 123 | 0.0 | 1.6 | 0.00 | 0.00 | 0.00 | 80 | 1014.5 |
| 20260509025429 | 9 | 123 | 0.0 | 1.6 | 0.00 | 0.00 | 0.00 | 80 | 1014.5 |
| 20260509025329 | 9 | 123 | 0.0 | 1.6 | 0.00 | 0.00 | 0.00 | 80 | 1014.5 |
| 20260509025201 | 9 | 123 | 0.0 | 3.2 | 0.00 | 0.00 | 0.00 | 80 | 1014.5 |
| 20260509025129 | 9 | 123 | 0.0 | 3.2 | 0.00 | 0.00 | 0.00 | 80 | 1014.6 |
| 20260509025029 | 9 | 123 | 0.0 | 3.2 | 0.00 | 0.00 | 0.00 | 80 | 1014.5 |
| 20260509024929 | 9 | 123 | 0.0 | 3.2 | 0.00 | 0.00 | 0.00 | 80 | 1014.5 |
| 20260509024829 | 9 | 123 | 0.0 | 3.2 | 0.00 | 0.00 | 0.00 | 80 | 1014.5 |
| 20260509024701 | 9 | 123 | 0.0 | 3.2 | 0.00 | 0.00 | 0.00 | 80 | 1014.6 |
| 20260509024628 | 9 | 123 | 0.0 | 3.2 | 0.00 | 0.00 | 0.00 | 80 | 1014.6 |
| 20260509024528 | 9 | 123 | 0.0 | 3.2 | 0.00 | 0.00 | 0.00 | 80 | 1014.6 |
| 20260509024429 | 9 | 123 | 0.0 | 3.2 | 0.00 | 0.00 | 0.00 | 80 | 1014.6 |
| 20260509024328 | 9 | 123 | 0.0 | 3.2 | 0.00 | 0.00 | 0.00 | 80 | 1014.5 |
| 20260509024201 | 9 | 123 | 0.0 | 3.2 | 0.00 | 0.00 | 0.00 | 80 | 1014.6 |
| 20260509024129 | 9 | 123 | 1.6 | 3.2 | 0.00 | 0.00 | 0.00 | 80 | 1014.6 |
| 20260509024029 | 9 | 123 | 1.6 | 3.2 | 0.00 | 0.00 | 0.00 | 80 | 1014.6 |
| 20260509023929 | 9 | 123 | 1.6 | 3.2 | 0.00 | 0.00 | 0.00 | 80 | 1014.7 |
| 20260509023828 | 9 | 123 | 1.6 | 3.2 | 0.00 | 0.00 | 0.00 | 80 | 1014.7 |
| 20260509023700 | 9 | 123 | 1.6 | 3.2 | 0.00 | 0.00 | 0.00 | 80 | 1014.7 |
| 20260509023629 | 9 | 123 | 1.6 | 3.2 | 0.00 | 0.00 | 0.00 | 80 | 1014.8 |
| 20260509023529 | 9 | 123 | 1.6 | 3.2 | 0.00 | 0.00 | 0.00 | 80 | 1014.7 |
| 20260509023429 | 9 | 123 | 1.6 | 3.2 | 0.00 | 0.00 | 0.00 | 80 | 1014.7 |
| 20260509023329 | 9 | 123 | 0.0 | 3.2 | 0.00 | 0.00 | 0.00 | 80 | 1014.7 |
| 20260509023200 | 9 | 123 | 0.0 | 3.2 | 0.00 | 0.00 | 0.00 | 80 | 1014.6 |
| 20260509023130 | 9 | 123 | 0.0 | 3.2 | 0.00 | 0.00 | 0.00 | 80 | 1014.6 |
| 20260509023029 | 9 | 123 | 0.0 | 3.2 | 0.00 | 0.00 | 0.00 | 79 | 1014.6 |
| 20260509022929 | 9 | 123 | 0.0 | 1.6 | 0.00 | 0.00 | 0.00 | 80 | 1014.6 |
| 20260509022829 | 9 | 123 | 0.0 | 1.6 | 0.00 | 0.00 | 0.00 | 80 | 1014.7 |
| 20260509022701 | 9 | 123 | 0.0 | 1.6 | 0.00 | 0.00 | 0.00 | 79 | 1014.6 |
| 20260509022629 | 9 | 123 | 0.0 | 1.6 | 0.00 | 0.00 | 0.00 | 79 | 1014.7 |
| 20260509022527 | 9 | 123 | 0.0 | 3.2 | 0.00 | 0.00 | 0.00 | 79 | 1014.7 |
| 20260509022427 | 9 | 123 | 0.0 | 3.2 | 0.00 | 0.00 | 0.00 | 79 | 1014.7 |
| 20260509022325 | 9 | 123 | 0.0 | 3.2 | 0.00 | 0.00 | 0.00 | 79 | 1014.6 |
| 20260509022223 | 9 | 123 | 0.0 | 3.2 | 0.00 | 0.00 | 0.00 | 79 | 1014.6 |
| 20260509022201 | 9 | 123 | 0.0 | 3.2 | 0.00 | 0.00 | 0.00 | 80 | 1014.6 |
| 20260509022123 | 9 | 123 | 0.0 | 3.2 | 0.00 | 0.00 | 0.00 | 80 | 1014.6 |
| 20260509022022 | 9 | 123 | 0.0 | 4.8 | 0.00 | 0.00 | 0.00 | 80 | 1014.6 |
| 20260509021917 | 9 | 123 | 1.6 | 4.8 | 0.00 | 0.00 | 0.00 | 80 | 1014.6 |
| 20260509021815 | 9 | 123 | 1.6 | 4.8 | 0.00 | 0.00 | 0.00 | 80 | 1014.5 |
| 20260509021701 | 9 | 123 | 1.6 | 4.8 | 0.00 | 0.00 | 0.00 | 79 | 1014.4 |
| 20260509021615 | 9 | 123 | 1.6 | 4.8 | 0.00 | 0.00 | 0.00 | 79 | 1014.3 |
| 20260509021514 | 9 | 123 | 1.6 | 4.8 | 0.00 | 0.00 | 0.00 | 79 | 1014.3 |
| 20260509021413 | 9 | 123 | 1.6 | 4.8 | 0.00 | 0.00 | 0.00 | 79 | 1014.3 |
| 20260509021313 | 9 | 123 | 1.6 | 4.8 | 0.00 | 0.00 | 0.00 | 79 | 1014.3 |
| 20260509021201 | 9 | 123 | 1.6 | 4.8 | 0.00 | 0.00 | 0.00 | 79 | 1014.2 |
| 20260509021111 | 9 | 123 | 1.6 | 4.8 | 0.00 | 0.00 | 0.00 | 79 | 1014.2 |
| 20260509021009 | 9 | 136 | 0.0 | 4.8 | 0.00 | 0.00 | 0.00 | 79 | 1014.3 |
| 20260509020909 | 9 | 136 | 0.0 | 4.8 | 0.00 | 0.00 | 0.00 | 79 | 1014.3 |
| 20260509020807 | 9 | 136 | 0.0 | 4.8 | 0.00 | 0.00 | 0.00 | 79 | 1014.3 |
| 20260509020700 | 9 | 136 | 0.0 | 4.8 | 0.00 | 0.00 | 0.00 | 79 | 1014.4 |
| 20260509020605 | 9 | 137 | 0.0 | 1.6 | 0.00 | 0.00 | 0.00 | 79 | 1014.4 |
| 20260509020503 | 9 | 137 | 0.0 | 1.6 | 0.00 | 0.00 | 0.00 | 79 | 1014.4 |
| 20260509020403 | 9 | 137 | 0.0 | 1.6 | 0.00 | 0.00 | 0.00 | 79 | 1014.5 |
| 20260509020303 | 9 | 137 | 0.0 | 1.6 | 0.00 | 0.00 | 0.00 | 79 | 1014.5 |
| 20260509020201 | 9 | 137 | 0.0 | 1.6 | 0.00 | 0.00 | 0.00 | 79 | 1014.5 |
| 20260509020001 | 9 | 137 | 0.0 | 1.6 | 0.00 | 0.00 | 0.00 | 79 | 1014.6 |
| 20260509015925 | 9 | 137 | 0.0 | 3.2 | 0.00 | 0.00 | 0.00 | 79 | 1014.6 |
| 20260509015917 | 9 | 137 | 1.6 | 4.8 | 0.00 | 0.00 | 0.00 | 79 | 1014.6 |
| 20260509015913 | 9 | 137 | 1.6 | 6.4 | 0.00 | 0.00 | 0.00 | 79 | 1014.6 |
| 20260509015601 | 9 | 137 | 1.6 | 8.0 | 0.00 | 0.00 | 0.00 | 79 | 1014.6 |
| 20260509015501 | 9 | 137 | 1.6 | 8.0 | 0.00 | 0.00 | 0.00 | 79 | 1014.5 |
| 20260509015424 | 9 | 137 | 3.2 | 8.0 | 0.00 | 0.00 | 0.00 | 78 | 1014.5 |
| 20260509015415 | 9 | 137 | 3.2 | 8.0 | 0.00 | 0.00 | 0.00 | 78 | 1014.5 |
| 20260509015411 | 9 | 137 | 3.2 | 8.0 | 0.00 | 0.00 | 0.00 | 78 | 1014.5 |
| 20260509015101 | 9 | 137 | 4.8 | 8.0 | 0.00 | 0.00 | 0.00 | 78 | 1014.5 |
| 20260509015001 | 9 | 137 | 4.8 | 11.3 | 0.00 | 0.00 | 0.00 | 78 | 1014.4 |
| 20260509014901 | 9 | 136 | 4.8 | 11.3 | 0.00 | 0.00 | 0.00 | 78 | 1014.4 |
| 20260509014801 | 9 | 138 | 6.4 | 12.9 | 0.00 | 0.00 | 0.00 | 78 | 1014.4 |
| 20260509014700 | 9 | 132 | 6.4 | 12.9 | 0.00 | 0.00 | 0.00 | 78 | 1014.4 |
| 20260509014600 | 9 | 136 | 6.4 | 12.9 | 0.00 | 0.00 | 0.00 | 77 | 1014.4 |
| 20260509014500 | 9 | 127 | 6.4 | 12.9 | 0.00 | 0.00 | 0.00 | 77 | 1014.4 |
| 20260509014400 | 10 | 143 | 6.4 | 12.9 | 0.00 | 0.00 | 0.00 | 77 | 1014.3 |
| 20260509014301 | 10 | 144 | 6.4 | 12.9 | 0.00 | 0.00 | 0.00 | 77 | 1014.3 |
| 20260509014201 | 10 | 143 | 6.4 | 12.9 | 0.00 | 0.00 | 0.00 | 77 | 1014.3 |
| 20260509014101 | 10 | 140 | 6.4 | 12.9 | 0.00 | 0.00 | 0.00 | 77 | 1014.3 |
| 20260509014001 | 10 | 126 | 6.4 | 12.9 | 0.00 | 0.00 | 0.00 | 77 | 1014.2 |
| 20260509013901 | 10 | 148 | 6.4 | 12.9 | 0.00 | 0.00 | 0.00 | 76 | 1014.2 |
| 20260509013801 | 10 | 132 | 6.4 | 12.9 | 0.00 | 0.00 | 0.00 | 76 | 1014.2 |
| 20260509013700 | 10 | 138 | 6.4 | 12.9 | 0.00 | 0.00 | 0.00 | 76 | 1014.2 |
| 20260509013600 | 10 | 128 | 4.8 | 12.9 | 0.00 | 0.00 | 0.00 | 76 | 1014.3 |
| 20260509013500 | 10 | 137 | 4.8 | 11.3 | 0.00 | 0.00 | 0.00 | 76 | 1014.2 |
| 20260509013400 | 10 | 142 | 4.8 | 9.7 | 0.00 | 0.00 | 0.00 | 76 | 1014.2 |
| 20260509013301 | 10 | 142 | 4.8 | 9.7 | 0.00 | 0.00 | 0.00 | 76 | 1014.3 |
| 20260509013201 | 10 | 144 | 4.8 | 9.7 | 0.00 | 0.00 | 0.00 | 76 | 1014.3 |
| 20260509013101 | 10 | 144 | 4.8 | 9.7 | 0.00 | 0.00 | 0.00 | 76 | 1014.3 |
| 20260509012957 | 10 | 132 | 4.8 | 9.7 | 0.00 | 0.00 | 0.00 | 76 | 1014.3 |
| 20260509012857 | 10 | 119 | 4.8 | 9.7 | 0.00 | 0.00 | 0.00 | 76 | 1014.3 |
| 20260509012757 | 10 | 137 | 4.8 | 8.0 | 0.00 | 0.00 | 0.00 | 76 | 1014.3 |
| 20260509012702 | 10 | 136 | 4.8 | 9.7 | 0.00 | 0.00 | 0.00 | 76 | 1014.3 |
| 20260509012656 | 10 | 134 | 4.8 | 9.7 | 0.00 | 0.00 | 0.00 | 76 | 1014.3 |
| 20260509012556 | 10 | 142 | 4.8 | 9.7 | 0.00 | 0.00 | 0.00 | 76 | 1014.2 |
| 20260509012451 | 10 | 140 | 4.8 | 9.7 | 0.00 | 0.00 | 0.00 | 76 | 1014.2 |
| 20260509012351 | 10 | 147 | 4.8 | 9.7 | 0.00 | 0.00 | 0.00 | 75 | 1014.3 |
| 20260509012250 | 10 | 148 | 3.2 | 9.7 | 0.00 | 0.00 | 0.00 | 75 | 1014.3 |
| 20260509012200 | 10 | 139 | 3.2 | 9.7 | 0.00 | 0.00 | 0.00 | 75 | 1014.3 |
| 20260509012151 | 10 | 144 | 3.2 | 9.7 | 0.00 | 0.00 | 0.00 | 75 | 1014.2 |
| 20260509012051 | 10 | 143 | 3.2 | 9.7 | 0.00 | 0.00 | 0.00 | 75 | 1014.2 |
| 20260509011945 | 10 | 141 | 3.2 | 9.7 | 0.00 | 0.00 | 0.00 | 75 | 1014.2 |
| 20260509011845 | 10 | 138 | 3.2 | 9.7 | 0.00 | 0.00 | 0.00 | 75 | 1014.2 |
| 20260509011744 | 10 | 111 | 3.2 | 9.7 | 0.00 | 0.00 | 0.00 | 75 | 1014.2 |
| 20260509011701 | 10 | 141 | 3.2 | 8.0 | 0.00 | 0.00 | 0.00 | 75 | 1014.2 |
| 20260509011645 | 10 | 141 | 3.2 | 8.0 | 0.00 | 0.00 | 0.00 | 75 | 1014.2 |
| 20260509011544 | 10 | 140 | 3.2 | 8.0 | 0.00 | 0.00 | 0.00 | 75 | 1014.2 |
| 20260509011441 | 10 | 140 | 3.2 | 8.0 | 0.00 | 0.00 | 0.00 | 75 | 1014.2 |
| 20260509011339 | 10 | 136 | 3.2 | 8.0 | 0.00 | 0.00 | 0.00 | 75 | 1014.2 |
| 20260509011239 | 10 | 146 | 3.2 | 8.0 | 0.00 | 0.00 | 0.00 | 75 | 1014.2 |
| 20260509011201 | 10 | 143 | 3.2 | 6.4 | 0.00 | 0.00 | 0.00 | 75 | 1014.2 |
| 20260509011139 | 10 | 143 | 3.2 | 6.4 | 0.00 | 0.00 | 0.00 | 75 | 1014.2 |
| 20260509011039 | 10 | 144 | 3.2 | 6.4 | 0.00 | 0.00 | 0.00 | 75 | 1014.2 |
| 20260509010938 | 10 | 145 | 3.2 | 6.4 | 0.00 | 0.00 | 0.00 | 76 | 1014.2 |
| 20260509010836 | 10 | 145 | 3.2 | 6.4 | 0.00 | 0.00 | 0.00 | 76 | 1014.2 |
| 20260509010737 | 10 | 145 | 3.2 | 6.4 | 0.00 | 0.00 | 0.00 | 76 | 1014.2 |
| 20260509010701 | 10 | 145 | 3.2 | 6.4 | 0.00 | 0.00 | 0.00 | 76 | 1014.2 |
| 20260509010635 | 10 | 144 | 3.2 | 6.4 | 0.00 | 0.00 | 0.00 | 76 | 1014.2 |
| 20260509010533 | 10 | 144 | 3.2 | 6.4 | 0.00 | 0.00 | 0.00 | 76 | 1014.2 |
| 20260509010431 | 10 | 144 | 3.2 | 6.4 | 0.00 | 0.00 | 0.00 | 76 | 1014.2 |
| 20260509010330 | 10 | 144 | 3.2 | 6.4 | 0.00 | 0.00 | 0.00 | 76 | 1014.2 |
| 20260509010201 | 10 | 144 | 3.2 | 6.4 | 0.00 | 0.00 | 0.00 | 76 | 1014.2 |
| 20260509010129 | 10 | 143 | 3.2 | 8.0 | 0.00 | 0.00 | 0.00 | 76 | 1014.2 |
| 20260509010028 | 10 | 143 | 3.2 | 8.0 | 0.00 | 0.00 | 0.00 | 76 | 1014.2 |
| 20260509005928 | 10 | 142 | 3.2 | 8.0 | 0.00 | 0.00 | 0.00 | 76 | 1014.2 |
| 20260509005828 | 10 | 146 | 3.2 | 8.0 | 0.00 | 0.00 | 0.00 | 76 | 1014.2 |
| 20260509005729 | 10 | 143 | 4.8 | 8.0 | 0.00 | 0.00 | 0.00 | 76 | 1014.2 |
| 20260509005702 | 10 | 142 | 4.8 | 8.0 | 0.00 | 0.00 | 0.00 | 76 | 1014.1 |
| 20260509005629 | 10 | 142 | 4.8 | 8.0 | 0.00 | 0.00 | 0.00 | 76 | 1014.1 |
| 20260509005529 | 10 | 140 | 4.8 | 8.0 | 0.00 | 0.00 | 0.00 | 76 | 1014.1 |
| 20260509005429 | 10 | 136 | 4.8 | 11.3 | 0.00 | 0.00 | 0.00 | 76 | 1014.1 |
| 20260509005329 | 10 | 140 | 4.8 | 11.3 | 0.00 | 0.00 | 0.00 | 76 | 1014.1 |
| 20260509005201 | 10 | 138 | 4.8 | 11.3 | 0.00 | 0.00 | 0.00 | 76 | 1014.1 |
| 20260509005128 | 10 | 128 | 4.8 | 11.3 | 0.00 | 0.00 | 0.00 | 76 | 1014.1 |
| 20260509005028 | 10 | 139 | 4.8 | 11.3 | 0.00 | 0.00 | 0.00 | 76 | 1014.1 |
| 20260509004929 | 10 | 133 | 3.2 | 11.3 | 0.00 | 0.00 | 0.00 | 75 | 1014.1 |
| 20260509004829 | 10 | 119 | 3.2 | 11.3 | 0.00 | 0.00 | 0.00 | 75 | 1014.1 |
| 20260509004729 | 10 | 161 | 3.2 | 11.3 | 0.00 | 0.00 | 0.00 | 76 | 1014.1 |
| 20260509004701 | 10 | 154 | 3.2 | 11.3 | 0.00 | 0.00 | 0.00 | 75 | 1014.1 |
| 20260509004629 | 10 | 138 | 3.2 | 11.3 | 0.00 | 0.00 | 0.00 | 75 | 1014.1 |
| 20260509004529 | 10 | 132 | 3.2 | 11.3 | 0.00 | 0.00 | 0.00 | 76 | 1014.1 |
| 20260509004429 | 10 | 153 | 3.2 | 11.3 | 0.00 | 0.00 | 0.00 | 76 | 1014.1 |
| 20260509004328 | 10 | 134 | 3.2 | 11.3 | 0.00 | 0.00 | 0.00 | 76 | 1014.1 |
| 20260509004228 | 10 | 146 | 3.2 | 8.0 | 0.00 | 0.00 | 0.00 | 76 | 1014.1 |
| 20260509004202 | 10 | 145 | 3.2 | 8.0 | 0.00 | 0.00 | 0.00 | 76 | 1014.1 |
| 20260509004158 | 10 | 146 | 3.2 | 6.4 | 0.00 | 0.00 | 0.00 | 76 | 1013.9 |
| 20260509004145 | 10 | 145 | 3.2 | 8.0 | 0.00 | 0.00 | 0.00 | 76 | 1013.9 |
| 20260509004141 | 10 | 146 | 3.2 | 6.4 | 0.00 | 0.00 | 0.00 | 76 | 1013.9 |
| 20260509004137 | 10 | 145 | 3.2 | 6.4 | 0.00 | 0.00 | 0.00 | 76 | 1013.9 |
| 20260509003920 | 10 | 145 | 3.2 | 6.4 | 0.00 | 0.00 | 0.00 | 76 | 1013.9 |
| 20260509003912 | 10 | 146 | 3.2 | 6.4 | 0.00 | 0.00 | 0.00 | 76 | 1013.9 |
| 20260509003629 | 10 | 143 | 3.2 | 6.4 | 0.00 | 0.00 | 0.00 | 76 | 1014.1 |
| 20260509003528 | 10 | 142 | 3.2 | 6.4 | 0.00 | 0.00 | 0.00 | 76 | 1013.9 |
| 20260509003428 | 10 | 144 | 3.2 | 6.4 | 0.00 | 0.00 | 0.00 | 76 | 1013.9 |
| 20260509003328 | 10 | 143 | 3.2 | 6.4 | 0.00 | 0.00 | 0.00 | 76 | 1013.9 |
| 20260509003229 | 10 | 142 | 3.2 | 6.4 | 0.00 | 0.00 | 0.00 | 76 | 1013.9 |
| 20260509003201 | 10 | 144 | 3.2 | 6.4 | 0.00 | 0.00 | 0.00 | 76 | 1013.9 |
| 20260509003129 | 10 | 146 | 3.2 | 6.4 | 0.00 | 0.00 | 0.00 | 76 | 1014.1 |
| 20260509003029 | 10 | 141 | 3.2 | 6.4 | 0.00 | 0.00 | 0.00 | 76 | 1013.9 |
| 20260509002929 | 10 | 141 | 3.2 | 6.4 | 0.00 | 0.00 | 0.00 | 76 | 1013.9 |
| 20260509002829 | 10 | 138 | 3.2 | 6.4 | 0.00 | 0.00 | 0.00 | 76 | 1014.1 |
| 20260509002728 | 10 | 138 | 3.2 | 6.4 | 0.00 | 0.00 | 0.00 | 76 | 1014.1 |
| 20260509002701 | 10 | 136 | 3.2 | 6.4 | 0.00 | 0.00 | 0.00 | 76 | 1014.1 |
| 20260509002628 | 10 | 136 | 3.2 | 6.4 | 0.00 | 0.00 | 0.00 | 76 | 1014.1 |
| 20260509002528 | 10 | 132 | 3.2 | 6.4 | 0.00 | 0.00 | 0.00 | 76 | 1014.1 |
| 20260509002429 | 10 | 122 | 3.2 | 6.4 | 0.00 | 0.00 | 0.00 | 76 | 1014.1 |
| 20260509002329 | 10 | 119 | 3.2 | 6.4 | 0.00 | 0.00 | 0.00 | 76 | 1014.1 |
| 20260509002201 | 10 | 119 | 3.2 | 6.4 | 0.00 | 0.00 | 0.00 | 76 | 1014.2 |
| 20260509002129 | 10 | 117 | 3.2 | 8.0 | 0.00 | 0.00 | 0.00 | 76 | 1014.2 |
| 20260509002029 | 10 | 117 | 3.2 | 8.0 | 0.00 | 0.00 | 0.00 | 76 | 1014.2 |
| 20260509001929 | 10 | 136 | 3.2 | 8.0 | 0.00 | 0.00 | 0.00 | 76 | 1014.2 |
| 20260509001829 | 10 | 136 | 3.2 | 8.0 | 0.00 | 0.00 | 0.00 | 76 | 1014.2 |
| 20260509001701 | 10 | 136 | 1.6 | 8.0 | 0.00 | 0.00 | 0.00 | 76 | 1014.2 |
| 20260509001629 | 10 | 136 | 1.6 | 8.0 | 0.00 | 0.00 | 0.00 | 76 | 1014.3 |
| 20260509001529 | 10 | 143 | 1.6 | 8.0 | 0.00 | 0.00 | 0.00 | 76 | 1014.2 |
| 20260509001429 | 10 | 148 | 1.6 | 8.0 | 0.00 | 0.00 | 0.00 | 76 | 1014.3 |
| 20260509001329 | 10 | 148 | 1.6 | 8.0 | 0.00 | 0.00 | 0.00 | 76 | 1014.3 |
| 20260509001229 | 10 | 148 | 1.6 | 8.0 | 0.00 | 0.00 | 0.00 | 76 | 1014.3 |
| 20260509001200 | 10 | 149 | 1.6 | 8.0 | 0.00 | 0.00 | 0.00 | 76 | 1014.3 |
| 20260509001129 | 10 | 149 | 0.0 | 4.8 | 0.00 | 0.00 | 0.00 | 76 | 1014.3 |
| 20260509001029 | 10 | 149 | 0.0 | 3.2 | 0.00 | 0.00 | 0.00 | 76 | 1014.3 |
| 20260509000929 | 10 | 150 | 0.0 | 3.2 | 0.00 | 0.00 | 0.00 | 76 | 1014.3 |
| 20260509000828 | 10 | 149 | 1.6 | 3.2 | 0.00 | 0.00 | 0.00 | 76 | 1014.3 |
| 20260509000728 | 10 | 149 | 1.6 | 3.2 | 0.00 | 0.00 | 0.00 | 76 | 1014.3 |
| 20260509000701 | 10 | 150 | 1.6 | 3.2 | 0.00 | 0.00 | 0.00 | 75 | 1014.3 |
| 20260509000629 | 10 | 149 | 0.0 | 3.2 | 0.00 | 0.00 | 0.00 | 75 | 1014.4 |
| 20260509000529 | 10 | 149 | 0.0 | 3.2 | 0.00 | 0.00 | 0.00 | 75 | 1014.4 |
| 20260509000430 | 10 | 149 | 0.0 | 3.2 | 0.00 | 0.00 | 0.00 | 75 | 1014.4 |
| 20260509000328 | 10 | 150 | 0.0 | 3.2 | 0.00 | 0.00 | 0.00 | 75 | 1014.4 |
| 20260509000201 | 10 | 150 | 0.0 | 3.2 | 0.00 | 0.00 | 0.00 | 76 | 1014.4 |
| 20260509000129 | 10 | 150 | 0.0 | 3.2 | 0.00 | 0.00 | 0.00 | 75 | 1014.4 |
| 20260509000029 | 10 | 150 | 0.0 | 3.2 | 0.00 | 0.00 | 0.00 | 75 | 1014.5 |
| 20260508235929 | 10 | 150 | 0.0 | 3.2 | 0.00 | 0.00 | 0.00 | 75 | 1014.5 |
| 20260508235829 | 10 | 150 | 0.0 | 1.6 | 0.00 | 0.00 | 0.00 | 75 | 1014.5 |
| 20260508235733 | 10 | 150 | 0.0 | 1.6 | 0.00 | 0.00 | 0.00 | 75 | 1014.5 |
| 20260508235700 | 10 | 150 | 0.0 | 1.6 | 0.00 | 0.00 | 0.00 | 75 | 1014.5 |
| 20260508235629 | 10 | 150 | 0.0 | 1.6 | 0.00 | 0.00 | 0.00 | 75 | 1014.5 |
| 20260508235529 | 10 | 149 | 0.0 | 1.6 | 0.00 | 0.00 | 0.00 | 75 | 1014.5 |
| 20260508235429 | 10 | 149 | 0.0 | 1.6 | 0.00 | 0.00 | 0.00 | 75 | 1014.5 |
| 20260508235419 | 10 | 149 | 0.0 | 1.6 | 0.00 | 0.00 | 0.00 | 75 | 1014.6 |
| 20260508235328 | 10 | 149 | 0.0 | 1.6 | 0.00 | 0.00 | 0.00 | 75 | 1014.6 |
| 20260508235231 | 10 | 149 | 0.0 | 1.6 | 0.00 | 0.00 | 0.00 | 75 | 1014.6 |
| 20260508235129 | 10 | 149 | 0.0 | 1.6 | 0.00 | 0.00 | 0.00 | 75 | 1014.5 |
| 20260508235029 | 10 | 149 | 0.0 | 1.6 | 0.00 | 0.00 | 0.00 | 75 | 1014.6 |
| 20260508234928 | 10 | 149 | 0.0 | 1.6 | 0.00 | 0.00 | 0.00 | 75 | 1014.6 |
| 20260508234828 | 10 | 149 | 0.0 | 1.6 | 0.00 | 0.00 | 0.00 | 75 | 1014.6 |
| 20260508234701 | 10 | 149 | 0.0 | 1.6 | 0.00 | 0.00 | 0.00 | 75 | 1014.6 |
| 20260508234628 | 10 | 149 | 0.0 | 3.2 | 0.00 | 0.00 | 0.00 | 74 | 1014.6 |
| 20260508234529 | 10 | 149 | 0.0 | 8.0 | 0.00 | 0.00 | 0.00 | 74 | 1014.6 |
| 20260508234429 | 10 | 149 | 1.6 | 8.0 | 0.00 | 0.00 | 0.00 | 74 | 1014.6 |
| 20260508234329 | 10 | 149 | 1.6 | 8.0 | 0.00 | 0.00 | 0.00 | 74 | 1014.6 |
| 20260508234201 | 10 | 149 | 1.6 | 8.0 | 0.00 | 0.00 | 0.00 | 74 | 1014.6 |
| 20260508234128 | 10 | 149 | 1.6 | 8.0 | 0.00 | 0.00 | 0.00 | 74 | 1014.6 |
| 20260508234028 | 10 | 149 | 1.6 | 8.0 | 0.00 | 0.00 | 0.00 | 74 | 1014.6 |
| 20260508233928 | 10 | 149 | 1.6 | 8.0 | 0.00 | 0.00 | 0.00 | 74 | 1014.6 |
| 20260508233828 | 10 | 149 | 3.2 | 8.0 | 0.00 | 0.00 | 0.00 | 74 | 1014.7 |
| 20260508233700 | 10 | 149 | 3.2 | 8.0 | 0.00 | 0.00 | 0.00 | 74 | 1014.6 |
| 20260508233629 | 10 | 149 | 3.2 | 8.0 | 0.00 | 0.00 | 0.00 | 74 | 1014.6 |
| 20260508233529 | 10 | 152 | 3.2 | 8.0 | 0.00 | 0.00 | 0.00 | 74 | 1014.6 |
| 20260508233429 | 10 | 152 | 3.2 | 8.0 | 0.00 | 0.00 | 0.00 | 74 | 1014.6 |
| 20260508233330 | 10 | 152 | 4.8 | 8.0 | 0.00 | 0.00 | 0.00 | 74 | 1014.7 |
| 20260508233200 | 10 | 152 | 4.8 | 8.0 | 0.00 | 0.00 | 0.00 | 74 | 1014.7 |
| 20260508233129 | 10 | 152 | 4.8 | 8.0 | 0.00 | 0.00 | 0.00 | 74 | 1014.6 |
| 20260508233029 | 10 | 153 | 4.8 | 8.0 | 0.00 | 0.00 | 0.00 | 74 | 1014.6 |
| 20260508232929 | 10 | 153 | 4.8 | 8.0 | 0.00 | 0.00 | 0.00 | 74 | 1014.6 |
| 20260508232827 | 10 | 154 | 4.8 | 8.0 | 0.00 | 0.00 | 0.00 | 74 | 1014.6 |
| 20260508232727 | 10 | 145 | 4.8 | 8.0 | 0.00 | 0.00 | 0.00 | 74 | 1014.6 |
| 20260508232701 | 10 | 144 | 4.8 | 8.0 | 0.00 | 0.00 | 0.00 | 74 | 1014.6 |
| 20260508232626 | 10 | 145 | 4.8 | 8.0 | 0.00 | 0.00 | 0.00 | 74 | 1014.6 |
| 20260508232526 | 10 | 136 | 4.8 | 8.0 | 0.00 | 0.00 | 0.00 | 74 | 1014.6 |
| 20260508232426 | 10 | 146 | 4.8 | 8.0 | 0.00 | 0.00 | 0.00 | 74 | 1014.6 |
| 20260508232326 | 10 | 147 | 4.8 | 8.0 | 0.00 | 0.00 | 0.00 | 74 | 1014.5 |
| 20260508232223 | 10 | 150 | 4.8 | 8.0 | 0.00 | 0.00 | 0.00 | 74 | 1014.5 |
| 20260508232201 | 10 | 147 | 4.8 | 8.0 | 0.00 | 0.00 | 0.00 | 74 | 1014.5 |
| 20260508232121 | 10 | 161 | 4.8 | 8.0 | 0.00 | 0.00 | 0.00 | 74 | 1014.5 |
| 20260508232020 | 10 | 144 | 4.8 | 8.0 | 0.00 | 0.00 | 0.00 | 74 | 1014.5 |
| 20260508231920 | 10 | 142 | 4.8 | 8.0 | 0.00 | 0.00 | 0.00 | 74 | 1014.5 |
| 20260508231820 | 10 | 144 | 4.8 | 8.0 | 0.00 | 0.00 | 0.00 | 74 | 1014.5 |
| 20260508231720 | 10 | 146 | 4.8 | 8.0 | 0.00 | 0.00 | 0.00 | 74 | 1014.5 |
| 20260508231705 | 10 | 150 | 4.8 | 8.0 | 0.00 | 0.00 | 0.00 | 74 | 1014.5 |
| 20260508231621 | 10 | 140 | 4.8 | 8.0 | 0.00 | 0.00 | 0.00 | 74 | 1014.5 |
| 20260508231521 | 10 | 138 | 4.8 | 8.0 | 0.00 | 0.00 | 0.00 | 74 | 1014.5 |
| 20260508231421 | 10 | 138 | 4.8 | 8.0 | 0.00 | 0.00 | 0.00 | 74 | 1014.5 |
| 20260508231321 | 10 | 141 | 4.8 | 8.0 | 0.00 | 0.00 | 0.00 | 74 | 1014.5 |
| 20260508231221 | 10 | 148 | 4.8 | 8.0 | 0.00 | 0.00 | 0.00 | 74 | 1014.5 |
| 20260508231201 | 10 | 142 | 4.8 | 8.0 | 0.00 | 0.00 | 0.00 | 74 | 1014.5 |
| 20260508231120 | 10 | 141 | 4.8 | 8.0 | 0.00 | 0.00 | 0.00 | 74 | 1014.6 |
| 20260508231020 | 10 | 130 | 4.8 | 8.0 | 0.00 | 0.00 | 0.00 | 74 | 1014.5 |
| 20260508230920 | 10 | 140 | 4.8 | 8.0 | 0.00 | 0.00 | 0.00 | 74 | 1014.5 |
| 20260508230820 | 10 | 138 | 4.8 | 8.0 | 0.00 | 0.00 | 0.00 | 74 | 1014.6 |
| 20260508230721 | 10 | 137 | 4.8 | 8.0 | 0.00 | 0.00 | 0.00 | 74 | 1014.6 |
| 20260508230701 | 10 | 136 | 4.8 | 8.0 | 0.00 | 0.00 | 0.00 | 74 | 1014.6 |
| 20260508230621 | 10 | 150 | 3.2 | 8.0 | 0.00 | 0.00 | 0.00 | 74 | 1014.6 |
| 20260508230521 | 10 | 146 | 3.2 | 8.0 | 0.00 | 0.00 | 0.00 | 74 | 1014.6 |
| 20260508230424 | 10 | 148 | 3.2 | 8.0 | 0.00 | 0.00 | 0.00 | 74 | 1014.7 |
| 20260508230420 | 10 | 143 | 3.2 | 8.0 | 0.00 | 0.00 | 0.00 | 74 | 1014.6 |
| 20260508230416 | 10 | 150 | 3.2 | 8.0 | 0.00 | 0.00 | 0.00 | 74 | 1014.7 |
| 20260508230412 | 10 | 151 | 3.2 | 8.0 | 0.00 | 0.00 | 0.00 | 74 | 1014.7 |
| 20260508230117 | 10 | 150 | 3.2 | 8.0 | 0.00 | 0.00 | 0.00 | 73 | 1014.6 |
| 20260508230017 | 10 | 161 | 3.2 | 8.0 | 0.00 | 0.00 | 0.00 | 74 | 1014.6 |
| 20260508225917 | 10 | 152 | 3.2 | 8.0 | 0.00 | 0.00 | 0.00 | 74 | 1014.7 |
| 20260508225817 | 10 | 153 | 3.2 | 8.0 | 0.00 | 0.00 | 0.00 | 74 | 1014.7 |
| 20260508225701 | 10 | 153 | 3.2 | 8.0 | 0.00 | 0.00 | 0.00 | 74 | 1014.7 |
| 20260508225617 | 10 | 153 | 3.2 | 8.0 | 0.00 | 0.00 | 0.00 | 74 | 1014.7 |
| 20260508225517 | 10 | 153 | 3.2 | 8.0 | 0.00 | 0.00 | 0.00 | 74 | 1014.6 |
| 20260508225417 | 10 | 154 | 3.2 | 8.0 | 0.00 | 0.00 | 0.00 | 74 | 1014.7 |
| 20260508225316 | 10 | 153 | 3.2 | 8.0 | 0.00 | 0.00 | 0.00 | 74 | 1014.7 |
| 20260508225201 | 10 | 153 | 3.2 | 8.0 | 0.00 | 0.00 | 0.00 | 74 | 1014.7 |
| 20260508225116 | 10 | 153 | 3.2 | 8.0 | 0.00 | 0.00 | 0.00 | 74 | 1014.7 |
| 20260508225016 | 10 | 153 | 3.2 | 8.0 | 0.00 | 0.00 | 0.00 | 74 | 1014.7 |
| 20260508224917 | 10 | 153 | 3.2 | 8.0 | 0.00 | 0.00 | 0.00 | 74 | 1014.7 |
| 20260508224817 | 10 | 153 | 3.2 | 8.0 | 0.00 | 0.00 | 0.00 | 74 | 1014.7 |
| 20260508224700 | 10 | 154 | 3.2 | 8.0 | 0.00 | 0.00 | 0.00 | 74 | 1014.6 |
| 20260508224617 | 10 | 154 | 3.2 | 8.0 | 0.00 | 0.00 | 0.00 | 74 | 1014.6 |
| 20260508224517 | 10 | 157 | 1.6 | 4.8 | 0.00 | 0.00 | 0.00 | 74 | 1014.7 |
| 20260508224416 | 10 | 157 | 1.6 | 4.8 | 0.00 | 0.00 | 0.00 | 74 | 1014.7 |
| 20260508224316 | 10 | 157 | 1.6 | 4.8 | 0.00 | 0.00 | 0.00 | 74 | 1014.6 |
| 20260508224201 | 10 | 157 | 1.6 | 4.8 | 0.00 | 0.00 | 0.00 | 74 | 1014.7 |
| 20260508224116 | 10 | 157 | 1.6 | 4.8 | 0.00 | 0.00 | 0.00 | 74 | 1014.7 |
| 20260508224016 | 10 | 157 | 1.6 | 4.8 | 0.00 | 0.00 | 0.00 | 74 | 1014.7 |
| 20260508223912 | 10 | 157 | 1.6 | 4.8 | 0.00 | 0.00 | 0.00 | 74 | 1014.7 |
| 20260508223813 | 10 | 157 | 1.6 | 4.8 | 0.00 | 0.00 | 0.00 | 73 | 1014.8 |
| 20260508223701 | 10 | 157 | 1.6 | 4.8 | 0.00 | 0.00 | 0.00 | 73 | 1014.7 |
| 20260508223612 | 10 | 157 | 1.6 | 4.8 | 0.00 | 0.00 | 0.00 | 74 | 1014.8 |
| 20260508223512 | 10 | 157 | 1.6 | 4.8 | 0.00 | 0.00 | 0.00 | 73 | 1014.8 |
| 20260508223412 | 10 | 157 | 1.6 | 4.8 | 0.00 | 0.00 | 0.00 | 73 | 1014.7 |
| 20260508223312 | 10 | 157 | 1.6 | 4.8 | 0.00 | 0.00 | 0.00 | 73 | 1014.7 |
| 20260508223201 | 10 | 157 | 1.6 | 4.8 | 0.00 | 0.00 | 0.00 | 73 | 1014.7 |
| 20260508223113 | 10 | 157 | 1.6 | 6.4 | 0.00 | 0.00 | 0.00 | 73 | 1014.7 |
| 20260508223013 | 10 | 155 | 1.6 | 6.4 | 0.00 | 0.00 | 0.00 | 73 | 1014.7 |
| 20260508222912 | 10 | 144 | 3.2 | 8.0 | 0.00 | 0.00 | 0.00 | 73 | 1014.7 |
| 20260508222812 | 10 | 138 | 3.2 | 8.0 | 0.00 | 0.00 | 0.00 | 73 | 1014.7 |
| 20260508222700 | 10 | 138 | 3.2 | 8.0 | 0.00 | 0.00 | 0.00 | 73 | 1014.7 |
| 20260508222613 | 10 | 135 | 3.2 | 8.0 | 0.00 | 0.00 | 0.00 | 73 | 1014.7 |
| 20260508222513 | 10 | 135 | 3.2 | 8.0 | 0.00 | 0.00 | 0.00 | 73 | 1014.7 |
| 20260508222413 | 10 | 121 | 3.2 | 8.0 | 0.00 | 0.00 | 0.00 | 73 | 1014.6 |
| 20260508222313 | 10 | 121 | 3.2 | 8.0 | 0.00 | 0.00 | 0.00 | 73 | 1014.6 |
| 20260508222200 | 10 | 121 | 3.2 | 8.0 | 0.00 | 0.00 | 0.00 | 73 | 1014.6 |
| 20260508222112 | 10 | 119 | 3.2 | 8.0 | 0.00 | 0.00 | 0.00 | 73 | 1014.5 |
| 20260508222008 | 10 | 149 | 3.2 | 8.0 | 0.00 | 0.00 | 0.00 | 73 | 1014.5 |
| 20260508221927 | 10 | 142 | 3.2 | 6.4 | 0.00 | 0.00 | 0.00 | 73 | 1014.5 |
| 20260508221919 | 10 | 145 | 3.2 | 6.4 | 0.00 | 0.00 | 0.00 | 73 | 1014.5 |
| 20260508221915 | 10 | 144 | 3.2 | 6.4 | 0.00 | 0.00 | 0.00 | 73 | 1014.5 |
| 20260508221911 | 11 | 142 | 3.2 | 6.4 | 0.00 | 0.00 | 0.00 | 73 | 1014.5 |
| 20260508221609 | 11 | 142 | 3.2 | 6.4 | 0.00 | 0.00 | 0.00 | 73 | 1014.5 |
| 20260508221509 | 11 | 142 | 3.2 | 6.4 | 0.00 | 0.00 | 0.00 | 73 | 1014.5 |
| 20260508221409 | 11 | 142 | 3.2 | 6.4 | 0.00 | 0.00 | 0.00 | 73 | 1014.5 |
| 20260508221308 | 11 | 138 | 3.2 | 6.4 | 0.00 | 0.00 | 0.00 | 72 | 1014.5 |
| 20260508221200 | 11 | 132 | 3.2 | 6.4 | 0.00 | 0.00 | 0.00 | 72 | 1014.5 |
| 20260508221108 | 11 | 144 | 3.2 | 6.4 | 0.00 | 0.00 | 0.00 | 72 | 1014.5 |
| 20260508221008 | 11 | 144 | 3.2 | 6.4 | 0.00 | 0.00 | 0.00 | 72 | 1014.5 |
| 20260508220909 | 11 | 144 | 1.6 | 6.4 | 0.00 | 0.00 | 0.00 | 72 | 1014.5 |
| 20260508220809 | 11 | 142 | 1.6 | 6.4 | 0.00 | 0.00 | 0.00 | 72 | 1014.5 |
| 20260508220709 | 11 | 140 | 1.6 | 6.4 | 0.00 | 0.00 | 0.00 | 72 | 1014.5 |
| 20260508220700 | 11 | 139 | 1.6 | 6.4 | 0.00 | 0.00 | 0.00 | 72 | 1014.5 |
| 20260508220609 | 11 | 132 | 1.6 | 4.8 | 0.00 | 0.00 | 0.00 | 72 | 1014.5 |
| 20260508220508 | 11 | 131 | 1.6 | 4.8 | 0.00 | 0.00 | 0.00 | 72 | 1014.5 |
| 20260508220408 | 11 | 129 | 1.6 | 3.2 | 0.00 | 0.00 | 0.00 | 72 | 1014.5 |
| 20260508220308 | 11 | 129 | 1.6 | 4.8 | 0.00 | 0.00 | 0.00 | 72 | 1014.5 |
| 20260508220201 | 11 | 129 | 1.6 | 4.8 | 0.00 | 0.00 | 0.00 | 72 | 1014.5 |
| 20260508220107 | 11 | 129 | 1.6 | 4.8 | 0.00 | 0.00 | 0.00 | 71 | 1014.5 |
| 20260508220006 | 11 | 129 | 1.6 | 4.8 | 0.00 | 0.00 | 0.00 | 71 | 1014.5 |
| 20260508215906 | 11 | 129 | 1.6 | 4.8 | 0.00 | 0.00 | 0.00 | 71 | 1014.5 |
| 20260508215806 | 11 | 129 | 1.6 | 6.4 | 0.00 | 0.00 | 0.00 | 71 | 1014.5 |
| 20260508215701 | 11 | 128 | 1.6 | 6.4 | 0.00 | 0.00 | 0.00 | 71 | 1014.5 |
| 20260508215605 | 11 | 128 | 1.6 | 6.4 | 0.00 | 0.00 | 0.00 | 71 | 1014.4 |
| 20260508215505 | 11 | 128 | 1.6 | 6.4 | 0.00 | 0.00 | 0.00 | 71 | 1014.4 |
| 20260508215405 | 11 | 128 | 3.2 | 6.4 | 0.00 | 0.00 | 0.00 | 71 | 1014.4 |
| 20260508215306 | 11 | 134 | 1.6 | 6.4 | 0.00 | 0.00 | 0.00 | 71 | 1014.4 |
| 20260508215205 | 11 | 135 | 1.6 | 6.4 | 0.00 | 0.00 | 0.00 | 71 | 1014.4 |
| 20260508215201 | 11 | 134 | 1.6 | 6.4 | 0.00 | 0.00 | 0.00 | 71 | 1014.4 |
| 20260508215106 | 11 | 134 | 1.6 | 6.4 | 0.00 | 0.00 | 0.00 | 71 | 1014.4 |
| 20260508215006 | 11 | 134 | 1.6 | 6.4 | 0.00 | 0.00 | 0.00 | 70 | 1014.5 |
| 20260508214906 | 11 | 135 | 1.6 | 6.4 | 0.00 | 0.00 | 0.00 | 70 | 1014.5 |
| 20260508214805 | 11 | 133 | 1.6 | 6.4 | 0.00 | 0.00 | 0.00 | 70 | 1014.4 |
| 20260508214700 | 11 | 130 | 1.6 | 6.4 | 0.00 | 0.00 | 0.00 | 70 | 1014.5 |
| 20260508214605 | 11 | 130 | 1.6 | 6.4 | 0.00 | 0.00 | 0.00 | 70 | 1014.5 |
| 20260508214505 | 11 | 128 | 1.6 | 4.8 | 0.00 | 0.00 | 0.00 | 70 | 1014.5 |
| 20260508214405 | 11 | 127 | 1.6 | 4.8 | 0.00 | 0.00 | 0.00 | 70 | 1014.4 |
| 20260508214305 | 11 | 127 | 1.6 | 4.8 | 0.00 | 0.00 | 0.00 | 69 | 1014.4 |
| 20260508214201 | 11 | 127 | 1.6 | 4.8 | 0.00 | 0.00 | 0.00 | 69 | 1014.4 |
| 20260508214102 | 11 | 127 | 1.6 | 4.8 | 0.00 | 0.00 | 0.00 | 69 | 1014.4 |
| 20260508214002 | 11 | 127 | 1.6 | 4.8 | 0.00 | 0.00 | 0.00 | 69 | 1014.4 |
| 20260508213902 | 11 | 127 | 1.6 | 4.8 | 0.00 | 0.00 | 0.00 | 69 | 1014.4 |
| 20260508213802 | 11 | 126 | 1.6 | 4.8 | 0.00 | 0.00 | 0.00 | 68 | 1014.4 |
| 20260508213701 | 12 | 125 | 1.6 | 4.8 | 0.00 | 0.00 | 0.00 | 68 | 1014.4 |
| 20260508213601 | 12 | 124 | 1.6 | 6.4 | 0.00 | 0.00 | 0.00 | 68 | 1014.4 |
| 20260508213501 | 12 | 124 | 1.6 | 6.4 | 0.00 | 0.00 | 0.00 | 68 | 1014.4 |
| 20260508213401 | 12 | 124 | 1.6 | 6.4 | 0.00 | 0.00 | 0.00 | 68 | 1014.4 |
| 20260508213301 | 12 | 124 | 1.6 | 6.4 | 0.00 | 0.00 | 0.00 | 68 | 1014.4 |
| 20260508213201 | 12 | 143 | 1.6 | 6.4 | 0.00 | 0.00 | 0.00 | 67 | 1014.4 |
| 20260508213101 | 12 | 148 | 1.6 | 6.4 | 0.00 | 0.00 | 0.00 | 67 | 1014.4 |
| 20260508213001 | 12 | 148 | 1.6 | 6.4 | 0.00 | 0.00 | 0.00 | 67 | 1014.4 |
| 20260508212901 | 12 | 148 | 1.6 | 6.4 | 0.00 | 0.00 | 0.00 | 67 | 1014.4 |
| 20260508212801 | 12 | 148 | 1.6 | 6.4 | 0.00 | 0.00 | 0.00 | 67 | 1014.4 |
| 20260508212701 | 12 | 123 | 1.6 | 6.4 | 0.00 | 0.00 | 0.00 | 67 | 1014.4 |
| 20260508212601 | 12 | 104 | 1.6 | 11.3 | 0.00 | 0.00 | 0.00 | 66 | 1014.4 |
| 20260508212501 | 12 | 104 | 1.6 | 11.3 | 0.00 | 0.00 | 0.00 | 67 | 1014.4 |
| 20260508212400 | 12 | 103 | 1.6 | 11.3 | 0.00 | 0.00 | 0.00 | 67 | 1014.4 |
| 20260508212300 | 12 | 103 | 3.2 | 11.3 | 0.00 | 0.00 | 0.00 | 67 | 1014.4 |
| 20260508212201 | 12 | 103 | 3.2 | 11.3 | 0.00 | 0.00 | 0.00 | 67 | 1014.3 |
| 20260508212101 | 12 | 93 | 3.2 | 11.3 | 0.00 | 0.00 | 0.00 | 67 | 1014.3 |
| 20260508212001 | 12 | 90 | 3.2 | 11.3 | 0.00 | 0.00 | 0.00 | 67 | 1014.3 |
| 20260508211901 | 12 | 92 | 3.2 | 11.3 | 0.00 | 0.00 | 0.00 | 66 | 1014.3 |
| 20260508211801 | 12 | 98 | 3.2 | 11.3 | 0.00 | 0.00 | 0.00 | 66 | 1014.3 |
| 20260508211701 | 12 | 108 | 3.2 | 11.3 | 0.00 | 0.00 | 0.00 | 66 | 1014.4 |
| 20260508211605 | 12 | 96 | 1.6 | 11.3 | 0.00 | 0.00 | 0.00 | 66 | 1014.2 |
| 20260508211500 | 12 | 72 | 1.6 | 11.3 | 0.00 | 0.00 | 0.00 | 66 | 1014.3 |
| 20260508211400 | 12 | 89 | 3.2 | 11.3 | 0.00 | 0.00 | 0.00 | 66 | 1014.2 |
| 20260508211300 | 12 | 105 | 3.2 | 14.5 | 0.00 | 0.00 | 0.00 | 66 | 1014.3 |
| 20260508211200 | 12 | 94 | 3.2 | 14.5 | 0.00 | 0.00 | 0.00 | 66 | 1014.3 |
| 20260508211104 | 12 | 133 | 3.2 | 14.5 | 0.00 | 0.00 | 0.00 | 66 | 1014.3 |
| 20260508211000 | 12 | 89 | 3.2 | 14.5 | 0.00 | 0.00 | 0.00 | 66 | 1014.3 |
| 20260508210900 | 12 | 94 | 3.2 | 14.5 | 0.00 | 0.00 | 0.00 | 66 | 1014.4 |
| 20260508210801 | 12 | 74 | 3.2 | 14.5 | 0.00 | 0.00 | 0.00 | 66 | 1014.3 |
| 20260508210701 | 12 | 123 | 4.8 | 14.5 | 0.00 | 0.00 | 0.00 | 66 | 1014.3 |
| 20260508210603 | 12 | 105 | 4.8 | 14.5 | 0.00 | 0.00 | 0.00 | 66 | 1014.3 |
| 20260508210501 | 12 | 144 | 4.8 | 14.5 | 0.00 | 0.00 | 0.00 | 66 | 1014.3 |
| 20260508210401 | 12 | 104 | 4.8 | 14.5 | 0.00 | 0.00 | 0.00 | 66 | 1014.3 |
| 20260508210302 | 12 | 102 | 4.8 | 11.3 | 0.00 | 0.00 | 0.00 | 66 | 1014.3 |
| 20260508210201 | 12 | 83 | 4.8 | 11.3 | 0.00 | 0.00 | 0.00 | 66 | 1014.3 |
| 20260508210001 | 13 | 70 | 4.8 | 12.9 | 0.00 | 0.00 | 0.00 | 66 | 1014.3 |
| 20260508205901 | 13 | 90 | 4.8 | 12.9 | 0.00 | 0.00 | 0.00 | 66 | 1014.3 |
| 20260508205801 | 13 | 86 | 4.8 | 12.9 | 0.00 | 0.00 | 0.00 | 66 | 1014.3 |
| 20260508205701 | 13 | 117 | 4.8 | 12.9 | 0.00 | 0.00 | 0.00 | 66 | 1014.3 |
| 20260508205601 | 13 | 97 | 4.8 | 12.9 | 0.00 | 0.00 | 0.00 | 65 | 1014.3 |
| 20260508205501 | 13 | 89 | 4.8 | 12.9 | 0.00 | 0.00 | 0.00 | 65 | 1014.3 |
| 20260508205420 | 13 | 93 | 4.8 | 14.5 | 0.00 | 0.00 | 0.00 | 65 | 1014.3 |
| 20260508205416 | 13 | 128 | 4.8 | 14.5 | 0.00 | 0.00 | 0.00 | 65 | 1014.3 |
| 20260508205411 | 13 | 119 | 4.8 | 14.5 | 0.00 | 0.00 | 0.00 | 65 | 1014.3 |
| 20260508205149 | 13 | 65 | 4.8 | 14.5 | 0.00 | 0.00 | 0.00 | 65 | 1014.2 |
| 20260508205142 | 13 | 65 | 4.8 | 14.5 | 0.00 | 0.00 | 0.00 | 65 | 1014.3 |
| 20260508205134 | 13 | 116 | 4.8 | 14.5 | 0.00 | 0.00 | 0.00 | 65 | 1014.3 |
| 20260508204919 | 13 | 71 | 4.8 | 14.5 | 0.00 | 0.00 | 0.00 | 65 | 1014.2 |
| 20260508204915 | 13 | 118 | 4.8 | 14.5 | 0.00 | 0.00 | 0.00 | 64 | 1014.3 |
| 20260508204910 | 13 | 65 | 4.8 | 14.5 | 0.00 | 0.00 | 0.00 | 65 | 1014.2 |
| 20260508204600 | 13 | 92 | 4.8 | 14.5 | 0.00 | 0.00 | 0.00 | 64 | 1014.2 |
| 20260508204501 | 13 | 129 | 4.8 | 14.5 | 0.00 | 0.00 | 0.00 | 65 | 1014.2 |
| 20260508204401 | 13 | 111 | 4.8 | 14.5 | 0.00 | 0.00 | 0.00 | 65 | 1014.2 |
| 20260508204301 | 13 | 84 | 4.8 | 14.5 | 0.00 | 0.00 | 0.00 | 64 | 1014.2 |
| 20260508204200 | 13 | 61 | 4.8 | 14.5 | 0.00 | 0.00 | 0.00 | 64 | 1014.2 |
| 20260508204100 | 13 | 102 | 4.8 | 14.5 | 0.00 | 0.00 | 0.00 | 64 | 1014.2 |
| 20260508204000 | 13 | 94 | 4.8 | 14.5 | 0.00 | 0.00 | 0.00 | 64 | 1014.2 |
| 20260508203901 | 13 | 82 | 4.8 | 14.5 | 0.00 | 0.00 | 0.00 | 64 | 1014.2 |
| 20260508203801 | 13 | 96 | 4.8 | 14.5 | 0.00 | 0.00 | 0.00 | 65 | 1014.1 |
| 20260508203702 | 13 | 63 | 4.8 | 14.5 | 0.00 | 0.00 | 0.00 | 64 | 1014.2 |
| 20260508203602 | 13 | 96 | 4.8 | 14.5 | 0.00 | 0.00 | 0.00 | 64 | 1014.2 |
| 20260508203502 | 13 | 73 | 4.8 | 14.5 | 0.00 | 0.00 | 0.00 | 64 | 1014.2 |
| 20260508203401 | 13 | 70 | 6.4 | 14.5 | 0.00 | 0.00 | 0.00 | 64 | 1014.2 |
| 20260508203301 | 13 | 79 | 6.4 | 16.1 | 0.00 | 0.00 | 0.00 | 64 | 1014.2 |
| 20260508203201 | 13 | 117 | 6.4 | 16.1 | 0.00 | 0.00 | 0.00 | 64 | 1014.2 |
| 20260508203101 | 13 | 67 | 6.4 | 16.1 | 0.00 | 0.00 | 0.00 | 64 | 1014.2 |
| 20260508203001 | 13 | 127 | 6.4 | 16.1 | 0.00 | 0.00 | 0.00 | 64 | 1014.2 |
| 20260508202901 | 13 | 76 | 6.4 | 16.1 | 0.00 | 0.00 | 0.00 | 64 | 1014.2 |
| 20260508202801 | 13 | 69 | 6.4 | 16.1 | 0.00 | 0.00 | 0.00 | 64 | 1014.2 |
| 20260508202701 | 13 | 80 | 6.4 | 16.1 | 0.00 | 0.00 | 0.00 | 64 | 1014.2 |
| 20260508202600 | 13 | 65 | 4.8 | 16.1 | 0.00 | 0.00 | 0.00 | 64 | 1014.1 |
| 20260508202501 | 13 | 68 | 4.8 | 16.1 | 0.00 | 0.00 | 0.00 | 64 | 1014.2 |
| 20260508202401 | 13 | 20 | 4.8 | 16.1 | 0.00 | 0.00 | 0.00 | 64 | 1014.2 |
| 20260508202301 | 13 | 116 | 4.8 | 16.1 | 0.00 | 0.00 | 0.00 | 64 | 1014.2 |
| 20260508202201 | 13 | 88 | 4.8 | 16.1 | 0.00 | 0.00 | 0.00 | 64 | 1014.2 |
| 20260508202100 | 13 | 82 | 4.8 | 17.7 | 0.00 | 0.00 | 0.00 | 64 | 1014.1 |
| 20260508202000 | 13 | 109 | 6.4 | 17.7 | 0.00 | 0.00 | 0.00 | 64 | 1014.1 |
| 20260508201900 | 13 | 73 | 4.8 | 17.7 | 0.00 | 0.00 | 0.00 | 63 | 1014.1 |
| 20260508201800 | 13 | 114 | 4.8 | 17.7 | 0.00 | 0.00 | 0.00 | 64 | 1014.2 |
| 20260508201701 | 13 | 125 | 6.4 | 17.7 | 0.00 | 0.00 | 0.00 | 64 | 1014.2 |
| 20260508201601 | 13 | 84 | 6.4 | 17.7 | 0.00 | 0.00 | 0.00 | 63 | 1014.2 |
| 20260508201501 | 13 | 57 | 6.4 | 17.7 | 0.00 | 0.00 | 0.00 | 63 | 1014.2 |
| 20260508201401 | 13 | 125 | 6.4 | 17.7 | 0.00 | 0.00 | 0.00 | 63 | 1014.1 |
| 20260508201300 | 13 | 60 | 6.4 | 17.7 | 0.00 | 0.00 | 0.00 | 64 | 1014.1 |
| 20260508201200 | 13 | 96 | 6.4 | 17.7 | 0.00 | 0.00 | 0.00 | 64 | 1014.1 |
| 20260508201100 | 13 | 69 | 6.4 | 14.5 | 0.00 | 0.00 | 0.00 | 63 | 1014.1 |
| 20260508201001 | 13 | 53 | 6.4 | 17.7 | 0.00 | 0.00 | 0.00 | 63 | 1014.1 |
| 20260508200901 | 13 | 65 | 6.4 | 17.7 | 0.00 | 0.00 | 0.00 | 63 | 1014.1 |
| 20260508200801 | 13 | 78 | 6.4 | 17.7 | 0.00 | 0.00 | 0.00 | 63 | 1014.1 |
| 20260508200702 | 13 | 72 | 6.4 | 17.7 | 0.00 | 0.00 | 0.00 | 63 | 1014.1 |
| 20260508200602 | 13 | 71 | 6.4 | 17.7 | 0.00 | 0.00 | 0.00 | 63 | 1014.2 |
| 20260508200502 | 13 | 57 | 6.4 | 17.7 | 0.00 | 0.00 | 0.00 | 63 | 1014.2 |
| 20260508200421 | 13 | 78 | 6.4 | 17.7 | 0.00 | 0.00 | 0.00 | 63 | 1014.2 |
| 20260508200417 | 13 | 104 | 6.4 | 17.7 | 0.00 | 0.00 | 0.00 | 63 | 1014.2 |
| 20260508200413 | 13 | 75 | 4.8 | 17.7 | 0.00 | 0.00 | 0.00 | 63 | 1014.1 |
| 20260508200001 | 13 | 55 | 4.8 | 17.7 | 0.00 | 0.00 | 0.00 | 63 | 1014.1 |
| 20260508195901 | 13 | 77 | 4.8 | 17.7 | 0.00 | 0.00 | 0.00 | 63 | 1014.1 |
| 20260508195801 | 13 | 96 | 6.4 | 17.7 | 0.00 | 0.00 | 0.00 | 63 | 1014.1 |
| 20260508195701 | 14 | 84 | 6.4 | 17.7 | 0.00 | 0.00 | 0.00 | 63 | 1014.1 |
| 20260508195601 | 13 | 88 | 6.4 | 17.7 | 0.00 | 0.00 | 0.00 | 63 | 1014.1 |
| 20260508195501 | 14 | 105 | 6.4 | 17.7 | 0.00 | 0.00 | 0.00 | 63 | 1014.1 |
| 20260508195400 | 14 | 59 | 6.4 | 17.7 | 0.00 | 0.00 | 0.00 | 63 | 1013.9 |
| 20260508195300 | 14 | 69 | 6.4 | 14.5 | 0.00 | 0.00 | 0.00 | 63 | 1013.9 |
| 20260508195201 | 14 | 73 | 6.4 | 14.5 | 0.00 | 0.00 | 0.00 | 63 | 1014.1 |
| 20260508195101 | 14 | 87 | 4.8 | 14.5 | 0.00 | 0.00 | 0.00 | 63 | 1013.9 |
| 20260508195000 | 14 | 88 | 4.8 | 14.5 | 0.00 | 0.00 | 0.00 | 63 | 1013.9 |
| 20260508194900 | 14 | 71 | 4.8 | 14.5 | 0.00 | 0.00 | 0.00 | 63 | 1013.9 |
| 20260508194800 | 14 | 72 | 4.8 | 16.1 | 0.00 | 0.00 | 0.00 | 63 | 1013.9 |
| 20260508194701 | 14 | 74 | 4.8 | 16.1 | 0.00 | 0.00 | 0.00 | 62 | 1013.9 |
| 20260508194601 | 14 | 62 | 4.8 | 16.1 | 0.00 | 0.00 | 0.00 | 63 | 1013.9 |
| 20260508194500 | 14 | 82 | 6.4 | 16.1 | 0.00 | 0.00 | 0.00 | 62 | 1013.9 |
| 20260508194419 | 14 | 103 | 6.4 | 16.1 | 0.00 | 0.00 | 0.00 | 63 | 1013.9 |
| 20260508194415 | 14 | 101 | 6.4 | 16.1 | 0.00 | 0.00 | 0.00 | 62 | 1013.9 |
| 20260508194411 | 14 | 88 | 6.4 | 16.1 | 0.00 | 0.00 | 0.00 | 62 | 1013.9 |
| 20260508194102 | 14 | 111 | 6.4 | 16.1 | 0.00 | 0.00 | 0.00 | 62 | 1013.9 |
| 20260508194001 | 14 | 74 | 6.4 | 16.1 | 0.00 | 0.00 | 0.00 | 62 | 1013.9 |
| 20260508193920 | 14 | 65 | 6.4 | 16.1 | 0.00 | 0.00 | 0.00 | 62 | 1013.8 |
| 20260508193916 | 14 | 74 | 6.4 | 16.1 | 0.00 | 0.00 | 0.00 | 62 | 1013.8 |
| 20260508193912 | 14 | 80 | 6.4 | 16.1 | 0.00 | 0.00 | 0.00 | 62 | 1013.8 |
| 20260508193601 | 14 | 46 | 6.4 | 17.7 | 0.00 | 0.00 | 0.00 | 62 | 1013.8 |
| 20260508193501 | 14 | 94 | 6.4 | 17.7 | 0.00 | 0.00 | 0.00 | 62 | 1013.7 |
| 20260508193401 | 14 | 137 | 6.4 | 17.7 | 0.00 | 0.00 | 0.00 | 62 | 1013.8 |
| 20260508193301 | 14 | 81 | 6.4 | 17.7 | 0.00 | 0.00 | 0.00 | 62 | 1013.8 |
| 20260508193201 | 14 | 77 | 6.4 | 17.7 | 0.00 | 0.00 | 0.00 | 62 | 1013.7 |
| 20260508193101 | 14 | 91 | 6.4 | 17.7 | 0.00 | 0.00 | 0.00 | 62 | 1013.6 |
| 20260508193001 | 14 | 51 | 6.4 | 17.7 | 0.00 | 0.00 | 0.00 | 62 | 1013.7 |
| 20260508192920 | 14 | 66 | 6.4 | 17.7 | 0.00 | 0.00 | 0.00 | 62 | 1013.6 |
| 20260508192916 | 14 | 84 | 6.4 | 17.7 | 0.00 | 0.00 | 0.00 | 62 | 1013.6 |
| 20260508192912 | 14 | 64 | 6.4 | 17.7 | 0.00 | 0.00 | 0.00 | 62 | 1013.7 |
| 20260508192601 | 14 | 91 | 6.4 | 17.7 | 0.00 | 0.00 | 0.00 | 62 | 1013.6 |
| 20260508192501 | 14 | 101 | 6.4 | 17.7 | 0.00 | 0.00 | 0.00 | 62 | 1013.6 |
| 20260508192401 | 14 | 86 | 6.4 | 17.7 | 0.00 | 0.00 | 0.00 | 62 | 1013.6 |
| 20260508192301 | 14 | 74 | 6.4 | 17.7 | 0.00 | 0.00 | 0.00 | 62 | 1013.6 |
| 20260508192200 | 15 | 94 | 4.8 | 17.7 | 0.00 | 0.00 | 0.00 | 62 | 1013.6 |
| 20260508192100 | 15 | 77 | 4.8 | 19.3 | 0.00 | 0.00 | 0.00 | 62 | 1013.6 |
| 20260508192006 | 15 | 55 | 4.8 | 19.3 | 0.00 | 0.00 | 0.00 | 62 | 1013.6 |
| 20260508191901 | 15 | 109 | 4.8 | 19.3 | 0.00 | 0.00 | 0.00 | 61 | 1013.6 |
| 20260508191801 | 15 | 84 | 4.8 | 19.3 | 0.00 | 0.00 | 0.00 | 61 | 1013.6 |
| 20260508191701 | 15 | 91 | 4.8 | 19.3 | 0.00 | 0.00 | 0.00 | 61 | 1013.6 |
| 20260508191600 | 15 | 63 | 4.8 | 19.3 | 0.00 | 0.00 | 0.00 | 62 | 1013.5 |
| 20260508191500 | 15 | 83 | 4.8 | 19.3 | 0.00 | 0.00 | 0.00 | 61 | 1013.6 |
| 20260508191401 | 15 | 98 | 6.4 | 19.3 | 0.00 | 0.00 | 0.00 | 61 | 1013.5 |
| 20260508191301 | 15 | 105 | 6.4 | 19.3 | 0.00 | 0.00 | 0.00 | 61 | 1013.5 |
| 20260508191201 | 15 | 78 | 6.4 | 19.3 | 0.00 | 0.00 | 0.00 | 61 | 1013.4 |
| 20260508191101 | 15 | 99 | 6.4 | 14.5 | 0.00 | 0.00 | 0.00 | 61 | 1013.5 |
| 20260508191001 | 15 | 68 | 6.4 | 14.5 | 0.00 | 0.00 | 0.00 | 61 | 1013.4 |
| 20260508190901 | 15 | 72 | 6.4 | 14.5 | 0.00 | 0.00 | 0.00 | 61 | 1013.4 |
| 20260508190801 | 15 | 48 | 6.4 | 14.5 | 0.00 | 0.00 | 0.00 | 61 | 1013.4 |
| 20260508190701 | 15 | 53 | 6.4 | 14.5 | 0.00 | 0.00 | 0.00 | 61 | 1013.4 |
| 20260508190601 | 15 | 111 | 6.4 | 14.5 | 0.00 | 0.00 | 0.00 | 61 | 1013.4 |
| 20260508190501 | 15 | 76 | 6.4 | 14.5 | 0.00 | 0.00 | 0.00 | 61 | 1013.3 |
| 20260508190421 | 15 | 68 | 6.4 | 14.5 | 0.00 | 0.00 | 0.00 | 61 | 1013.4 |
| 20260508190417 | 15 | 78 | 6.4 | 14.5 | 0.00 | 0.00 | 0.00 | 61 | 1013.3 |
| 20260508190413 | 15 | 90 | 6.4 | 14.5 | 0.00 | 0.00 | 0.00 | 61 | 1013.3 |
| 20260508190001 | 15 | 71 | 6.4 | 14.5 | 0.00 | 0.00 | 0.00 | 60 | 1013.3 |
| 20260508185901 | 15 | 109 | 6.4 | 14.5 | 0.00 | 0.00 | 0.00 | 61 | 1013.3 |
| 20260508185801 | 15 | 61 | 6.4 | 14.5 | 0.00 | 0.00 | 0.00 | 60 | 1013.3 |
| 20260508185700 | 15 | 69 | 6.4 | 14.5 | 0.00 | 0.00 | 0.00 | 60 | 1013.3 |
| 20260508185600 | 15 | 88 | 6.4 | 14.5 | 0.00 | 0.00 | 0.00 | 60 | 1013.3 |
| 20260508185500 | 15 | 78 | 6.4 | 16.1 | 0.00 | 0.00 | 0.00 | 60 | 1013.2 |
| 20260508185401 | 15 | 45 | 6.4 | 16.1 | 0.00 | 0.00 | 0.00 | 60 | 1013.2 |
| 20260508185301 | 15 | 101 | 6.4 | 16.1 | 0.00 | 0.00 | 0.00 | 60 | 1013.2 |
| 20260508185201 | 15 | 111 | 6.4 | 16.1 | 0.00 | 0.00 | 0.00 | 60 | 1013.2 |
| 20260508185101 | 15 | 78 | 6.4 | 16.1 | 0.00 | 0.00 | 0.00 | 60 | 1013.2 |
| 20260508185001 | 15 | 69 | 6.4 | 16.1 | 0.00 | 0.00 | 0.00 | 60 | 1013.2 |
| 20260508184920 | 15 | 78 | 6.4 | 16.1 | 0.00 | 0.00 | 0.00 | 60 | 1013.2 |
| 20260508184916 | 15 | 69 | 6.4 | 16.1 | 0.00 | 0.00 | 0.00 | 60 | 1013.2 |
| 20260508184912 | 15 | 65 | 6.4 | 16.1 | 0.00 | 0.00 | 0.00 | 59 | 1013.1 |
| 20260508184649 | 15 | 57 | 4.8 | 14.5 | 0.00 | 0.00 | 0.00 | 59 | 1013.1 |
| 20260508184644 | 15 | 86 | 4.8 | 16.1 | 0.00 | 0.00 | 0.00 | 59 | 1013.1 |
| 20260508184640 | 15 | 83 | 4.8 | 16.1 | 0.00 | 0.00 | 0.00 | 59 | 1013.1 |
| 20260508184421 | 15 | 72 | 4.8 | 14.5 | 0.00 | 0.00 | 0.00 | 59 | 1013.1 |
| 20260508184417 | 15 | 66 | 4.8 | 14.5 | 0.00 | 0.00 | 0.00 | 59 | 1013.1 |
| 20260508184413 | 15 | 57 | 4.8 | 14.5 | 0.00 | 0.00 | 0.00 | 59 | 1013.1 |
| 20260508184100 | 15 | 72 | 4.8 | 16.1 | 0.00 | 0.00 | 0.00 | 59 | 1013.1 |
| 20260508184001 | 15 | 76 | 4.8 | 16.1 | 0.00 | 0.00 | 0.00 | 59 | 1013.0 |
| 20260508183901 | 15 | 99 | 4.8 | 16.1 | 0.00 | 0.00 | 0.00 | 59 | 1013.1 |
| 20260508183802 | 15 | 96 | 4.8 | 16.1 | 0.00 | 0.00 | 0.00 | 58 | 1013.1 |
| 20260508183701 | 15 | 77 | 4.8 | 16.1 | 0.00 | 0.00 | 0.00 | 58 | 1013.1 |
| 20260508183601 | 16 | 75 | 4.8 | 16.1 | 0.00 | 0.00 | 0.00 | 58 | 1013.0 |
| 20260508183501 | 16 | 91 | 4.8 | 16.1 | 0.00 | 0.00 | 0.00 | 58 | 1013.1 |
| 20260508183401 | 16 | 103 | 4.8 | 16.1 | 0.00 | 0.00 | 0.00 | 58 | 1013.1 |
| 20260508183301 | 16 | 72 | 4.8 | 16.1 | 0.00 | 0.00 | 0.00 | 58 | 1013.1 |
| 20260508183201 | 16 | 69 | 4.8 | 16.1 | 0.00 | 0.00 | 0.00 | 58 | 1013.1 |
| 20260508183101 | 16 | 65 | 4.8 | 12.9 | 0.00 | 0.00 | 0.00 | 58 | 1013.1 |
| 20260508183001 | 16 | 76 | 4.8 | 14.5 | 0.00 | 0.00 | 0.00 | 58 | 1013.1 |
| 20260508182901 | 16 | 88 | 4.8 | 14.5 | 0.00 | 0.00 | 0.00 | 58 | 1013.0 |
| 20260508182801 | 16 | 84 | 4.8 | 14.5 | 0.00 | 0.00 | 0.00 | 57 | 1013.0 |
| 20260508182701 | 16 | 80 | 4.8 | 14.5 | 0.00 | 0.00 | 0.00 | 57 | 1013.0 |
| 20260508182601 | 16 | 65 | 4.8 | 14.5 | 0.00 | 0.00 | 0.00 | 57 | 1013.0 |
| 20260508182500 | 16 | 69 | 6.4 | 14.5 | 0.00 | 0.00 | 0.00 | 57 | 1013.0 |
| 20260508182401 | 16 | 104 | 4.8 | 14.5 | 0.00 | 0.00 | 0.00 | 57 | 1013.0 |
| 20260508182300 | 16 | 76 | 4.8 | 14.5 | 0.00 | 0.00 | 0.00 | 57 | 1012.9 |
| 20260508182200 | 16 | 115 | 4.8 | 14.5 | 0.00 | 0.00 | 0.00 | 57 | 1013.0 |
| 20260508182100 | 16 | 69 | 4.8 | 14.5 | 0.00 | 0.00 | 0.00 | 57 | 1012.9 |
| 20260508182001 | 16 | 78 | 4.8 | 14.5 | 0.00 | 0.00 | 0.00 | 57 | 1012.9 |
| 20260508181900 | 16 | 79 | 4.8 | 14.5 | 0.00 | 0.00 | 0.00 | 57 | 1012.9 |
| 20260508181801 | 16 | 63 | 4.8 | 14.5 | 0.00 | 0.00 | 0.00 | 57 | 1012.9 |
| 20260508181701 | 16 | 64 | 4.8 | 14.5 | 0.00 | 0.00 | 0.00 | 57 | 1012.9 |
| 20260508181601 | 16 | 55 | 4.8 | 14.5 | 0.00 | 0.00 | 0.00 | 56 | 1012.9 |
| 20260508181501 | 16 | 42 | 4.8 | 14.5 | 0.00 | 0.00 | 0.00 | 56 | 1012.9 |
| 20260508181401 | 16 | 57 | 4.8 | 14.5 | 0.00 | 0.00 | 0.00 | 56 | 1012.8 |
| 20260508181301 | 16 | 70 | 4.8 | 14.5 | 0.00 | 0.00 | 0.00 | 56 | 1012.8 |
| 20260508181200 | 16 | 92 | 4.8 | 12.9 | 0.00 | 0.00 | 0.00 | 56 | 1012.8 |
| 20260508181101 | 16 | 92 | 4.8 | 12.9 | 0.00 | 0.00 | 0.00 | 56 | 1012.8 |
| 20260508181001 | 16 | 65 | 4.8 | 12.9 | 0.00 | 0.00 | 0.00 | 56 | 1012.8 |
| 20260508180901 | 16 | 91 | 4.8 | 12.9 | 0.00 | 0.00 | 0.00 | 56 | 1012.8 |
| 20260508180801 | 16 | 82 | 4.8 | 12.9 | 0.00 | 0.00 | 0.00 | 56 | 1012.7 |
| 20260508180701 | 16 | 78 | 4.8 | 12.9 | 0.00 | 0.00 | 0.00 | 56 | 1012.8 |
| 20260508180601 | 16 | 46 | 4.8 | 12.9 | 0.00 | 0.00 | 0.00 | 56 | 1012.8 |
| 20260508180501 | 16 | 38 | 4.8 | 12.9 | 0.00 | 0.00 | 0.00 | 56 | 1012.8 |
| 20260508180400 | 16 | 83 | 4.8 | 12.9 | 0.00 | 0.00 | 0.00 | 56 | 1012.7 |
| 20260508180301 | 17 | 86 | 3.2 | 12.9 | 0.00 | 0.00 | 0.00 | 55 | 1012.7 |
| 20260508180201 | 17 | 74 | 3.2 | 12.9 | 0.00 | 0.00 | 0.00 | 55 | 1012.7 |
| 20260508180101 | 17 | 85 | 3.2 | 12.9 | 0.00 | 0.00 | 0.00 | 55 | 1012.7 |
| 20260508180001 | 17 | 76 | 3.2 | 12.9 | 0.00 | 0.00 | 0.00 | 55 | 1012.7 |
| 20260508175901 | 17 | 93 | 3.2 | 12.9 | 0.00 | 0.00 | 0.00 | 55 | 1012.7 |
| 20260508175801 | 17 | 106 | 3.2 | 12.9 | 0.00 | 0.00 | 0.00 | 55 | 1012.7 |
| 20260508175700 | 17 | 97 | 3.2 | 12.9 | 0.00 | 0.00 | 0.00 | 55 | 1012.7 |
| 20260508175600 | 17 | 124 | 3.2 | 12.9 | 0.00 | 0.00 | 0.00 | 55 | 1012.7 |
| 20260508175500 | 17 | 77 | 3.2 | 12.9 | 0.00 | 0.00 | 0.00 | 54 | 1012.7 |
| 20260508175405 | 17 | 111 | 3.2 | 11.3 | 0.00 | 0.00 | 0.00 | 55 | 1012.7 |
| 20260508175300 | 17 | 89 | 3.2 | 12.9 | 0.00 | 0.00 | 0.00 | 54 | 1012.7 |
| 20260508175200 | 17 | 98 | 3.2 | 12.9 | 0.00 | 0.00 | 0.00 | 55 | 1012.6 |
| 20260508175101 | 17 | 84 | 3.2 | 14.5 | 0.00 | 0.00 | 0.00 | 55 | 1012.7 |
| 20260508175001 | 17 | 68 | 4.8 | 14.5 | 0.00 | 0.00 | 0.00 | 55 | 1012.7 |
| 20260508174904 | 17 | 61 | 4.8 | 14.5 | 0.00 | 0.00 | 0.00 | 54 | 1012.6 |
| 20260508174800 | 17 | 97 | 4.8 | 14.5 | 0.00 | 0.00 | 0.00 | 54 | 1012.7 |
| 20260508174700 | 17 | 98 | 4.8 | 14.5 | 0.00 | 0.00 | 0.00 | 54 | 1012.6 |
| 20260508174600 | 17 | 90 | 4.8 | 14.5 | 0.00 | 0.00 | 0.00 | 53 | 1012.6 |
| 20260508174500 | 17 | 126 | 4.8 | 14.5 | 0.00 | 0.00 | 0.00 | 54 | 1012.6 |
| 20260508174401 | 17 | 100 | 4.8 | 14.5 | 0.00 | 0.00 | 0.00 | 54 | 1012.6 |
| 20260508174303 | 17 | 85 | 4.8 | 14.5 | 0.00 | 0.00 | 0.00 | 54 | 1012.5 |
| 20260508174200 | 17 | 73 | 6.4 | 17.7 | 0.00 | 0.00 | 0.00 | 53 | 1012.5 |
| 20260508174100 | 17 | 82 | 6.4 | 17.7 | 0.00 | 0.00 | 0.00 | 53 | 1012.5 |
| 20260508174001 | 17 | 78 | 4.8 | 17.7 | 0.00 | 0.00 | 0.00 | 54 | 1012.5 |
| 20260508173901 | 17 | 92 | 4.8 | 17.7 | 0.00 | 0.00 | 0.00 | 53 | 1012.5 |
| 20260508173800 | 17 | 86 | 4.8 | 17.7 | 0.00 | 0.00 | 0.00 | 53 | 1012.5 |
| 20260508173701 | 17 | 76 | 4.8 | 17.7 | 0.00 | 0.00 | 0.00 | 54 | 1012.5 |
| 20260508173601 | 17 | 98 | 4.8 | 17.7 | 0.00 | 0.00 | 0.00 | 54 | 1012.5 |
| 20260508173501 | 17 | 97 | 4.8 | 17.7 | 0.00 | 0.00 | 0.00 | 53 | 1012.5 |
| 20260508173401 | 17 | 57 | 4.8 | 17.7 | 0.00 | 0.00 | 0.00 | 53 | 1012.5 |
| 20260508173301 | 17 | 78 | 4.8 | 17.7 | 0.00 | 0.00 | 0.00 | 54 | 1012.5 |
| 20260508173201 | 17 | 86 | 3.2 | 11.3 | 0.00 | 0.00 | 0.00 | 54 | 1012.4 |
| 20260508173101 | 17 | 96 | 4.8 | 14.5 | 0.00 | 0.00 | 0.00 | 53 | 1012.5 |
| 20260508173001 | 17 | 105 | 4.8 | 14.5 | 0.00 | 0.00 | 0.00 | 53 | 1012.5 |
| 20260508172900 | 17 | 74 | 4.8 | 14.5 | 0.00 | 0.00 | 0.00 | 53 | 1012.4 |
| 20260508172801 | 17 | 43 | 4.8 | 14.5 | 0.00 | 0.00 | 0.00 | 54 | 1012.5 |
| 20260508172701 | 17 | 92 | 4.8 | 14.5 | 0.00 | 0.00 | 0.00 | 55 | 1012.5 |
| 20260508172601 | 17 | 96 | 4.8 | 14.5 | 0.00 | 0.00 | 0.00 | 54 | 1012.4 |
| 20260508172501 | 17 | 65 | 4.8 | 14.5 | 0.00 | 0.00 | 0.00 | 53 | 1012.4 |
| 20260508172400 | 17 | 90 | 4.8 | 14.5 | 0.00 | 0.00 | 0.00 | 53 | 1012.4 |
| 20260508172300 | 17 | 111 | 4.8 | 14.5 | 0.00 | 0.00 | 0.00 | 53 | 1012.4 |
| 20260508172200 | 17 | 85 | 3.2 | 14.5 | 0.00 | 0.00 | 0.00 | 53 | 1012.4 |
| 20260508172100 | 17 | 123 | 3.2 | 11.3 | 0.00 | 0.00 | 0.00 | 53 | 1012.4 |
| 20260508172000 | 17 | 96 | 3.2 | 11.3 | 0.00 | 0.00 | 0.00 | 53 | 1012.4 |
| 20260508171923 | 17 | 50 | 3.2 | 11.3 | 0.00 | 0.00 | 0.00 | 53 | 1012.4 |
| 20260508171915 | 17 | 104 | 3.2 | 11.3 | 0.00 | 0.00 | 0.00 | 53 | 1012.4 |
| 20260508171911 | 17 | 69 | 3.2 | 11.3 | 0.00 | 0.00 | 0.00 | 53 | 1012.4 |
| 20260508171601 | 17 | 61 | 3.2 | 11.3 | 0.00 | 0.00 | 0.00 | 53 | 1012.3 |
| 20260508171501 | 17 | 71 | 3.2 | 11.3 | 0.00 | 0.00 | 0.00 | 53 | 1012.3 |
| 20260508171400 | 17 | 80 | 3.2 | 11.3 | 0.00 | 0.00 | 0.00 | 54 | 1012.4 |
| 20260508171301 | 17 | 84 | 3.2 | 11.3 | 0.00 | 0.00 | 0.00 | 53 | 1012.3 |
| 20260508171201 | 17 | 93 | 3.2 | 11.3 | 0.00 | 0.00 | 0.00 | 53 | 1012.3 |
| 20260508171101 | 17 | 69 | 3.2 | 17.7 | 0.00 | 0.00 | 0.00 | 53 | 1012.3 |
| 20260508171001 | 17 | 40 | 3.2 | 17.7 | 0.00 | 0.00 | 0.00 | 53 | 1012.3 |
| 20260508170801 | 17 | 94 | 4.8 | 17.7 | 0.00 | 0.00 | 0.00 | 52 | 1012.3 |
| 20260508170701 | 17 | 118 | 4.8 | 17.7 | 0.00 | 0.00 | 0.00 | 52 | 1012.3 |
| 20260508170600 | 17 | 100 | 4.8 | 17.7 | 0.00 | 0.00 | 0.00 | 53 | 1012.3 |
| 20260508170500 | 17 | 129 | 4.8 | 17.7 | 0.00 | 0.00 | 0.00 | 54 | 1012.3 |
| 20260508170400 | 17 | 96 | 4.8 | 17.7 | 0.00 | 0.00 | 0.00 | 54 | 1012.3 |
| 20260508170300 | 17 | 98 | 4.8 | 17.7 | 0.00 | 0.00 | 0.00 | 54 | 1012.1 |
| 20260508170201 | 17 | 114 | 4.8 | 17.7 | 0.00 | 0.00 | 0.00 | 53 | 1012.1 |
| 20260508170001 | 17 | 56 | 4.8 | 14.5 | 0.00 | 0.00 | 0.00 | 53 | 1012.1 |
| 20260508165923 | 17 | 98 | 4.8 | 14.5 | 0.00 | 0.00 | 0.00 | 53 | 1012.1 |
| 20260508165915 | 17 | 58 | 4.8 | 14.5 | 0.00 | 0.00 | 0.00 | 53 | 1012.1 |
| 20260508165911 | 17 | 102 | 4.8 | 14.5 | 0.00 | 0.00 | 0.00 | 53 | 1012.1 |
| 20260508165600 | 17 | 133 | 4.8 | 14.5 | 0.00 | 0.00 | 0.00 | 53 | 1012.1 |
| 20260508165501 | 17 | 90 | 4.8 | 14.5 | 0.00 | 0.00 | 0.00 | 54 | 1012.1 |
| 20260508165400 | 17 | 121 | 4.8 | 14.5 | 0.00 | 0.00 | 0.00 | 53 | 1012.3 |
| 20260508165300 | 17 | 74 | 4.8 | 14.5 | 0.00 | 0.00 | 0.00 | 53 | 1012.1 |
| 20260508165201 | 17 | 78 | 4.8 | 14.5 | 0.00 | 0.00 | 0.00 | 53 | 1012.1 |
| 20260508165101 | 17 | 74 | 4.8 | 14.5 | 0.00 | 0.00 | 0.00 | 53 | 1012.1 |
| 20260508165001 | 17 | 86 | 4.8 | 14.5 | 0.00 | 0.00 | 0.00 | 53 | 1012.1 |
| 20260508164901 | 17 | 89 | 4.8 | 14.5 | 0.00 | 0.00 | 0.00 | 52 | 1012.1 |
| 20260508164800 | 17 | 63 | 3.2 | 14.5 | 0.00 | 0.00 | 0.00 | 53 | 1012.1 |
| 20260508164701 | 17 | 119 | 3.2 | 14.5 | 0.00 | 0.00 | 0.00 | 53 | 1012.1 |
| 20260508164601 | 17 | 18 | 3.2 | 12.9 | 0.00 | 0.00 | 0.00 | 53 | 1012.1 |
| 20260508164501 | 17 | 126 | 3.2 | 12.9 | 0.00 | 0.00 | 0.00 | 53 | 1012.0 |
| 20260508164401 | 17 | 120 | 3.2 | 12.9 | 0.00 | 0.00 | 0.00 | 52 | 1012.0 |
| 20260508164302 | 17 | 100 | 3.2 | 12.9 | 0.00 | 0.00 | 0.00 | 52 | 1012.0 |
| 20260508164202 | 17 | 98 | 3.2 | 14.5 | 0.00 | 0.00 | 0.00 | 52 | 1012.1 |
| 20260508164100 | 17 | 96 | 4.8 | 14.5 | 0.00 | 0.00 | 0.00 | 52 | 1012.1 |
| 20260508164000 | 17 | 126 | 3.2 | 14.5 | 0.00 | 0.00 | 0.00 | 52 | 1012.1 |
| 20260508163901 | 17 | 84 | 3.2 | 14.5 | 0.00 | 0.00 | 0.00 | 52 | 1012.1 |
| 20260508163801 | 17 | 94 | 3.2 | 14.5 | 0.00 | 0.00 | 0.00 | 51 | 1012.1 |
| 20260508163701 | 17 | 74 | 3.2 | 14.5 | 0.00 | 0.00 | 0.00 | 52 | 1012.1 |
| 20260508163601 | 18 | 77 | 3.2 | 14.5 | 0.00 | 0.00 | 0.00 | 53 | 1012.1 |
| 20260508163501 | 17 | 93 | 4.8 | 14.5 | 0.00 | 0.00 | 0.00 | 52 | 1012.3 |
| 20260508163400 | 18 | 71 | 4.8 | 14.5 | 0.00 | 0.00 | 0.00 | 53 | 1012.3 |
| 20260508163300 | 18 | 63 | 3.2 | 14.5 | 0.00 | 0.00 | 0.00 | 52 | 1012.1 |
| 20260508163201 | 18 | 77 | 3.2 | 11.3 | 0.00 | 0.00 | 0.00 | 53 | 1012.1 |
| 20260508163101 | 18 | 93 | 3.2 | 11.3 | 0.00 | 0.00 | 0.00 | 52 | 1012.1 |
| 20260508163001 | 18 | 115 | 3.2 | 11.3 | 0.00 | 0.00 | 0.00 | 52 | 1012.1 |
| 20260508162901 | 18 | 87 | 3.2 | 11.3 | 0.00 | 0.00 | 0.00 | 51 | 1012.1 |
| 20260508162801 | 18 | 120 | 3.2 | 11.3 | 0.00 | 0.00 | 0.00 | 52 | 1012.1 |
| 20260508162701 | 18 | 88 | 3.2 | 11.3 | 0.00 | 0.00 | 0.00 | 51 | 1012.1 |
| 20260508162600 | 18 | 83 | 3.2 | 11.3 | 0.00 | 0.00 | 0.00 | 51 | 1012.1 |
| 20260508162500 | 18 | 89 | 3.2 | 12.9 | 0.00 | 0.00 | 0.00 | 52 | 1012.1 |
| 20260508162400 | 18 | 110 | 3.2 | 12.9 | 0.00 | 0.00 | 0.00 | 52 | 1012.1 |
| 20260508162300 | 18 | 109 | 3.2 | 12.9 | 0.00 | 0.00 | 0.00 | 52 | 1012.3 |
| 20260508162200 | 18 | 111 | 3.2 | 12.9 | 0.00 | 0.00 | 0.00 | 52 | 1012.1 |
| 20260508162101 | 18 | 102 | 3.2 | 12.9 | 0.00 | 0.00 | 0.00 | 51 | 1012.3 |
| 20260508162001 | 18 | 92 | 3.2 | 12.9 | 0.00 | 0.00 | 0.00 | 52 | 1012.3 |
| 20260508161901 | 18 | 92 | 3.2 | 12.9 | 0.00 | 0.00 | 0.00 | 52 | 1012.3 |
| 20260508161805 | 18 | 96 | 3.2 | 12.9 | 0.00 | 0.00 | 0.00 | 52 | 1012.1 |
| 20260508161700 | 18 | 93 | 3.2 | 12.9 | 0.00 | 0.00 | 0.00 | 51 | 1012.1 |
| 20260508161600 | 18 | 94 | 3.2 | 12.9 | 0.00 | 0.00 | 0.00 | 51 | 1012.1 |
| 20260508161500 | 18 | 107 | 3.2 | 11.3 | 0.00 | 0.00 | 0.00 | 52 | 1012.1 |
| 20260508161401 | 18 | 113 | 3.2 | 11.3 | 0.00 | 0.00 | 0.00 | 52 | 1012.1 |
| 20260508161301 | 18 | 113 | 3.2 | 14.5 | 0.00 | 0.00 | 0.00 | 52 | 1012.1 |
| 20260508161201 | 18 | 91 | 3.2 | 14.5 | 0.00 | 0.00 | 0.00 | 52 | 1012.1 |
| 20260508161101 | 18 | 90 | 3.2 | 14.5 | 0.00 | 0.00 | 0.00 | 51 | 1012.1 |
| 20260508161001 | 18 | 110 | 3.2 | 14.5 | 0.00 | 0.00 | 0.00 | 52 | 1012.1 |
| 20260508160901 | 18 | 73 | 3.2 | 14.5 | 0.00 | 0.00 | 0.00 | 51 | 1012.1 |
| 20260508160802 | 18 | 88 | 3.2 | 14.5 | 0.00 | 0.00 | 0.00 | 51 | 1012.1 |
| 20260508160700 | 18 | 96 | 3.2 | 14.5 | 0.00 | 0.00 | 0.00 | 52 | 1012.1 |
| 20260508160601 | 18 | 93 | 3.2 | 14.5 | 0.00 | 0.00 | 0.00 | 51 | 1012.0 |
| 20260508160500 | 18 | 90 | 3.2 | 14.5 | 0.00 | 0.00 | 0.00 | 50 | 1012.0 |
| 20260508160400 | 18 | 105 | 3.2 | 14.5 | 0.00 | 0.00 | 0.00 | 51 | 1012.0 |
| 20260508160301 | 18 | 82 | 3.2 | 14.5 | 0.00 | 0.00 | 0.00 | 51 | 1012.1 |
| 20260508160200 | 18 | 98 | 3.2 | 14.5 | 0.00 | 0.00 | 0.00 | 51 | 1012.1 |
| 20260508160001 | 18 | 91 | 4.8 | 14.5 | 0.00 | 0.00 | 0.00 | 51 | 1012.1 |
| 20260508155923 | 18 | 98 | 3.2 | 14.5 | 0.00 | 0.00 | 0.00 | 50 | 1012.1 |
| 20260508155915 | 18 | 80 | 4.8 | 14.5 | 0.00 | 0.00 | 0.00 | 52 | 1012.1 |
| 20260508155903 | 18 | 67 | 4.8 | 14.5 | 0.00 | 0.00 | 0.00 | 50 | 1012.1 |
| 20260508155643 | 18 | 109 | 4.8 | 14.5 | 0.00 | 0.00 | 0.00 | 52 | 1012.1 |
| 20260508155424 | 18 | 78 | 4.8 | 14.5 | 0.00 | 0.00 | 0.00 | 50 | 1012.0 |
| 20260508155420 | 18 | 88 | 4.8 | 14.5 | 0.00 | 0.00 | 0.00 | 51 | 1012.0 |
| 20260508155412 | 18 | 98 | 3.2 | 14.5 | 0.00 | 0.00 | 0.00 | 50 | 1012.1 |
| 20260508155101 | 18 | 83 | 3.2 | 14.5 | 0.00 | 0.00 | 0.00 | 49 | 1012.1 |
| 20260508155001 | 18 | 92 | 3.2 | 14.5 | 0.00 | 0.00 | 0.00 | 50 | 1012.1 |
| 20260508154900 | 18 | 112 | 3.2 | 14.5 | 0.00 | 0.00 | 0.00 | 51 | 1012.0 |
| 20260508154800 | 18 | 110 | 3.2 | 11.3 | 0.00 | 0.00 | 0.00 | 50 | 1012.1 |
| 20260508154700 | 18 | 113 | 3.2 | 8.0 | 0.00 | 0.00 | 0.00 | 50 | 1012.1 |
| 20260508154600 | 18 | 92 | 3.2 | 11.3 | 0.00 | 0.00 | 0.00 | 50 | 1012.1 |
| 20260508154500 | 18 | 75 | 3.2 | 11.3 | 0.00 | 0.00 | 0.00 | 50 | 1012.1 |
| 20260508154401 | 18 | 88 | 3.2 | 11.3 | 0.00 | 0.00 | 0.00 | 50 | 1012.1 |
| 20260508154301 | 18 | 46 | 3.2 | 11.3 | 0.00 | 0.00 | 0.00 | 50 | 1012.1 |
| 20260508154201 | 19 | 102 | 3.2 | 11.3 | 0.00 | 0.00 | 0.00 | 51 | 1012.1 |
| 20260508154153 | 19 | 71 | 4.8 | 11.3 | 0.00 | 0.00 | 0.00 | 49 | 1012.1 |
| 20260508154146 | 19 | 93 | 4.8 | 11.3 | 0.00 | 0.00 | 0.00 | 51 | 1012.1 |
| 20260508154142 | 19 | 109 | 4.8 | 11.3 | 0.00 | 0.00 | 0.00 | 49 | 1012.1 |
| 20260508153925 | 19 | 92 | 4.8 | 11.3 | 0.00 | 0.00 | 0.00 | 49 | 1012.1 |
| 20260508153921 | 19 | 100 | 4.8 | 11.3 | 0.00 | 0.00 | 0.00 | 49 | 1012.1 |
| 20260508153913 | 19 | 71 | 4.8 | 11.3 | 0.00 | 0.00 | 0.00 | 49 | 1012.1 |
| 20260508153600 | 19 | 89 | 4.8 | 9.7 | 0.00 | 0.00 | 0.00 | 48 | 1012.1 |
| 20260508153500 | 19 | 80 | 4.8 | 9.7 | 0.00 | 0.00 | 0.00 | 49 | 1012.1 |
| 20260508153400 | 19 | 83 | 4.8 | 9.7 | 0.00 | 0.00 | 0.00 | 50 | 1012.1 |
| 20260508153300 | 19 | 63 | 3.2 | 9.7 | 0.00 | 0.00 | 0.00 | 49 | 1012.1 |
| 20260508153201 | 19 | 114 | 4.8 | 9.7 | 0.00 | 0.00 | 0.00 | 49 | 1012.1 |
| 20260508153101 | 19 | 71 | 4.8 | 9.7 | 0.00 | 0.00 | 0.00 | 49 | 1012.1 |
| 20260508153001 | 19 | 47 | 4.8 | 12.9 | 0.00 | 0.00 | 0.00 | 49 | 1012.3 |
| 20260508152901 | 19 | 65 | 4.8 | 12.9 | 0.00 | 0.00 | 0.00 | 48 | 1012.3 |
| 20260508152801 | 19 | 101 | 4.8 | 12.9 | 0.00 | 0.00 | 0.00 | 49 | 1012.3 |
| 20260508152701 | 19 | 85 | 4.8 | 12.9 | 0.00 | 0.00 | 0.00 | 49 | 1012.3 |
| 20260508152601 | 19 | 95 | 4.8 | 12.9 | 0.00 | 0.00 | 0.00 | 49 | 1012.3 |
| 20260508152501 | 19 | 99 | 4.8 | 12.9 | 0.00 | 0.00 | 0.00 | 49 | 1012.3 |
| 20260508152400 | 19 | 130 | 4.8 | 12.9 | 0.00 | 0.00 | 0.00 | 49 | 1012.3 |
| 20260508152300 | 19 | 59 | 4.8 | 12.9 | 0.00 | 0.00 | 0.00 | 49 | 1012.3 |
| 20260508152201 | 19 | 97 | 4.8 | 12.9 | 0.00 | 0.00 | 0.00 | 49 | 1012.3 |
| 20260508152101 | 19 | 102 | 4.8 | 12.9 | 0.00 | 0.00 | 0.00 | 49 | 1012.3 |
| 20260508152001 | 19 | 355 | 4.8 | 9.7 | 0.00 | 0.00 | 0.00 | 49 | 1012.3 |
| 20260508151901 | 19 | 329 | 4.8 | 9.7 | 0.00 | 0.00 | 0.00 | 50 | 1012.4 |
| 20260508151800 | 19 | 50 | 4.8 | 9.7 | 0.00 | 0.00 | 0.00 | 50 | 1012.4 |
| 20260508151700 | 19 | 29 | 4.8 | 11.3 | 0.00 | 0.00 | 0.00 | 50 | 1012.4 |
| 20260508151600 | 19 | 5 | 4.8 | 12.9 | 0.00 | 0.00 | 0.00 | 49 | 1012.4 |
| 20260508151500 | 19 | 49 | 4.8 | 12.9 | 0.00 | 0.00 | 0.00 | 49 | 1012.4 |
| 20260508151400 | 19 | 16 | 4.8 | 12.9 | 0.00 | 0.00 | 0.00 | 50 | 1012.4 |
| 20260508151300 | 19 | 331 | 4.8 | 12.9 | 0.00 | 0.00 | 0.00 | 50 | 1012.5 |
| 20260508151201 | 19 | 24 | 4.8 | 12.9 | 0.00 | 0.00 | 0.00 | 52 | 1012.4 |
| 20260508151101 | 19 | 46 | 6.4 | 19.3 | 0.00 | 0.00 | 0.00 | 51 | 1012.5 |
| 20260508151001 | 19 | 47 | 6.4 | 19.3 | 0.00 | 0.00 | 0.00 | 51 | 1012.5 |
| 20260508150901 | 18 | 37 | 6.4 | 19.3 | 0.00 | 0.00 | 0.00 | 52 | 1012.5 |
| 20260508150801 | 18 | 5 | 6.4 | 19.3 | 0.00 | 0.00 | 0.00 | 51 | 1012.5 |
| 20260508150700 | 18 | 59 | 6.4 | 19.3 | 0.00 | 0.00 | 0.00 | 51 | 1012.5 |
| 20260508150601 | 18 | 91 | 6.4 | 19.3 | 0.00 | 0.00 | 0.00 | 52 | 1012.5 |
| 20260508150500 | 18 | 108 | 6.4 | 19.3 | 0.00 | 0.00 | 0.00 | 52 | 1012.5 |
| 20260508150401 | 18 | 76 | 6.4 | 19.3 | 0.00 | 0.00 | 0.00 | 52 | 1012.6 |
| 20260508150300 | 18 | 69 | 4.8 | 19.3 | 0.00 | 0.00 | 0.00 | 52 | 1012.6 |
| 20260508150201 | 18 | 145 | 4.8 | 19.3 | 0.00 | 0.00 | 0.00 | 53 | 1012.5 |
| 20260508150101 | 18 | 78 | 4.8 | 14.5 | 0.00 | 0.00 | 0.00 | 53 | 1012.5 |
| 20260508150001 | 18 | 31 | 3.2 | 14.5 | 0.00 | 0.00 | 0.00 | 53 | 1012.5 |
| 20260508145900 | 18 | 90 | 3.2 | 14.5 | 0.00 | 0.00 | 0.00 | 53 | 1012.6 |
| 20260508145800 | 18 | 87 | 3.2 | 14.5 | 0.00 | 0.00 | 0.00 | 52 | 1012.6 |
| 20260508145701 | 18 | 61 | 3.2 | 11.3 | 0.00 | 0.00 | 0.00 | 50 | 1012.6 |
| 20260508145600 | 18 | 117 | 3.2 | 14.5 | 0.00 | 0.00 | 0.00 | 50 | 1012.6 |
| 20260508145500 | 18 | 103 | 3.2 | 14.5 | 0.00 | 0.00 | 0.00 | 50 | 1012.6 |
| 20260508145425 | 18 | 110 | 3.2 | 14.5 | 0.00 | 0.00 | 0.00 | 50 | 1012.6 |
| 20260508145421 | 18 | 111 | 3.2 | 16.1 | 0.00 | 0.00 | 0.00 | 51 | 1012.6 |
| 20260508145411 | 18 | 109 | 4.8 | 16.1 | 0.00 | 0.00 | 0.00 | 50 | 1012.6 |
| 20260508145100 | 19 | 109 | 4.8 | 16.1 | 0.00 | 0.00 | 0.00 | 50 | 1012.6 |
| 20260508145001 | 19 | 112 | 4.8 | 16.1 | 0.00 | 0.00 | 0.00 | 49 | 1012.6 |
| 20260508144901 | 19 | 109 | 4.8 | 16.1 | 0.00 | 0.00 | 0.00 | 49 | 1012.6 |
| 20260508144801 | 19 | 93 | 4.8 | 16.1 | 0.00 | 0.00 | 0.00 | 49 | 1012.6 |
| 20260508144700 | 19 | 95 | 4.8 | 16.1 | 0.00 | 0.00 | 0.00 | 49 | 1012.6 |
| 20260508144601 | 19 | 59 | 4.8 | 16.1 | 0.00 | 0.00 | 0.00 | 49 | 1012.6 |
| 20260508144501 | 19 | 77 | 4.8 | 16.1 | 0.00 | 0.00 | 0.00 | 50 | 1012.6 |
| 20260508144401 | 19 | 88 | 3.2 | 16.1 | 0.00 | 0.00 | 0.00 | 49 | 1012.6 |
| 20260508144302 | 19 | 84 | 3.2 | 11.3 | 0.00 | 0.00 | 0.00 | 49 | 1012.6 |
| 20260508144201 | 20 | 73 | 3.2 | 11.3 | 0.00 | 0.00 | 0.00 | 49 | 1012.6 |
| 20260508144100 | 20 | 73 | 3.2 | 11.3 | 0.00 | 0.00 | 0.00 | 48 | 1012.6 |
| 20260508144000 | 20 | 72 | 3.2 | 11.3 | 0.00 | 0.00 | 0.00 | 48 | 1012.6 |
| 20260508143900 | 20 | 58 | 4.8 | 11.3 | 0.00 | 0.00 | 0.00 | 51 | 1012.6 |
| 20260508143801 | 20 | 37 | 4.8 | 11.3 | 0.00 | 0.00 | 0.00 | 49 | 1012.6 |
| 20260508143700 | 20 | 30 | 4.8 | 11.3 | 0.00 | 0.00 | 0.00 | 51 | 1012.6 |
| 20260508143601 | 20 | 70 | 3.2 | 11.3 | 0.00 | 0.00 | 0.00 | 50 | 1012.6 |
| 20260508143500 | 20 | 82 | 3.2 | 11.3 | 0.00 | 0.00 | 0.00 | 50 | 1012.6 |
| 20260508143400 | 20 | 78 | 3.2 | 11.3 | 0.00 | 0.00 | 0.00 | 49 | 1012.6 |
| 20260508143301 | 20 | 73 | 3.2 | 11.3 | 0.00 | 0.00 | 0.00 | 48 | 1012.6 |
| 20260508143200 | 20 | 54 | 3.2 | 11.3 | 0.00 | 0.00 | 0.00 | 49 | 1012.6 |
| 20260508143101 | 20 | 11 | 3.2 | 11.3 | 0.00 | 0.00 | 0.00 | 51 | 1012.7 |
| 20260508143001 | 20 | 63 | 3.2 | 11.3 | 0.00 | 0.00 | 0.00 | 50 | 1012.7 |
| 20260508142901 | 20 | 57 | 3.2 | 11.3 | 0.00 | 0.00 | 0.00 | 49 | 1012.7 |
| 20260508142801 | 20 | 37 | 3.2 | 11.3 | 0.00 | 0.00 | 0.00 | 49 | 1012.7 |
| 20260508142700 | 20 | 120 | 3.2 | 11.3 | 0.00 | 0.00 | 0.00 | 49 | 1012.7 |
| 20260508142601 | 19 | 129 | 3.2 | 11.3 | 0.00 | 0.00 | 0.00 | 50 | 1012.7 |
| 20260508142500 | 19 | 78 | 3.2 | 11.3 | 0.00 | 0.00 | 0.00 | 50 | 1012.7 |
| 20260508142400 | 19 | 77 | 3.2 | 11.3 | 0.00 | 0.00 | 0.00 | 51 | 1012.7 |
| 20260508142300 | 19 | 69 | 3.2 | 11.3 | 0.00 | 0.00 | 0.00 | 50 | 1012.6 |
| 20260508142205 | 19 | 74 | 3.2 | 9.7 | 0.00 | 0.00 | 0.00 | 50 | 1012.7 |
| 20260508142100 | 19 | 65 | 3.2 | 9.7 | 0.00 | 0.00 | 0.00 | 50 | 1012.7 |
| 20260508142000 | 19 | 79 | 3.2 | 9.7 | 0.00 | 0.00 | 0.00 | 49 | 1012.7 |
| 20260508141900 | 19 | 98 | 3.2 | 9.7 | 0.00 | 0.00 | 0.00 | 49 | 1012.6 |
| 20260508141800 | 19 | 98 | 3.2 | 9.7 | 0.00 | 0.00 | 0.00 | 49 | 1012.7 |
| 20260508141703 | 19 | 99 | 3.2 | 9.7 | 0.00 | 0.00 | 0.00 | 50 | 1012.7 |
| 20260508141601 | 19 | 94 | 3.2 | 9.7 | 0.00 | 0.00 | 0.00 | 51 | 1012.7 |
| 20260508141501 | 19 | 57 | 3.2 | 8.0 | 0.00 | 0.00 | 0.00 | 50 | 1012.7 |
| 20260508141401 | 19 | 128 | 3.2 | 8.0 | 0.00 | 0.00 | 0.00 | 49 | 1012.7 |
| 20260508141300 | 19 | 103 | 3.2 | 9.7 | 0.00 | 0.00 | 0.00 | 49 | 1012.7 |
| 20260508141201 | 19 | 103 | 3.2 | 9.7 | 0.00 | 0.00 | 0.00 | 50 | 1012.7 |
| 20260508141100 | 19 | 83 | 3.2 | 11.3 | 0.00 | 0.00 | 0.00 | 51 | 1012.7 |
| 20260508141000 | 19 | 59 | 3.2 | 16.1 | 0.00 | 0.00 | 0.00 | 54 | 1012.7 |
| 20260508140901 | 19 | 42 | 3.2 | 16.1 | 0.00 | 0.00 | 0.00 | 52 | 1012.7 |
| 20260508140801 | 18 | 68 | 3.2 | 16.1 | 0.00 | 0.00 | 0.00 | 52 | 1012.8 |
| 20260508140700 | 18 | 68 | 3.2 | 16.1 | 0.00 | 0.00 | 0.00 | 52 | 1012.7 |
| 20260508140601 | 18 | 78 | 3.2 | 16.1 | 0.00 | 0.00 | 0.00 | 53 | 1012.8 |
| 20260508140501 | 18 | 78 | 3.2 | 16.1 | 0.00 | 0.00 | 0.00 | 52 | 1012.8 |
| 20260508140421 | 18 | 80 | 4.8 | 16.1 | 0.00 | 0.00 | 0.00 | 51 | 1012.8 |
| 20260508140417 | 18 | 108 | 3.2 | 16.1 | 0.00 | 0.00 | 0.00 | 50 | 1012.8 |
| 20260508140413 | 18 | 98 | 3.2 | 16.1 | 0.00 | 0.00 | 0.00 | 51 | 1012.8 |
| 20260508140101 | 18 | 84 | 3.2 | 16.1 | 0.00 | 0.00 | 0.00 | 51 | 1012.9 |
| 20260508140001 | 19 | 84 | 3.2 | 11.3 | 0.00 | 0.00 | 0.00 | 51 | 1012.9 |
| 20260508135900 | 19 | 90 | 4.8 | 11.3 | 0.00 | 0.00 | 0.00 | 50 | 1012.9 |
| 20260508135800 | 19 | 64 | 4.8 | 11.3 | 0.00 | 0.00 | 0.00 | 52 | 1012.9 |
| 20260508135700 | 19 | 56 | 4.8 | 11.3 | 0.00 | 0.00 | 0.00 | 53 | 1012.9 |
| 20260508135601 | 19 | 51 | 4.8 | 11.3 | 0.00 | 0.00 | 0.00 | 52 | 1012.9 |
| 20260508135501 | 18 | 81 | 4.8 | 12.9 | 0.00 | 0.00 | 0.00 | 51 | 1012.9 |
| 20260508135400 | 19 | 112 | 4.8 | 12.9 | 0.00 | 0.00 | 0.00 | 50 | 1012.9 |
| 20260508135300 | 19 | 72 | 4.8 | 12.9 | 0.00 | 0.00 | 0.00 | 51 | 1012.9 |
| 20260508135200 | 19 | 71 | 4.8 | 12.9 | 0.00 | 0.00 | 0.00 | 51 | 1012.9 |
| 20260508135100 | 19 | 111 | 4.8 | 12.9 | 0.00 | 0.00 | 0.00 | 51 | 1012.9 |
| 20260508135000 | 19 | 74 | 6.4 | 14.5 | 0.00 | 0.00 | 0.00 | 51 | 1012.9 |
| 20260508134900 | 19 | 107 | 6.4 | 14.5 | 0.00 | 0.00 | 0.00 | 51 | 1012.9 |
| 20260508134800 | 19 | 90 | 6.4 | 16.1 | 0.00 | 0.00 | 0.00 | 51 | 1012.9 |
| 20260508134700 | 19 | 52 | 6.4 | 16.1 | 0.00 | 0.00 | 0.00 | 52 | 1012.9 |
| 20260508134601 | 19 | 5 | 6.4 | 16.1 | 0.00 | 0.00 | 0.00 | 51 | 1013.0 |
| 20260508134500 | 19 | 49 | 6.4 | 16.1 | 0.00 | 0.00 | 0.00 | 51 | 1013.0 |
| 20260508134401 | 19 | 59 | 4.8 | 16.1 | 0.00 | 0.00 | 0.00 | 52 | 1013.0 |
| 20260508134300 | 19 | 44 | 4.8 | 16.1 | 0.00 | 0.00 | 0.00 | 50 | 1013.0 |
| 20260508134201 | 19 | 75 | 4.8 | 16.1 | 0.00 | 0.00 | 0.00 | 50 | 1013.0 |
| 20260508134102 | 19 | 91 | 4.8 | 16.1 | 0.00 | 0.00 | 0.00 | 51 | 1013.0 |
| 20260508134001 | 19 | 94 | 4.8 | 16.1 | 0.00 | 0.00 | 0.00 | 52 | 1013.0 |
| 20260508133901 | 19 | 77 | 4.8 | 16.1 | 0.00 | 0.00 | 0.00 | 52 | 1013.0 |
| 20260508133801 | 19 | 69 | 4.8 | 16.1 | 0.00 | 0.00 | 0.00 | 51 | 1013.0 |
| 20260508133701 | 19 | 187 | 4.8 | 16.1 | 0.00 | 0.00 | 0.00 | 52 | 1013.0 |
| 20260508133601 | 18 | 57 | 3.2 | 16.1 | 0.00 | 0.00 | 0.00 | 53 | 1013.0 |
| 20260508133501 | 18 | 48 | 3.2 | 11.3 | 0.00 | 0.00 | 0.00 | 53 | 1013.0 |
| 20260508133401 | 18 | 323 | 3.2 | 11.3 | 0.00 | 0.00 | 0.00 | 51 | 1013.0 |
| 20260508133301 | 18 | 115 | 3.2 | 11.3 | 0.00 | 0.00 | 0.00 | 51 | 1013.0 |
| 20260508133201 | 18 | 118 | 3.2 | 11.3 | 0.00 | 0.00 | 0.00 | 51 | 1012.9 |
| 20260508133100 | 18 | 142 | 3.2 | 9.7 | 0.00 | 0.00 | 0.00 | 50 | 1013.0 |
| 20260508133000 | 18 | 117 | 3.2 | 9.7 | 0.00 | 0.00 | 0.00 | 51 | 1013.1 |
| 20260508132901 | 18 | 86 | 3.2 | 9.7 | 0.00 | 0.00 | 0.00 | 49 | 1013.1 |
| 20260508132801 | 18 | 86 | 3.2 | 9.7 | 0.00 | 0.00 | 0.00 | 51 | 1013.0 |
| 20260508132701 | 18 | 94 | 3.2 | 9.7 | 0.00 | 0.00 | 0.00 | 51 | 1013.1 |
| 20260508132601 | 18 | 92 | 3.2 | 9.7 | 0.00 | 0.00 | 0.00 | 50 | 1013.0 |
| 20260508132501 | 18 | 100 | 3.2 | 9.7 | 0.00 | 0.00 | 0.00 | 50 | 1013.1 |
| 20260508132401 | 18 | 98 | 1.6 | 9.7 | 0.00 | 0.00 | 0.00 | 52 | 1013.0 |
| 20260508132300 | 18 | 92 | 1.6 | 9.7 | 0.00 | 0.00 | 0.00 | 50 | 1013.0 |
| 20260508132200 | 18 | 112 | 1.6 | 9.7 | 0.00 | 0.00 | 0.00 | 52 | 1013.0 |
| 20260508132100 | 18 | 112 | 3.2 | 9.7 | 0.00 | 0.00 | 0.00 | 53 | 1013.1 |
| 20260508132000 | 18 | 117 | 1.6 | 9.7 | 0.00 | 0.00 | 0.00 | 51 | 1013.0 |
| 20260508131859 | 18 | 105 | 3.2 | 9.7 | 0.00 | 0.00 | 0.00 | 52 | 1013.0 |
| 20260508131754 | 18 | 133 | 3.2 | 11.3 | 0.00 | 0.00 | 0.00 | 52 | 1013.1 |
| 20260508131701 | 18 | 56 | 3.2 | 12.9 | 0.00 | 0.00 | 0.00 | 51 | 1013.1 |
| 20260508131652 | 18 | 56 | 3.2 | 12.9 | 0.00 | 0.00 | 0.00 | 51 | 1013.1 |
| 20260508131552 | 18 | 55 | 3.2 | 12.9 | 0.00 | 0.00 | 0.00 | 51 | 1013.1 |
| 20260508131452 | 18 | 76 | 3.2 | 12.9 | 0.00 | 0.00 | 0.00 | 51 | 1013.1 |
| 20260508131351 | 18 | 76 | 4.8 | 12.9 | 0.00 | 0.00 | 0.00 | 52 | 1013.1 |
| 20260508131246 | 18 | 67 | 4.8 | 12.9 | 0.00 | 0.00 | 0.00 | 52 | 1013.1 |
| 20260508131201 | 19 | 93 | 4.8 | 12.9 | 0.00 | 0.00 | 0.00 | 53 | 1013.1 |
| 20260508131146 | 19 | 97 | 4.8 | 12.9 | 0.00 | 0.00 | 0.00 | 52 | 1013.1 |
| 20260508131047 | 19 | 82 | 6.4 | 12.9 | 0.00 | 0.00 | 0.00 | 53 | 1013.1 |
| 20260508130946 | 19 | 119 | 6.4 | 16.1 | 0.00 | 0.00 | 0.00 | 52 | 1013.1 |
| 20260508130926 | 19 | 117 | 6.4 | 17.7 | 0.00 | 0.00 | 0.00 | 51 | 1013.1 |
| 20260508130916 | 19 | 93 | 6.4 | 17.7 | 0.00 | 0.00 | 0.00 | 52 | 1013.1 |
| 20260508130912 | 19 | 55 | 6.4 | 17.7 | 0.00 | 0.00 | 0.00 | 52 | 1013.1 |
| 20260508130642 | 19 | 57 | 6.4 | 17.7 | 0.00 | 0.00 | 0.00 | 50 | 1013.1 |
| 20260508130541 | 19 | 76 | 6.4 | 17.7 | 0.00 | 0.00 | 0.00 | 51 | 1013.2 |
| 20260508130440 | 19 | 53 | 6.4 | 17.7 | 0.00 | 0.00 | 0.00 | 52 | 1013.2 |
| 20260508130339 | 19 | 75 | 6.4 | 17.7 | 0.00 | 0.00 | 0.00 | 52 | 1013.2 |
| 20260508130236 | 19 | 30 | 6.4 | 17.7 | 0.00 | 0.00 | 0.00 | 53 | 1013.2 |
| 20260508130200 | 19 | 50 | 6.4 | 17.7 | 0.00 | 0.00 | 0.00 | 53 | 1013.2 |
| 20260508130136 | 19 | 90 | 6.4 | 17.7 | 0.00 | 0.00 | 0.00 | 53 | 1013.2 |
| 20260508130036 | 19 | 60 | 6.4 | 17.7 | 0.00 | 0.00 | 0.00 | 53 | 1013.2 |
| 20260508125936 | 19 | 51 | 6.4 | 17.7 | 0.00 | 0.00 | 0.00 | 54 | 1013.2 |
| 20260508125929 | 18 | 17 | 4.8 | 17.7 | 0.00 | 0.00 | 0.00 | 56 | 1013.3 |
| 20260508125916 | 18 | 78 | 6.4 | 17.7 | 0.00 | 0.00 | 0.00 | 55 | 1013.3 |
| 20260508125912 | 18 | 14 | 4.8 | 17.7 | 0.00 | 0.00 | 0.00 | 54 | 1013.3 |
| 20260508125635 | 18 | 49 | 4.8 | 17.7 | 0.00 | 0.00 | 0.00 | 56 | 1013.3 |
| 20260508125535 | 18 | 46 | 4.8 | 16.1 | 0.00 | 0.00 | 0.00 | 55 | 1013.3 |
| 20260508125434 | 18 | 12 | 4.8 | 14.5 | 0.00 | 0.00 | 0.00 | 55 | 1013.3 |
| 20260508125334 | 18 | 66 | 4.8 | 16.1 | 0.00 | 0.00 | 0.00 | 54 | 1013.3 |
| 20260508125234 | 18 | 119 | 6.4 | 17.7 | 0.00 | 0.00 | 0.00 | 55 | 1013.3 |
| 20260508125200 | 18 | 12 | 6.4 | 19.3 | 0.00 | 0.00 | 0.00 | 56 | 1013.3 |
| 20260508125132 | 18 | 34 | 4.8 | 19.3 | 0.00 | 0.00 | 0.00 | 56 | 1013.3 |
| 20260508125030 | 18 | 321 | 4.8 | 19.3 | 0.00 | 0.00 | 0.00 | 56 | 1013.3 |
| 20260508124831 | 18 | 76 | 4.8 | 19.3 | 0.00 | 0.00 | 0.00 | 55 | 1013.4 |
| 20260508124702 | 18 | 38 | 4.8 | 19.3 | 0.00 | 0.00 | 0.00 | 55 | 1013.4 |
| 20260508124629 | 18 | 335 | 4.8 | 19.3 | 0.00 | 0.00 | 0.00 | 55 | 1013.4 |
| 20260508124529 | 18 | 69 | 4.8 | 19.3 | 0.00 | 0.00 | 0.00 | 55 | 1013.4 |
| 20260508124429 | 17 | 88 | 4.8 | 19.3 | 0.00 | 0.00 | 0.00 | 55 | 1013.4 |
| 20260508124329 | 17 | 5 | 3.2 | 19.3 | 0.00 | 0.00 | 0.00 | 56 | 1013.4 |
| 20260508124229 | 17 | 78 | 3.2 | 19.3 | 0.00 | 0.00 | 0.00 | 55 | 1013.4 |
| 20260508124201 | 17 | 66 | 3.2 | 16.1 | 0.00 | 0.00 | 0.00 | 55 | 1013.4 |
| 20260508124129 | 18 | 86 | 3.2 | 8.0 | 0.00 | 0.00 | 0.00 | 55 | 1013.4 |
| 20260508124029 | 18 | 86 | 3.2 | 8.0 | 0.00 | 0.00 | 0.00 | 53 | 1013.5 |
| 20260508123929 | 18 | 107 | 3.2 | 9.7 | 0.00 | 0.00 | 0.00 | 53 | 1013.4 |
| 20260508123829 | 18 | 98 | 3.2 | 9.7 | 0.00 | 0.00 | 0.00 | 53 | 1013.4 |
| 20260508123729 | 18 | 88 | 3.2 | 11.3 | 0.00 | 0.00 | 0.00 | 54 | 1013.4 |
| 20260508123701 | 18 | 90 | 3.2 | 11.3 | 0.00 | 0.00 | 0.00 | 54 | 1013.4 |
| 20260508123629 | 18 | 36 | 4.8 | 12.9 | 0.00 | 0.00 | 0.00 | 56 | 1013.4 |
| 20260508123529 | 18 | 72 | 4.8 | 14.5 | 0.00 | 0.00 | 0.00 | 55 | 1013.4 |
| 20260508123429 | 18 | 80 | 4.8 | 14.5 | 0.00 | 0.00 | 0.00 | 53 | 1013.4 |
| 20260508123329 | 18 | 115 | 4.8 | 14.5 | 0.00 | 0.00 | 0.00 | 53 | 1013.4 |
| 20260508123229 | 18 | 171 | 4.8 | 14.5 | 0.00 | 0.00 | 0.00 | 53 | 1013.4 |
| 20260508123201 | 18 | 172 | 4.8 | 14.5 | 0.00 | 0.00 | 0.00 | 53 | 1013.4 |
| 20260508123128 | 18 | 133 | 4.8 | 14.5 | 0.00 | 0.00 | 0.00 | 54 | 1013.4 |
| 20260508123029 | 18 | 99 | 4.8 | 14.5 | 0.00 | 0.00 | 0.00 | 54 | 1013.4 |
| 20260508122929 | 18 | 105 | 4.8 | 14.5 | 0.00 | 0.00 | 0.00 | 53 | 1013.4 |
| 20260508122828 | 18 | 105 | 4.8 | 14.5 | 0.00 | 0.00 | 0.00 | 55 | 1013.4 |
| 20260508122728 | 18 | 91 | 4.8 | 14.5 | 0.00 | 0.00 | 0.00 | 56 | 1013.3 |
| 20260508122701 | 18 | 92 | 4.8 | 14.5 | 0.00 | 0.00 | 0.00 | 56 | 1013.3 |
| 20260508122628 | 18 | 355 | 3.2 | 14.5 | 0.00 | 0.00 | 0.00 | 57 | 1013.4 |
| 20260508122529 | 17 | 328 | 3.2 | 14.5 | 0.00 | 0.00 | 0.00 | 55 | 1013.4 |
| 20260508122429 | 17 | 348 | 3.2 | 14.5 | 0.00 | 0.00 | 0.00 | 55 | 1013.4 |
| 20260508122329 | 17 | 348 | 4.8 | 14.5 | 0.00 | 0.00 | 0.00 | 57 | 1013.4 |
| 20260508122228 | 17 | 348 | 3.2 | 14.5 | 0.00 | 0.00 | 0.00 | 58 | 1013.5 |
| 20260508122200 | 17 | 5 | 3.2 | 14.5 | 0.00 | 0.00 | 0.00 | 58 | 1013.5 |
| 20260508122128 | 17 | 34 | 3.2 | 14.5 | 0.00 | 0.00 | 0.00 | 56 | 1013.4 |
| 20260508122026 | 17 | 32 | 3.2 | 14.5 | 0.00 | 0.00 | 0.00 | 54 | 1013.5 |
| 20260508121927 | 17 | 46 | 3.2 | 8.0 | 0.00 | 0.00 | 0.00 | 54 | 1013.5 |
| 20260508121922 | 17 | 16 | 3.2 | 12.9 | 0.00 | 0.00 | 0.00 | 54 | 1013.5 |
| 20260508121917 | 17 | 310 | 3.2 | 8.0 | 0.00 | 0.00 | 0.00 | 56 | 1013.5 |
| 20260508121913 | 17 | 16 | 3.2 | 8.0 | 0.00 | 0.00 | 0.00 | 55 | 1013.5 |
| 20260508121618 | 17 | 88 | 3.2 | 12.9 | 0.00 | 0.00 | 0.00 | 55 | 1013.5 |
| 20260508121518 | 17 | 100 | 3.2 | 12.9 | 0.00 | 0.00 | 0.00 | 54 | 1013.5 |
| 20260508121417 | 17 | 96 | 3.2 | 12.9 | 0.00 | 0.00 | 0.00 | 53 | 1013.5 |
| 20260508121312 | 17 | 69 | 3.2 | 12.9 | 0.00 | 0.00 | 0.00 | 54 | 1013.5 |
| 20260508121201 | 17 | 105 | 3.2 | 12.9 | 0.00 | 0.00 | 0.00 | 54 | 1013.5 |
| 20260508121113 | 17 | 113 | 3.2 | 12.9 | 0.00 | 0.00 | 0.00 | 55 | 1013.5 |
| 20260508121012 | 17 | 100 | 3.2 | 12.9 | 0.00 | 0.00 | 0.00 | 56 | 1013.5 |
| 20260508120923 | 17 | 57 | 3.2 | 12.9 | 0.00 | 0.00 | 0.00 | 58 | 1013.5 |
| 20260508120919 | 17 | 94 | 3.2 | 12.9 | 0.00 | 0.00 | 0.00 | 55 | 1013.4 |
| 20260508120915 | 17 | 104 | 3.2 | 12.9 | 0.00 | 0.00 | 0.00 | 56 | 1013.4 |
| 20260508120911 | 17 | 109 | 3.2 | 12.9 | 0.00 | 0.00 | 0.00 | 58 | 1013.5 |
| 20260508120606 | 17 | 105 | 3.2 | 12.9 | 0.00 | 0.00 | 0.00 | 57 | 1013.4 |
| 20260508120506 | 17 | 64 | 3.2 | 12.9 | 0.00 | 0.00 | 0.00 | 56 | 1013.4 |
| 20260508120405 | 17 | 94 | 3.2 | 12.9 | 0.00 | 0.00 | 0.00 | 57 | 1013.5 |
| 20260508120304 | 17 | 67 | 3.2 | 12.9 | 0.00 | 0.00 | 0.00 | 58 | 1013.4 |
| 20260508120201 | 17 | 246 | 3.2 | 12.9 | 0.00 | 0.00 | 0.00 | 57 | 1013.4 |
| 20260508120002 | 17 | 247 | 3.2 | 16.1 | 0.00 | 0.00 | 0.00 | 57 | 1013.5 |
| 20260508115902 | 17 | 110 | 3.2 | 16.1 | 0.00 | 0.00 | 0.00 | 56 | 1013.5 |
| 20260508115802 | 17 | 99 | 3.2 | 16.1 | 0.00 | 0.00 | 0.00 | 58 | 1013.5 |
| 20260508115701 | 17 | 110 | 3.2 | 16.1 | 0.00 | 0.00 | 0.00 | 57 | 1013.4 |
| 20260508115602 | 17 | 78 | 3.2 | 16.1 | 0.00 | 0.00 | 0.00 | 56 | 1013.5 |
| 20260508115502 | 17 | 63 | 3.2 | 16.1 | 0.00 | 0.00 | 0.00 | 58 | 1013.4 |
| 20260508115402 | 17 | 111 | 3.2 | 16.1 | 0.00 | 0.00 | 0.00 | 57 | 1013.5 |
| 20260508115306 | 17 | 96 | 3.2 | 16.1 | 0.00 | 0.00 | 0.00 | 57 | 1013.4 |
| 20260508115201 | 17 | 107 | 3.2 | 16.1 | 0.00 | 0.00 | 0.00 | 58 | 1013.5 |
| 20260508115102 | 17 | 78 | 3.2 | 12.9 | 0.00 | 0.00 | 0.00 | 57 | 1013.4 |
| 20260508115002 | 17 | 342 | 3.2 | 12.9 | 0.00 | 0.00 | 0.00 | 58 | 1013.4 |
| 20260508114921 | 17 | 93 | 3.2 | 12.9 | 0.00 | 0.00 | 0.00 | 59 | 1013.4 |
| 20260508114917 | 17 | 89 | 4.8 | 12.9 | 0.00 | 0.00 | 0.00 | 60 | 1013.4 |
| 20260508114913 | 17 | 107 | 3.2 | 12.9 | 0.00 | 0.00 | 0.00 | 60 | 1013.4 |
| 20260508114600 | 17 | 91 | 3.2 | 11.3 | 0.00 | 0.00 | 0.00 | 58 | 1013.4 |
| 20260508114500 | 17 | 73 | 4.8 | 12.9 | 0.00 | 0.00 | 0.00 | 59 | 1013.4 |
| 20260508114400 | 17 | 91 | 3.2 | 12.9 | 0.00 | 0.00 | 0.00 | 57 | 1013.4 |
| 20260508114300 | 17 | 109 | 3.2 | 12.9 | 0.00 | 0.00 | 0.00 | 59 | 1013.4 |
| 20260508114204 | 17 | 107 | 3.2 | 12.9 | 0.00 | 0.00 | 0.00 | 62 | 1013.4 |
| 20260508114159 | 17 | 107 | 3.2 | 12.9 | 0.00 | 0.00 | 0.00 | 62 | 1013.4 |
| 20260508114056 | 17 | 81 | 3.2 | 12.9 | 0.00 | 0.00 | 0.00 | 61 | 1013.4 |
| 20260508113956 | 17 | 54 | 3.2 | 12.9 | 0.00 | 0.00 | 0.00 | 60 | 1013.4 |
| 20260508113856 | 16 | 54 | 3.2 | 12.9 | 0.00 | 0.00 | 0.00 | 59 | 1013.5 |
| 20260508113756 | 16 | 130 | 3.2 | 12.9 | 0.00 | 0.00 | 0.00 | 61 | 1013.5 |
| 20260508113701 | 16 | 78 | 3.2 | 12.9 | 0.00 | 0.00 | 0.00 | 60 | 1013.5 |
| 20260508113654 | 16 | 117 | 3.2 | 12.9 | 0.00 | 0.00 | 0.00 | 60 | 1013.4 |
| 20260508113550 | 16 | 78 | 3.2 | 12.9 | 0.00 | 0.00 | 0.00 | 60 | 1013.5 |
| 20260508113448 | 16 | 119 | 4.8 | 12.9 | 0.00 | 0.00 | 0.00 | 60 | 1013.4 |
| 20260508113348 | 16 | 101 | 4.8 | 12.9 | 0.00 | 0.00 | 0.00 | 59 | 1013.5 |
| 20260508113248 | 16 | 90 | 4.8 | 12.9 | 0.00 | 0.00 | 0.00 | 61 | 1013.5 |
| 20260508113201 | 16 | 104 | 4.8 | 12.9 | 0.00 | 0.00 | 0.00 | 61 | 1013.5 |
| 20260508113148 | 16 | 77 | 4.8 | 12.9 | 0.00 | 0.00 | 0.00 | 61 | 1013.5 |
| 20260508113044 | 16 | 156 | 4.8 | 12.9 | 0.00 | 0.00 | 0.00 | 60 | 1013.5 |
| 20260508112944 | 16 | 146 | 4.8 | 12.9 | 0.00 | 0.00 | 0.00 | 60 | 1013.5 |
| 20260508112844 | 16 | 96 | 4.8 | 12.9 | 0.00 | 0.00 | 0.00 | 60 | 1013.5 |
| 20260508112744 | 16 | 96 | 6.4 | 12.9 | 0.00 | 0.00 | 0.00 | 59 | 1013.5 |
| 20260508112702 | 16 | 111 | 6.4 | 12.9 | 0.00 | 0.00 | 0.00 | 59 | 1013.5 |
| 20260508112642 | 16 | 72 | 4.8 | 12.9 | 0.00 | 0.00 | 0.00 | 60 | 1013.6 |
| 20260508112538 | 16 | 105 | 4.8 | 14.5 | 0.00 | 0.00 | 0.00 | 60 | 1013.5 |
| 20260508112438 | 16 | 79 | 4.8 | 14.5 | 0.00 | 0.00 | 0.00 | 60 | 1013.5 |
| 20260508112338 | 17 | 114 | 4.8 | 14.5 | 0.00 | 0.00 | 0.00 | 60 | 1013.6 |
| 20260508112238 | 17 | 91 | 6.4 | 14.5 | 0.00 | 0.00 | 0.00 | 60 | 1013.6 |
| 20260508112201 | 17 | 124 | 6.4 | 19.3 | 0.00 | 0.00 | 0.00 | 60 | 1013.6 |
| 20260508112135 | 17 | 90 | 6.4 | 19.3 | 0.00 | 0.00 | 0.00 | 60 | 1013.6 |
| 20260508112034 | 16 | 56 | 4.8 | 19.3 | 0.00 | 0.00 | 0.00 | 59 | 1013.6 |
| 20260508111929 | 16 | 65 | 4.8 | 19.3 | 0.00 | 0.00 | 0.00 | 60 | 1013.6 |
| 20260508111829 | 16 | 69 | 4.8 | 19.3 | 0.00 | 0.00 | 0.00 | 60 | 1013.6 |
| 20260508111729 | 16 | 57 | 4.8 | 19.3 | 0.00 | 0.00 | 0.00 | 62 | 1013.6 |
| 20260508111701 | 16 | 96 | 4.8 | 19.3 | 0.00 | 0.00 | 0.00 | 62 | 1013.6 |
| 20260508111630 | 16 | 82 | 4.8 | 19.3 | 0.00 | 0.00 | 0.00 | 60 | 1013.6 |
| 20260508111524 | 16 | 103 | 4.8 | 19.3 | 0.00 | 0.00 | 0.00 | 60 | 1013.6 |
| 20260508111430 | 16 | 141 | 3.2 | 11.3 | 0.00 | 0.00 | 0.00 | 61 | 1013.6 |
| 20260508111424 | 16 | 109 | 4.8 | 19.3 | 0.00 | 0.00 | 0.00 | 60 | 1013.6 |
| 20260508111416 | 16 | 125 | 3.2 | 19.3 | 0.00 | 0.00 | 0.00 | 61 | 1013.6 |
| 20260508111412 | 16 | 82 | 3.2 | 19.3 | 0.00 | 0.00 | 0.00 | 60 | 1013.6 |
| 20260508111123 | 16 | 151 | 3.2 | 11.3 | 0.00 | 0.00 | 0.00 | 61 | 1013.7 |
| 20260508111024 | 16 | 96 | 3.2 | 8.0 | 0.00 | 0.00 | 0.00 | 59 | 1013.7 |
| 20260508110930 | 16 | 73 | 3.2 | 11.3 | 0.00 | 0.00 | 0.00 | 63 | 1013.7 |
| 20260508110922 | 16 | 59 | 3.2 | 11.3 | 0.00 | 0.00 | 0.00 | 60 | 1013.7 |
| 20260508110917 | 16 | 97 | 3.2 | 11.3 | 0.00 | 0.00 | 0.00 | 62 | 1013.7 |
| 20260508110913 | 16 | 80 | 3.2 | 11.3 | 0.00 | 0.00 | 0.00 | 62 | 1013.7 |
| 20260508110617 | 16 | 76 | 3.2 | 11.3 | 0.00 | 0.00 | 0.00 | 62 | 1013.7 |
| 20260508110512 | 16 | 149 | 3.2 | 11.3 | 0.00 | 0.00 | 0.00 | 61 | 1013.7 |
| 20260508110412 | 16 | 103 | 3.2 | 11.3 | 0.00 | 0.00 | 0.00 | 60 | 1013.8 |
| 20260508110312 | 16 | 88 | 3.2 | 11.3 | 0.00 | 0.00 | 0.00 | 61 | 1013.8 |
| 20260508110200 | 16 | 67 | 3.2 | 11.3 | 0.00 | 0.00 | 0.00 | 62 | 1013.7 |
| 20260508110111 | 16 | 86 | 3.2 | 11.3 | 0.00 | 0.00 | 0.00 | 63 | 1013.7 |
| 20260508110007 | 16 | 69 | 3.2 | 11.3 | 0.00 | 0.00 | 0.00 | 62 | 1013.7 |
| 20260508105905 | 16 | 97 | 3.2 | 11.3 | 0.00 | 0.00 | 0.00 | 61 | 1013.7 |
| 20260508105806 | 16 | 49 | 3.2 | 11.3 | 0.00 | 0.00 | 0.00 | 62 | 1013.7 |
| 20260508105706 | 16 | 92 | 3.2 | 11.3 | 0.00 | 0.00 | 0.00 | 60 | 1013.7 |
| 20260508105701 | 16 | 105 | 3.2 | 11.3 | 0.00 | 0.00 | 0.00 | 60 | 1013.7 |
| 20260508105606 | 16 | 90 | 3.2 | 11.3 | 0.00 | 0.00 | 0.00 | 61 | 1013.8 |
| 20260508105506 | 16 | 113 | 3.2 | 11.3 | 0.00 | 0.00 | 0.00 | 63 | 1013.8 |
| 20260508105306 | 16 | 82 | 3.2 | 17.7 | 0.00 | 0.00 | 0.00 | 64 | 1013.7 |
| 20260508105201 | 16 | 90 | 3.2 | 17.7 | 0.00 | 0.00 | 0.00 | 65 | 1013.8 |
| 20260508105102 | 16 | 101 | 3.2 | 17.7 | 0.00 | 0.00 | 0.00 | 64 | 1013.7 |
| 20260508105004 | 16 | 105 | 3.2 | 17.7 | 0.00 | 0.00 | 0.00 | 63 | 1013.8 |
| 20260508104921 | 16 | 105 | 4.8 | 17.7 | 0.00 | 0.00 | 0.00 | 63 | 1013.8 |
| 20260508104917 | 16 | 98 | 3.2 | 17.7 | 0.00 | 0.00 | 0.00 | 65 | 1013.8 |
| 20260508104913 | 16 | 79 | 3.2 | 17.7 | 0.00 | 0.00 | 0.00 | 64 | 1013.8 |
| 20260508104604 | 16 | 81 | 3.2 | 17.7 | 0.00 | 0.00 | 0.00 | 62 | 1013.8 |
| 20260508104501 | 16 | 86 | 3.2 | 17.7 | 0.00 | 0.00 | 0.00 | 62 | 1013.8 |
| 20260508104401 | 16 | 103 | 3.2 | 14.5 | 0.00 | 0.00 | 0.00 | 63 | 1013.8 |
| 20260508104301 | 16 | 84 | 3.2 | 14.5 | 0.00 | 0.00 | 0.00 | 64 | 1013.8 |
| 20260508104201 | 16 | 112 | 4.8 | 14.5 | 0.00 | 0.00 | 0.00 | 63 | 1013.8 |
| 20260508104101 | 16 | 83 | 4.8 | 14.5 | 0.00 | 0.00 | 0.00 | 63 | 1013.8 |
| 20260508104001 | 16 | 77 | 4.8 | 14.5 | 0.00 | 0.00 | 0.00 | 63 | 1013.9 |
| 20260508103901 | 16 | 96 | 4.8 | 14.5 | 0.00 | 0.00 | 0.00 | 64 | 1013.8 |
| 20260508103801 | 16 | 55 | 4.8 | 14.5 | 0.00 | 0.00 | 0.00 | 63 | 1013.9 |
| 20260508103700 | 16 | 115 | 4.8 | 14.5 | 0.00 | 0.00 | 0.00 | 63 | 1013.9 |
| 20260508103600 | 16 | 78 | 4.8 | 14.5 | 0.00 | 0.00 | 0.00 | 63 | 1013.9 |
| 20260508103501 | 16 | 121 | 3.2 | 14.5 | 0.00 | 0.00 | 0.00 | 64 | 1013.9 |
| 20260508103401 | 16 | 104 | 3.2 | 14.5 | 0.00 | 0.00 | 0.00 | 64 | 1013.9 |
| 20260508103300 | 16 | 30 | 3.2 | 14.5 | 0.00 | 0.00 | 0.00 | 64 | 1013.9 |
| 20260508103200 | 16 | 69 | 3.2 | 14.5 | 0.00 | 0.00 | 0.00 | 64 | 1013.9 |
| 20260508103101 | 16 | 110 | 3.2 | 14.5 | 0.00 | 0.00 | 0.00 | 66 | 1013.9 |
| 20260508103001 | 16 | 140 | 3.2 | 12.9 | 0.00 | 0.00 | 0.00 | 65 | 1013.9 |
| 20260508102901 | 16 | 81 | 3.2 | 12.9 | 0.00 | 0.00 | 0.00 | 65 | 1013.9 |
| 20260508102801 | 16 | 91 | 3.2 | 12.9 | 0.00 | 0.00 | 0.00 | 66 | 1013.9 |
| 20260508102700 | 16 | 115 | 4.8 | 19.3 | 0.00 | 0.00 | 0.00 | 66 | 1013.9 |
| 20260508102600 | 16 | 98 | 4.8 | 19.3 | 0.00 | 0.00 | 0.00 | 64 | 1013.9 |
| 20260508102501 | 15 | 94 | 4.8 | 19.3 | 0.00 | 0.00 | 0.00 | 65 | 1013.9 |
| 20260508102401 | 15 | 75 | 4.8 | 19.3 | 0.00 | 0.00 | 0.00 | 64 | 1013.9 |
| 20260508102301 | 15 | 138 | 4.8 | 19.3 | 0.00 | 0.00 | 0.00 | 67 | 1013.9 |
| 20260508102200 | 15 | 109 | 4.8 | 19.3 | 0.00 | 0.00 | 0.00 | 65 | 1013.9 |
| 20260508102100 | 15 | 91 | 6.4 | 19.3 | 0.00 | 0.00 | 0.00 | 65 | 1014.1 |
| 20260508102002 | 15 | 76 | 6.4 | 19.3 | 0.00 | 0.00 | 0.00 | 64 | 1014.1 |
| 20260508101902 | 15 | 132 | 4.8 | 19.3 | 0.00 | 0.00 | 0.00 | 65 | 1013.9 |
| 20260508101801 | 15 | 101 | 4.8 | 19.3 | 0.00 | 0.00 | 0.00 | 64 | 1014.1 |
| 20260508101701 | 15 | 70 | 4.8 | 17.7 | 0.00 | 0.00 | 0.00 | 65 | 1014.1 |
| 20260508101601 | 15 | 144 | 4.8 | 14.5 | 0.00 | 0.00 | 0.00 | 66 | 1014.1 |
| 20260508101501 | 15 | 92 | 4.8 | 14.5 | 0.00 | 0.00 | 0.00 | 66 | 1014.1 |
| 20260508101401 | 15 | 108 | 4.8 | 14.5 | 0.00 | 0.00 | 0.00 | 68 | 1014.1 |
| 20260508101301 | 15 | 119 | 3.2 | 14.5 | 0.00 | 0.00 | 0.00 | 68 | 1014.2 |
| 20260508101202 | 15 | 91 | 3.2 | 14.5 | 0.00 | 0.00 | 0.00 | 69 | 1014.1 |
| 20260508101101 | 15 | 110 | 3.2 | 14.5 | 0.00 | 0.00 | 0.00 | 68 | 1014.2 |
| 20260508101001 | 15 | 86 | 3.2 | 14.5 | 0.00 | 0.00 | 0.00 | 68 | 1014.2 |
| 20260508100901 | 15 | 101 | 3.2 | 14.5 | 0.00 | 0.00 | 0.00 | 67 | 1014.2 |
| 20260508100801 | 15 | 108 | 3.2 | 14.5 | 0.00 | 0.00 | 0.00 | 67 | 1014.2 |
| 20260508100701 | 15 | 93 | 3.2 | 14.5 | 0.00 | 0.00 | 0.00 | 67 | 1014.2 |
| 20260508100601 | 15 | 79 | 1.6 | 8.0 | 0.00 | 0.00 | 0.00 | 69 | 1014.2 |
| 20260508100507 | 15 | 103 | 1.6 | 6.4 | 0.00 | 0.00 | 0.00 | 69 | 1014.2 |
| 20260508100401 | 15 | 134 | 1.6 | 6.4 | 0.00 | 0.00 | 0.00 | 69 | 1014.2 |
| 20260508100300 | 14 | 97 | 1.6 | 6.4 | 0.00 | 0.00 | 0.00 | 68 | 1014.2 |
| 20260508100200 | 14 | 110 | 3.2 | 6.4 | 0.00 | 0.00 | 0.00 | 70 | 1014.2 |
| 20260508100100 | 14 | 114 | 3.2 | 14.5 | 0.00 | 0.00 | 0.00 | 69 | 1014.2 |
| 20260508100007 | 14 | 105 | 3.2 | 14.5 | 0.00 | 0.00 | 0.00 | 69 | 1014.3 |
| 20260508095900 | 14 | 92 | 3.2 | 14.5 | 0.00 | 0.00 | 0.00 | 68 | 1014.2 |
| 20260508095800 | 14 | 98 | 3.2 | 14.5 | 0.00 | 0.00 | 0.00 | 68 | 1014.3 |
| 20260508095701 | 14 | 98 | 4.8 | 14.5 | 0.00 | 0.00 | 0.00 | 68 | 1014.3 |
| 20260508095601 | 14 | 98 | 4.8 | 14.5 | 0.00 | 0.00 | 0.00 | 68 | 1014.3 |
| 20260508095501 | 14 | 109 | 4.8 | 14.5 | 0.00 | 0.00 | 0.00 | 70 | 1014.3 |
| 20260508095401 | 14 | 77 | 4.8 | 14.5 | 0.00 | 0.00 | 0.00 | 69 | 1014.3 |
| 20260508095301 | 14 | 77 | 4.8 | 14.5 | 0.00 | 0.00 | 0.00 | 69 | 1014.3 |
| 20260508095200 | 14 | 105 | 4.8 | 14.5 | 0.00 | 0.00 | 0.00 | 69 | 1014.3 |
| 20260508095101 | 14 | 38 | 4.8 | 14.5 | 0.00 | 0.00 | 0.00 | 69 | 1014.4 |
| 20260508095001 | 14 | 108 | 4.8 | 12.9 | 0.00 | 0.00 | 0.00 | 68 | 1014.3 |
| 20260508094901 | 14 | 77 | 4.8 | 12.9 | 0.00 | 0.00 | 0.00 | 69 | 1014.3 |
| 20260508094801 | 14 | 76 | 4.8 | 12.9 | 0.00 | 0.00 | 0.00 | 69 | 1014.3 |
| 20260508094701 | 14 | 74 | 3.2 | 12.9 | 0.00 | 0.00 | 0.00 | 70 | 1014.3 |
| 20260508094601 | 14 | 76 | 3.2 | 12.9 | 0.00 | 0.00 | 0.00 | 70 | 1014.3 |
| 20260508094501 | 14 | 136 | 3.2 | 12.9 | 0.00 | 0.00 | 0.00 | 70 | 1014.2 |
| 20260508094401 | 14 | 67 | 3.2 | 12.9 | 0.00 | 0.00 | 0.00 | 70 | 1014.3 |
| 20260508094301 | 14 | 42 | 3.2 | 11.3 | 0.00 | 0.00 | 0.00 | 69 | 1014.3 |
| 20260508094201 | 14 | 127 | 3.2 | 12.9 | 0.00 | 0.00 | 0.00 | 69 | 1014.3 |
| 20260508094101 | 14 | 84 | 3.2 | 12.9 | 0.00 | 0.00 | 0.00 | 69 | 1014.3 |
| 20260508094001 | 14 | 53 | 3.2 | 12.9 | 0.00 | 0.00 | 0.00 | 69 | 1014.3 |
| 20260508093902 | 14 | 94 | 3.2 | 12.9 | 0.00 | 0.00 | 0.00 | 68 | 1014.2 |
| 20260508093801 | 14 | 87 | 3.2 | 12.9 | 0.00 | 0.00 | 0.00 | 70 | 1014.3 |
| 20260508093701 | 14 | 107 | 3.2 | 12.9 | 0.00 | 0.00 | 0.00 | 69 | 1014.3 |
| 20260508093601 | 14 | 67 | 3.2 | 12.9 | 0.00 | 0.00 | 0.00 | 70 | 1014.3 |
| 20260508093501 | 14 | 72 | 3.2 | 12.9 | 0.00 | 0.00 | 0.00 | 71 | 1014.3 |
| 20260508093401 | 14 | 100 | 3.2 | 12.9 | 0.00 | 0.00 | 0.00 | 70 | 1014.3 |
| 20260508093300 | 14 | 47 | 3.2 | 12.9 | 0.00 | 0.00 | 0.00 | 70 | 1014.3 |
| 20260508093200 | 14 | 197 | 3.2 | 12.9 | 0.00 | 0.00 | 0.00 | 71 | 1014.3 |
| 20260508093100 | 14 | 85 | 3.2 | 12.9 | 0.00 | 0.00 | 0.00 | 72 | 1014.3 |
| 20260508093000 | 13 | 122 | 3.2 | 12.9 | 0.00 | 0.00 | 0.00 | 72 | 1014.3 |
| 20260508092901 | 13 | 123 | 3.2 | 12.9 | 0.00 | 0.00 | 0.00 | 72 | 1014.3 |
| 20260508092801 | 13 | 124 | 3.2 | 12.9 | 0.00 | 0.00 | 0.00 | 71 | 1014.3 |
| 20260508092701 | 13 | 119 | 3.2 | 12.9 | 0.00 | 0.00 | 0.00 | 69 | 1014.3 |
| 20260508092600 | 13 | 134 | 4.8 | 12.9 | 0.00 | 0.00 | 0.00 | 70 | 1014.3 |
| 20260508092500 | 13 | 127 | 4.8 | 14.5 | 0.00 | 0.00 | 0.00 | 69 | 1014.3 |
| 20260508092401 | 13 | 126 | 4.8 | 14.5 | 0.00 | 0.00 | 0.00 | 70 | 1014.3 |
| 20260508092301 | 13 | 46 | 4.8 | 14.5 | 0.00 | 0.00 | 0.00 | 70 | 1014.3 |
| 20260508092201 | 13 | 109 | 3.2 | 14.5 | 0.00 | 0.00 | 0.00 | 72 | 1014.3 |
| 20260508092101 | 13 | 68 | 3.2 | 14.5 | 0.00 | 0.00 | 0.00 | 72 | 1014.2 |
| 20260508092001 | 13 | 53 | 3.2 | 14.5 | 0.00 | 0.00 | 0.00 | 73 | 1014.2 |
| 20260508091901 | 13 | 61 | 3.2 | 14.5 | 0.00 | 0.00 | 0.00 | 71 | 1014.2 |
| 20260508091801 | 13 | 80 | 3.2 | 14.5 | 0.00 | 0.00 | 0.00 | 71 | 1014.2 |
| 20260508091702 | 13 | 69 | 3.2 | 14.5 | 0.00 | 0.00 | 0.00 | 74 | 1014.2 |
| 20260508091602 | 13 | 72 | 3.2 | 14.5 | 0.00 | 0.00 | 0.00 | 75 | 1014.2 |
| 20260508091501 | 13 | 96 | 4.8 | 12.9 | 0.00 | 0.00 | 0.00 | 74 | 1014.2 |
| 20260508091401 | 13 | 73 | 4.8 | 12.9 | 0.00 | 0.00 | 0.00 | 74 | 1014.2 |
| 20260508091301 | 13 | 75 | 4.8 | 12.9 | 0.00 | 0.00 | 0.00 | 73 | 1014.2 |
| 20260508091201 | 13 | 71 | 4.8 | 12.9 | 0.00 | 0.00 | 0.00 | 74 | 1014.2 |
| 20260508091100 | 13 | 69 | 3.2 | 12.9 | 0.00 | 0.00 | 0.00 | 74 | 1014.2 |
| 20260508091001 | 13 | 63 | 3.2 | 12.9 | 0.00 | 0.03 | 0.00 | 73 | 1014.2 |
| 20260508090859 | 13 | 75 | 3.2 | 12.9 | 0.00 | 0.03 | 0.00 | 73 | 1014.2 |
| 20260508090753 | 13 | 77 | 3.2 | 12.9 | 0.00 | 0.03 | 0.00 | 73 | 1014.2 |
| 20260508090701 | 13 | 88 | 3.2 | 12.9 | 0.00 | 0.03 | 0.00 | 74 | 1014.2 |
| 20260508090654 | 13 | 69 | 3.2 | 12.9 | 0.00 | 0.03 | 0.00 | 74 | 1014.2 |
| 20260508090554 | 13 | 26 | 4.8 | 12.9 | 0.00 | 0.03 | 0.00 | 74 | 1014.3 |
| 20260508090454 | 13 | 68 | 3.2 | 12.9 | 0.00 | 0.03 | 0.00 | 74 | 1014.3 |
| 20260508090354 | 13 | 74 | 3.2 | 12.9 | 0.00 | 0.03 | 0.00 | 74 | 1014.3 |
| 20260508090248 | 13 | 71 | 3.2 | 12.9 | 0.00 | 0.03 | 0.00 | 73 | 1014.3 |
| 20260508090201 | 13 | 73 | 3.2 | 12.9 | 0.00 | 0.03 | 0.00 | 75 | 1014.3 |
| 20260508090147 | 13 | 73 | 3.2 | 12.9 | 0.00 | 0.03 | 0.00 | 75 | 1014.3 |
| 20260508090047 | 13 | 78 | 3.2 | 12.9 | 0.00 | 0.03 | 0.00 | 74 | 1014.3 |
| 20260508085948 | 13 | 73 | 3.2 | 12.9 | 0.00 | 0.03 | 0.00 | 74 | 1014.3 |
| 20260508085847 | 13 | 80 | 3.2 | 12.9 | 0.00 | 0.03 | 0.00 | 74 | 1014.3 |
| 20260508085742 | 12 | 82 | 3.2 | 12.9 | 0.00 | 0.03 | 0.00 | 75 | 1014.3 |
| 20260508085700 | 12 | 77 | 3.2 | 12.9 | 0.00 | 0.03 | 0.00 | 76 | 1014.3 |
| 20260508085642 | 12 | 73 | 3.2 | 12.9 | 0.00 | 0.03 | 0.00 | 76 | 1014.3 |
| 20260508085542 | 12 | 67 | 3.2 | 8.0 | 0.00 | 0.03 | 0.00 | 78 | 1014.3 |
| 20260508085442 | 12 | 74 | 3.2 | 8.0 | 0.00 | 0.03 | 0.00 | 75 | 1014.3 |